Wetterdaten: Mittwoch, 13.01.2021
Datum Zeit Temp. 2m Temp +5 cm Feuchte A. Luftdruck Regen Wind Richtung Richtung Sonnenschein UV Solar Taupunkt Windchill Windben
13.01.2021 00:00 -0,5 C -2,2 C 92 % 1018,7 hPa 0,0 l/m 3,2 km/h (1 Bft) W 270 0 min 0,0 UV-I 0 W/m -1,6 C -0,5 C 6,4 km/h (2 Bft)
13.01.2021 00:01 -0,5 C -2,2 C 92 % 1018,7 hPa 0,0 l/m 4,8 km/h (1 Bft) W 270 0 min 0,0 UV-I 0 W/m -1,6 C -0,5 C 9,7 km/h (2 Bft)
13.01.2021 00:02 -0,5 C -2,2 C 92 % 1018,7 hPa 0,0 l/m 6,4 km/h (2 Bft) W 270 0 min 0,0 UV-I 0 W/m -1,6 C -0,5 C 9,7 km/h (2 Bft)
13.01.2021 00:03 -0,5 C -2,2 C 92 % 1018,7 hPa 0,0 l/m 6,4 km/h (2 Bft) W 270 0 min 0,0 UV-I 0 W/m -1,6 C -0,5 C 12,9 km/h (3 Bft)
13.01.2021 00:04 -0,5 C -2,2 C 92 % 1018,8 hPa 0,0 l/m 4,8 km/h (1 Bft) W 270 0 min 0,0 UV-I 0 W/m -1,6 C -0,5 C 6,4 km/h (2 Bft)
13.01.2021 00:05 -0,5 C -2,2 C 92 % 1018,8 hPa 0,0 l/m 4,8 km/h (1 Bft) W 270 0 min 0,0 UV-I 0 W/m -1,6 C -0,5 C 6,4 km/h (2 Bft)
13.01.2021 00:06 -0,5 C -2,2 C 92 % 1018,8 hPa 0,0 l/m 4,8 km/h (1 Bft) W 270 0 min 0,0 UV-I 0 W/m -1,6 C -0,5 C 9,7 km/h (2 Bft)
13.01.2021 00:07 -0,6 C -2,2 C 92 % 1018,8 hPa 0,0 l/m 4,8 km/h (1 Bft) W 270 0 min 0,0 UV-I 0 W/m -1,7 C -0,6 C 4,8 km/h (1 Bft)
13.01.2021 00:08 -0,5 C -2,2 C 92 % 1018,7 hPa 0,0 l/m 4,8 km/h (1 Bft) W 270 0 min 0,0 UV-I 0 W/m -1,6 C -0,5 C 11,3 km/h (2 Bft)
13.01.2021 00:09 -0,6 C -2,2 C 92 % 1018,7 hPa 0,0 l/m 6,4 km/h (2 Bft) W 270 0 min 0,0 UV-I 0 W/m -1,7 C -0,6 C 9,7 km/h (2 Bft)
13.01.2021 00:10 -0,6 C -2,2 C 92 % 1018,9 hPa 0,0 l/m 4,8 km/h (1 Bft) W 270 0 min 0,0 UV-I 0 W/m -1,7 C -0,6 C 6,4 km/h (2 Bft)
13.01.2021 00:11 -0,6 C -2,2 C 92 % 1018,9 hPa 0,0 l/m 4,8 km/h (1 Bft) W 270 0 min 0,0 UV-I 0 W/m -1,7 C -0,6 C 6,4 km/h (2 Bft)
13.01.2021 00:12 -0,6 C -2,2 C 92 % 1018,9 hPa 0,0 l/m 6,4 km/h (2 Bft) W 270 0 min 0,0 UV-I 0 W/m -1,7 C -0,6 C 9,7 km/h (2 Bft)
13.01.2021 00:13 -0,6 C -2,2 C 92 % 1018,9 hPa 0,0 l/m 4,8 km/h (1 Bft) W 270 0 min 0,0 UV-I 0 W/m -1,7 C -0,6 C 6,4 km/h (2 Bft)
13.01.2021 00:14 -0,6 C -2,2 C 92 % 1018,9 hPa 0,0 l/m 4,8 km/h (1 Bft) W 270 0 min 0,0 UV-I 0 W/m -1,7 C -0,6 C 6,4 km/h (2 Bft)
13.01.2021 00:15 -0,6 C -2,2 C 92 % 1019,0 hPa 0,0 l/m 4,8 km/h (1 Bft) W 270 0 min 0,0 UV-I 0 W/m -1,7 C -0,6 C 6,4 km/h (2 Bft)
13.01.2021 00:16 -0,6 C -2,2 C 92 % 1018,9 hPa 0,0 l/m 4,8 km/h (1 Bft) W 270 0 min 0,0 UV-I 0 W/m -1,7 C -0,6 C 6,4 km/h (2 Bft)
13.01.2021 00:17 -0,7 C -2,2 C 92 % 1019,0 hPa 0,0 l/m 6,4 km/h (2 Bft) W 270 0 min 0,0 UV-I 0 W/m -1,8 C -0,7 C 9,7 km/h (2 Bft)
13.01.2021 00:18 -0,7 C -2,2 C 92 % 1019,0 hPa 0,0 l/m 6,4 km/h (2 Bft) W 270 0 min 0,0 UV-I 0 W/m -1,8 C -0,7 C 9,7 km/h (2 Bft)
13.01.2021 00:19 -0,7 C -2,2 C 92 % 1019,1 hPa 0,0 l/m 3,2 km/h (1 Bft) W 270 0 min 0,0 UV-I 0 W/m -1,8 C -0,7 C 6,4 km/h (2 Bft)
13.01.2021 00:20 -0,7 C -2,2 C 92 % 1019,1 hPa 0,0 l/m 4,8 km/h (1 Bft) W 270 0 min 0,0 UV-I 0 W/m -1,8 C -0,7 C 6,4 km/h (2 Bft)
13.01.2021 00:21 -0,7 C -2,8 C 92 % 1019,1 hPa 0,0 l/m 3,2 km/h (1 Bft) W 270 0 min 0,0 UV-I 0 W/m -1,8 C -0,7 C 4,8 km/h (1 Bft)
13.01.2021 00:22 -0,7 C -2,8 C 92 % 1019,2 hPa 0,0 l/m 4,8 km/h (1 Bft) W 270 0 min 0,0 UV-I 0 W/m -1,8 C -0,7 C 6,4 km/h (2 Bft)
13.01.2021 00:23 -0,7 C -2,8 C 92 % 1019,2 hPa 0,0 l/m 4,8 km/h (1 Bft) W 270 0 min 0,0 UV-I 0 W/m -1,8 C -0,7 C 6,4 km/h (2 Bft)
13.01.2021 00:24 -0,8 C -2,8 C 92 % 1019,2 hPa 0,0 l/m 4,8 km/h (1 Bft) W 270 0 min 0,0 UV-I 0 W/m -1,9 C -0,8 C 6,4 km/h (2 Bft)
13.01.2021 00:25 -0,8 C -2,8 C 92 % 1019,3 hPa 0,0 l/m 4,8 km/h (1 Bft) W 270 0 min 0,0 UV-I 0 W/m -1,9 C -0,8 C 6,4 km/h (2 Bft)
13.01.2021 00:26 -0,8 C -2,8 C 92 % 1019,2 hPa 0,0 l/m 6,4 km/h (2 Bft) W 270 0 min 0,0 UV-I 0 W/m -1,9 C -0,8 C 9,7 km/h (2 Bft)
13.01.2021 00:27 -0,8 C -2,8 C 92 % 1019,3 hPa 0,0 l/m 4,8 km/h (1 Bft) W 270 0 min 0,0 UV-I 0 W/m -1,9 C -0,8 C 6,4 km/h (2 Bft)
13.01.2021 00:28 -0,8 C -2,8 C 92 % 1019,3 hPa 0,0 l/m 4,8 km/h (1 Bft) W 270 0 min 0,0 UV-I 0 W/m -1,9 C -0,8 C 6,4 km/h (2 Bft)
13.01.2021 00:29 -0,8 C -2,8 C 92 % 1019,3 hPa 0,0 l/m 4,8 km/h (1 Bft) W 270 0 min 0,0 UV-I 0 W/m -1,9 C -0,8 C 6,4 km/h (2 Bft)
13.01.2021 00:30 -0,8 C -2,8 C 92 % 1019,3 hPa 0,0 l/m 6,4 km/h (2 Bft) W 270 0 min 0,0 UV-I 0 W/m -1,9 C -0,8 C 11,3 km/h (2 Bft)
13.01.2021 00:31 -0,8 C -2,2 C 92 % 1019,2 hPa 0,0 l/m 4,8 km/h (1 Bft) W 270 0 min 0,0 UV-I 0 W/m -1,9 C -0,8 C 6,4 km/h (2 Bft)
13.01.2021 00:32 -0,8 C -2,2 C 92 % 1019,4 hPa 0,0 l/m 6,4 km/h (2 Bft) W 270 0 min 0,0 UV-I 0 W/m -1,9 C -0,8 C 9,7 km/h (2 Bft)
13.01.2021 00:33 -0,8 C -2,2 C 92 % 1019,3 hPa 0,0 l/m 6,4 km/h (2 Bft) W 270 0 min 0,0 UV-I 0 W/m -1,9 C -0,8 C 9,7 km/h (2 Bft)
13.01.2021 00:34 -0,9 C -2,2 C 92 % 1019,5 hPa 0,0 l/m 4,8 km/h (1 Bft) W 270 0 min 0,0 UV-I 0 W/m -2,0 C -0,9 C 9,7 km/h (2 Bft)
13.01.2021 00:35 -0,9 C -2,2 C 92 % 1019,4 hPa 0,0 l/m 6,4 km/h (2 Bft) W 270 0 min 0,0 UV-I 0 W/m -2,0 C -0,9 C 12,9 km/h (3 Bft)
13.01.2021 00:36 -0,9 C -2,2 C 92 % 1019,3 hPa 0,0 l/m 6,4 km/h (2 Bft) W 270 0 min 0,0 UV-I 0 W/m -2,0 C -0,9 C 9,7 km/h (2 Bft)
13.01.2021 00:37 -0,9 C -2,2 C 92 % 1019,3 hPa 0,0 l/m 6,4 km/h (2 Bft) W 270 0 min 0,0 UV-I 0 W/m -2,0 C -0,9 C 9,7 km/h (2 Bft)
13.01.2021 00:38 -0,9 C -2,2 C 92 % 1019,3 hPa 0,0 l/m 6,4 km/h (2 Bft) W 270 0 min 0,0 UV-I 0 W/m -2,0 C -0,9 C 9,7 km/h (2 Bft)
13.01.2021 00:39 -0,9 C -2,2 C 92 % 1019,4 hPa 0,0 l/m 8,0 km/h (2 Bft) W 270 0 min 0,0 UV-I 0 W/m -2,0 C -2,6 C 11,3 km/h (2 Bft)
13.01.2021 00:40 -0,9 C -2,2 C 92 % 1019,5 hPa 0,0 l/m 9,7 km/h (2 Bft) W 270 0 min 0,0 UV-I 0 W/m -2,0 C -4,2 C 12,9 km/h (3 Bft)
13.01.2021 00:41 -0,9 C -2,2 C 92 % 1019,4 hPa 0,0 l/m 8,0 km/h (2 Bft) W 270 0 min 0,0 UV-I 0 W/m -2,0 C -2,6 C 12,9 km/h (3 Bft)
13.01.2021 00:42 -0,9 C -2,2 C 92 % 1019,4 hPa 0,0 l/m 6,4 km/h (2 Bft) W 270 0 min 0,0 UV-I 0 W/m -2,0 C -0,9 C 11,3 km/h (2 Bft)
13.01.2021 00:43 -0,9 C -2,2 C 92 % 1019,4 hPa 0,0 l/m 6,4 km/h (2 Bft) W 270 0 min 0,0 UV-I 0 W/m -2,0 C -0,9 C 11,3 km/h (2 Bft)
13.01.2021 00:44 -0,9 C -2,2 C 92 % 1019,4 hPa 0,0 l/m 9,7 km/h (2 Bft) W-NW 292 0 min 0,0 UV-I 0 W/m -2,0 C -4,2 C 19,3 km/h (3 Bft)
13.01.2021 00:45 -0,9 C -2,2 C 92 % 1019,4 hPa 0,0 l/m 4,8 km/h (1 Bft) W-NW 292 0 min 0,0 UV-I 0 W/m -2,0 C -0,9 C 19,3 km/h (3 Bft)
13.01.2021 00:46 -0,9 C -2,2 C 92 % 1019,5 hPa 0,0 l/m 8,0 km/h (2 Bft) W-SW 247 0 min 0,0 UV-I 0 W/m -2,0 C -2,6 C 12,9 km/h (3 Bft)
13.01.2021 00:47 -0,9 C -2,2 C 92 % 1019,4 hPa 0,0 l/m 4,8 km/h (1 Bft) W-SW 247 0 min 0,0 UV-I 0 W/m -2,0 C -0,9 C 6,4 km/h (2 Bft)
13.01.2021 00:48 -0,9 C -2,2 C 92 % 1019,5 hPa 0,0 l/m 4,8 km/h (1 Bft) W-SW 247 0 min 0,0 UV-I 0 W/m -2,0 C -0,9 C 6,4 km/h (2 Bft)
13.01.2021 00:49 -0,9 C -2,2 C 92 % 1019,5 hPa 0,0 l/m 4,8 km/h (1 Bft) W-SW 247 0 min 0,0 UV-I 0 W/m -2,0 C -0,9 C 8,0 km/h (2 Bft)
13.01.2021 00:50 -0,9 C -2,2 C 92 % 1019,4 hPa 0,0 l/m 4,8 km/h (1 Bft) W-SW 247 0 min 0,0 UV-I 0 W/m -2,0 C -0,9 C 6,4 km/h (2 Bft)
13.01.2021 00:51 -0,9 C -2,2 C 92 % 1019,5 hPa 0,0 l/m 3,2 km/h (1 Bft) W-SW 247 0 min 0,0 UV-I 0 W/m -2,0 C -0,9 C 4,8 km/h (1 Bft)
13.01.2021 00:52 -0,9 C -2,2 C 92 % 1019,4 hPa 0,0 l/m 3,2 km/h (1 Bft) W-SW 247 0 min 0,0 UV-I 0 W/m -2,0 C -0,9 C 4,8 km/h (1 Bft)
13.01.2021 00:53 -0,9 C -2,2 C 92 % 1019,5 hPa 0,0 l/m 1,6 km/h (1 Bft) W-SW 247 0 min 0,0 UV-I 0 W/m -2,0 C -0,9 C 3,2 km/h (1 Bft)
13.01.2021 00:54 -0,9 C -2,2 C 92 % 1019,5 hPa 0,0 l/m 4,8 km/h (1 Bft) W-SW 247 0 min 0,0 UV-I 0 W/m -2,0 C -0,9 C 6,4 km/h (2 Bft)
13.01.2021 00:55 -0,9 C -2,2 C 92 % 1019,4 hPa 0,0 l/m 6,4 km/h (2 Bft) W-SW 247 0 min 0,0 UV-I 0 W/m -2,0 C -0,9 C 6,4 km/h (2 Bft)
13.01.2021 00:56 -0,9 C -2,2 C 92 % 1019,5 hPa 0,0 l/m 3,2 km/h (1 Bft) SW 225 0 min 0,0 UV-I 0 W/m -2,0 C -0,9 C 6,4 km/h (2 Bft)
13.01.2021 00:57 -0,9 C -2,2 C 92 % 1019,3 hPa 0,0 l/m 1,6 km/h (1 Bft) SW 225 0 min 0,0 UV-I 0 W/m -2,0 C -0,9 C 3,2 km/h (1 Bft)
13.01.2021 00:58 -0,9 C -2,2 C 92 % 1019,4 hPa 0,0 l/m 3,2 km/h (1 Bft) SW 225 0 min 0,0 UV-I 0 W/m -2,0 C -0,9 C 4,8 km/h (1 Bft)
13.01.2021 00:59 -0,9 C -2,8 C 92 % 1019,4 hPa 0,0 l/m 4,8 km/h (1 Bft) SW 225 0 min 0,0 UV-I 0 W/m -2,0 C -0,9 C 6,4 km/h (2 Bft)
13.01.2021 01:00 -0,9 C -2,8 C 92 % 1019,4 hPa 0,0 l/m 6,4 km/h (2 Bft) W-SW 247 0 min 0,0 UV-I 0 W/m -2,0 C -0,9 C 11,3 km/h (2 Bft)
13.01.2021 01:01 -0,9 C -2,8 C 92 % 1019,3 hPa 0,0 l/m 4,8 km/h (1 Bft) W-SW 247 0 min 0,0 UV-I 0 W/m -2,0 C -0,9 C 6,4 km/h (2 Bft)
13.01.2021 01:02 -0,9 C -2,2 C 92 % 1019,4 hPa 0,0 l/m 3,2 km/h (1 Bft) W-SW 247 0 min 0,0 UV-I 0 W/m -2,0 C -0,9 C 4,8 km/h (1 Bft)
13.01.2021 01:03 -0,9 C -2,2 C 92 % 1019,3 hPa 0,0 l/m 3,2 km/h (1 Bft) W-SW 247 0 min 0,0 UV-I 0 W/m -2,0 C -0,9 C 4,8 km/h (1 Bft)
13.01.2021 01:04 -0,9 C -2,2 C 92 % 1019,3 hPa 0,0 l/m 1,6 km/h (1 Bft) W-SW 247 0 min 0,0 UV-I 0 W/m -2,0 C -0,9 C 3,2 km/h (1 Bft)
13.01.2021 01:05 -0,9 C -2,2 C 92 % 1019,4 hPa 0,0 l/m 3,2 km/h (1 Bft) W-SW 247 0 min 0,0 UV-I 0 W/m -2,0 C -0,9 C 4,8 km/h (1 Bft)
13.01.2021 01:06 -0,9 C -2,2 C 92 % 1019,3 hPa 0,0 l/m 3,2 km/h (1 Bft) W-SW 247 0 min 0,0 UV-I 0 W/m -2,0 C -0,9 C 4,8 km/h (1 Bft)
13.01.2021 01:07 -1,0 C -2,2 C 92 % 1019,3 hPa 0,0 l/m 4,8 km/h (1 Bft) W-SW 247 0 min 0,0 UV-I 0 W/m -2,1 C -1,0 C 4,8 km/h (1 Bft)
13.01.2021 01:08 -1,0 C -2,2 C 92 % 1019,3 hPa 0,0 l/m 3,2 km/h (1 Bft) W-SW 247 0 min 0,0 UV-I 0 W/m -2,1 C -1,0 C 6,4 km/h (2 Bft)
13.01.2021 01:09 -1,0 C -2,2 C 92 % 1019,3 hPa 0,0 l/m 3,2 km/h (1 Bft) W-SW 247 0 min 0,0 UV-I 0 W/m -2,1 C -1,0 C 4,8 km/h (1 Bft)
13.01.2021 01:10 -1,0 C -2,2 C 92 % 1019,3 hPa 0,0 l/m 3,2 km/h (1 Bft) W-SW 247 0 min 0,0 UV-I 0 W/m -2,1 C -1,0 C 4,8 km/h (1 Bft)
13.01.2021 01:11 -1,0 C -2,2 C 92 % 1019,3 hPa 0,0 l/m 3,2 km/h (1 Bft) W-SW 247 0 min 0,0 UV-I 0 W/m -2,1 C -1,0 C 4,8 km/h (1 Bft)
13.01.2021 01:12 -1,0 C -1,7 C 92 % 1019,3 hPa 0,0 l/m 3,2 km/h (1 Bft) W-SW 247 0 min 0,0 UV-I 0 W/m -2,1 C -1,0 C 4,8 km/h (1 Bft)
13.01.2021 01:13 -1,0 C -1,7 C 92 % 1019,4 hPa 0,0 l/m 3,2 km/h (1 Bft) W-SW 247 0 min 0,0 UV-I 0 W/m -2,1 C -1,0 C 4,8 km/h (1 Bft)
13.01.2021 01:14 -1,0 C -1,7 C 92 % 1019,3 hPa 0,0 l/m 3,2 km/h (1 Bft) W-SW 247 0 min 0,0 UV-I 0 W/m -2,1 C -1,0 C 4,8 km/h (1 Bft)
13.01.2021 01:15 -1,0 C -1,7 C 92 % 1019,3 hPa 0,0 l/m 4,8 km/h (1 Bft) W-SW 247 0 min 0,0 UV-I 0 W/m -2,1 C -1,0 C 6,4 km/h (2 Bft)
13.01.2021 01:16 -1,0 C -1,7 C 92 % 1019,4 hPa 0,0 l/m 4,8 km/h (1 Bft) W-SW 247 0 min 0,0 UV-I 0 W/m -2,1 C -1,0 C 6,4 km/h (2 Bft)
13.01.2021 01:17 -1,0 C -1,7 C 92 % 1019,3 hPa 0,0 l/m 3,2 km/h (1 Bft) W-SW 247 0 min 0,0 UV-I 0 W/m -2,1 C -1,0 C 4,8 km/h (1 Bft)
13.01.2021 01:18 -1,0 C -1,7 C 92 % 1019,3 hPa 0,0 l/m 3,2 km/h (1 Bft) W-SW 247 0 min 0,0 UV-I 0 W/m -2,1 C -1,0 C 4,8 km/h (1 Bft)
13.01.2021 01:19 -1,0 C -1,7 C 92 % 1019,3 hPa 0,0 l/m 3,2 km/h (1 Bft) W-SW 247 0 min 0,0 UV-I 0 W/m -2,1 C -1,0 C 4,8 km/h (1 Bft)
13.01.2021 01:20 -1,0 C -1,7 C 92 % 1019,3 hPa 0,0 l/m 3,2 km/h (1 Bft) W-SW 247 0 min 0,0 UV-I 0 W/m -2,1 C -1,0 C 6,4 km/h (2 Bft)
13.01.2021 01:21 -0,9 C -1,7 C 92 % 1019,3 hPa 0,0 l/m 3,2 km/h (1 Bft) W-SW 247 0 min 0,0 UV-I 0 W/m -2,0 C -0,9 C 4,8 km/h (1 Bft)
13.01.2021 01:22 -1,0 C -1,7 C 92 % 1019,4 hPa 0,0 l/m 3,2 km/h (1 Bft) W-SW 247 0 min 0,0 UV-I 0 W/m -2,1 C -1,0 C 4,8 km/h (1 Bft)
13.01.2021 01:23 -0,9 C -1,7 C 92 % 1019,4 hPa 0,0 l/m 3,2 km/h (1 Bft) W-SW 247 0 min 0,0 UV-I 0 W/m -2,0 C -0,9 C 4,8 km/h (1 Bft)
13.01.2021 01:24 -0,9 C -1,7 C 92 % 1019,3 hPa 0,0 l/m 3,2 km/h (1 Bft) W-SW 247 0 min 0,0 UV-I 0 W/m -2,0 C -0,9 C 4,8 km/h (1 Bft)
13.01.2021 01:25 -1,0 C -1,7 C 92 % 1019,4 hPa 0,0 l/m 1,6 km/h (1 Bft) W-SW 247 0 min 0,0 UV-I 0 W/m -2,1 C -1,0 C 3,2 km/h (1 Bft)
13.01.2021 01:26 -0,9 C -1,7 C 92 % 1019,3 hPa 0,0 l/m 3,2 km/h (1 Bft) W-SW 247 0 min 0,0 UV-I 0 W/m -2,0 C -0,9 C 4,8 km/h (1 Bft)
13.01.2021 01:27 -0,9 C -1,7 C 92 % 1019,3 hPa 0,0 l/m 3,2 km/h (1 Bft) W-SW 247 0 min 0,0 UV-I 0 W/m -2,0 C -0,9 C 4,8 km/h (1 Bft)
13.01.2021 01:28 -1,0 C -1,7 C 92 % 1019,4 hPa 0,0 l/m 3,2 km/h (1 Bft) W-SW 247 0 min 0,0 UV-I 0 W/m -2,1 C -1,0 C 3,2 km/h (1 Bft)
13.01.2021 01:29 -0,9 C -1,7 C 92 % 1019,4 hPa 0,0 l/m 1,6 km/h (1 Bft) W-SW 247 0 min 0,0 UV-I 0 W/m -2,0 C -0,9 C 3,2 km/h (1 Bft)
13.01.2021 01:30 -0,9 C -1,7 C 92 % 1019,3 hPa 0,0 l/m 3,2 km/h (1 Bft) W-SW 247 0 min 0,0 UV-I 0 W/m -2,0 C -0,9 C 3,2 km/h (1 Bft)
13.01.2021 01:31 -0,9 C -1,7 C 92 % 1019,4 hPa 0,0 l/m 3,2 km/h (1 Bft) W-SW 247 0 min 0,0 UV-I 0 W/m -2,0 C -0,9 C 4,8 km/h (1 Bft)
13.01.2021 01:32 -0,9 C -1,7 C 92 % 1019,4 hPa 0,0 l/m 3,2 km/h (1 Bft) W-SW 247 0 min 0,0 UV-I 0 W/m -2,0 C -0,9 C 4,8 km/h (1 Bft)
13.01.2021 01:33 -0,9 C -1,7 C 92 % 1019,4 hPa 0,0 l/m 3,2 km/h (1 Bft) W-SW 247 0 min 0,0 UV-I 0 W/m -2,0 C -0,9 C 4,8 km/h (1 Bft)
13.01.2021 01:34 -0,9 C -1,7 C 92 % 1019,4 hPa 0,0 l/m 3,2 km/h (1 Bft) W-SW 247 0 min 0,0 UV-I 0 W/m -2,0 C -0,9 C 4,8 km/h (1 Bft)
13.01.2021 01:35 -0,9 C -1,1 C 92 % 1019,4 hPa 0,0 l/m 3,2 km/h (1 Bft) W-SW 247 0 min 0,0 UV-I 0 W/m -2,0 C -0,9 C 4,8 km/h (1 Bft)
13.01.2021 01:36 -0,9 C -1,1 C 92 % 1019,5 hPa 0,0 l/m 3,2 km/h (1 Bft) W-SW 247 0 min 0,0 UV-I 0 W/m -2,0 C -0,9 C 4,8 km/h (1 Bft)
13.01.2021 01:37 -0,9 C -1,1 C 93 % 1019,4 hPa 0,0 l/m 4,8 km/h (1 Bft) W-SW 247 0 min 0,0 UV-I 0 W/m -1,9 C -0,9 C 6,4 km/h (2 Bft)
13.01.2021 01:38 -0,9 C -1,1 C 93 % 1019,5 hPa 0,0 l/m 4,8 km/h (1 Bft) W-SW 247 0 min 0,0 UV-I 0 W/m -1,9 C -0,9 C 4,8 km/h (1 Bft)
13.01.2021 01:39 -0,9 C -1,1 C 93 % 1019,5 hPa 0,0 l/m 3,2 km/h (1 Bft) W-SW 247 0 min 0,0 UV-I 0 W/m -1,9 C -0,9 C 6,4 km/h (2 Bft)
13.01.2021 01:40 -0,9 C -1,1 C 93 % 1019,5 hPa 0,0 l/m 3,2 km/h (1 Bft) W-SW 247 0 min 0,0 UV-I 0 W/m -1,9 C -0,9 C 4,8 km/h (1 Bft)
13.01.2021 01:41 -0,9 C -1,1 C 93 % 1019,5 hPa 0,0 l/m 3,2 km/h (1 Bft) W-SW 247 0 min 0,0 UV-I 0 W/m -1,9 C -0,9 C 3,2 km/h (1 Bft)
13.01.2021 01:42 -0,9 C -1,1 C 93 % 1019,5 hPa 0,0 l/m 3,2 km/h (1 Bft) W-SW 247 0 min 0,0 UV-I 0 W/m -1,9 C -0,9 C 4,8 km/h (1 Bft)
13.01.2021 01:43 -0,9 C -1,1 C 93 % 1019,5 hPa 0,0 l/m 3,2 km/h (1 Bft) W-SW 247 0 min 0,0 UV-I 0 W/m -1,9 C -0,9 C 3,2 km/h (1 Bft)
13.01.2021 01:44 -0,9 C -1,1 C 93 % 1019,5 hPa 0,0 l/m 3,2 km/h (1 Bft) W-SW 247 0 min 0,0 UV-I 0 W/m -1,9 C -0,9 C 4,8 km/h (1 Bft)
13.01.2021 01:45 -0,9 C -1,1 C 93 % 1019,6 hPa 0,0 l/m 4,8 km/h (1 Bft) W-SW 247 0 min 0,0 UV-I 0 W/m -1,9 C -0,9 C 6,4 km/h (2 Bft)
13.01.2021 01:46 -0,8 C -1,1 C 93 % 1019,6 hPa 0,0 l/m 3,2 km/h (1 Bft) W-SW 247 0 min 0,0 UV-I 0 W/m -1,8 C -0,8 C 4,8 km/h (1 Bft)
13.01.2021 01:47 -0,8 C -1,1 C 93 % 1019,5 hPa 0,0 l/m 4,8 km/h (1 Bft) W-SW 247 0 min 0,0 UV-I 0 W/m -1,8 C -0,8 C 6,4 km/h (2 Bft)
13.01.2021 01:48 -0,9 C -1,1 C 93 % 1019,5 hPa 0,0 l/m 4,8 km/h (1 Bft) W-SW 247 0 min 0,0 UV-I 0 W/m -1,9 C -0,9 C 6,4 km/h (2 Bft)
13.01.2021 01:49 -0,8 C -1,1 C 93 % 1019,6 hPa 0,0 l/m 3,2 km/h (1 Bft) W-SW 247 0 min 0,0 UV-I 0 W/m -1,8 C -0,8 C 3,2 km/h (1 Bft)
13.01.2021 01:50 -0,8 C -1,1 C 93 % 1019,5 hPa 0,0 l/m 0,0 km/h (0 Bft) W-SW 247 0 min 0,0 UV-I 0 W/m -1,8 C -0,8 C 1,6 km/h (1 Bft)
13.01.2021 01:51 -0,8 C -1,1 C 93 % 1019,5 hPa 0,0 l/m 0,0 km/h (0 Bft) N 0 0 min 0,0 UV-I 0 W/m -1,8 C -0,8 C 0,0 km/h (0 Bft)
13.01.2021 01:52 -0,8 C -1,1 C 93 % 1019,6 hPa 0,0 l/m 1,6 km/h (1 Bft) W-SW 247 0 min 0,0 UV-I 0 W/m -1,8 C -0,8 C 3,2 km/h (1 Bft)
13.01.2021 01:53 -0,8 C -1,1 C 93 % 1019,6 hPa 0,0 l/m 1,6 km/h (1 Bft) W-SW 247 0 min 0,0 UV-I 0 W/m -1,8 C -0,8 C 3,2 km/h (1 Bft)
13.01.2021 01:54 -0,8 C -1,1 C 93 % 1019,5 hPa 0,0 l/m 1,6 km/h (1 Bft) W-SW 247 0 min 0,0 UV-I 0 W/m -1,8 C -0,8 C 3,2 km/h (1 Bft)
13.01.2021 01:55 -0,8 C -1,1 C 93 % 1019,6 hPa 0,0 l/m 3,2 km/h (1 Bft) W-SW 247 0 min 0,0 UV-I 0 W/m -1,8 C -0,8 C 3,2 km/h (1 Bft)
13.01.2021 01:56 -0,8 C -1,7 C 93 % 1019,5 hPa 0,0 l/m 1,6 km/h (1 Bft) W-SW 247 0 min 0,0 UV-I 0 W/m -1,8 C -0,8 C 3,2 km/h (1 Bft)
13.01.2021 01:57 -0,8 C -1,7 C 93 % 1019,5 hPa 0,0 l/m 3,2 km/h (1 Bft) W-SW 247 0 min 0,0 UV-I 0 W/m -1,8 C -0,8 C 4,8 km/h (1 Bft)
13.01.2021 01:58 -0,8 C -1,7 C 93 % 1019,6 hPa 0,0 l/m 3,2 km/h (1 Bft) W-SW 247 0 min 0,0 UV-I 0 W/m -1,8 C -0,8 C 4,8 km/h (1 Bft)
13.01.2021 01:59 -0,8 C -1,7 C 93 % 1019,6 hPa 0,0 l/m 3,2 km/h (1 Bft) W-SW 247 0 min 0,0 UV-I 0 W/m -1,8 C -0,8 C 4,8 km/h (1 Bft)
13.01.2021 02:00 -0,8 C -2,2 C 93 % 1019,5 hPa 0,0 l/m 3,2 km/h (1 Bft) W-SW 247 0 min 0,0 UV-I 0 W/m -1,8 C -0,8 C 4,8 km/h (1 Bft)
13.01.2021 02:01 -0,8 C -2,2 C 93 % 1019,5 hPa 0,0 l/m 1,6 km/h (1 Bft) W-SW 247 0 min 0,0 UV-I 0 W/m -1,8 C -0,8 C 3,2 km/h (1 Bft)
13.01.2021 02:02 -0,8 C -2,2 C 93 % 1019,6 hPa 0,0 l/m 3,2 km/h (1 Bft) W-SW 247 0 min 0,0 UV-I 0 W/m -1,8 C -0,8 C 3,2 km/h (1 Bft)
13.01.2021 02:03 -0,8 C -2,2 C 93 % 1019,5 hPa 0,0 l/m 3,2 km/h (1 Bft) W-SW 247 0 min 0,0 UV-I 0 W/m -1,8 C -0,8 C 3,2 km/h (1 Bft)
13.01.2021 02:04 -0,8 C -2,2 C 93 % 1019,6 hPa 0,0 l/m 4,8 km/h (1 Bft) W-SW 247 0 min 0,0 UV-I 0 W/m -1,8 C -0,8 C 4,8 km/h (1 Bft)
13.01.2021 02:05 -0,8 C -2,2 C 93 % 1019,6 hPa 0,0 l/m 3,2 km/h (1 Bft) W-SW 247 0 min 0,0 UV-I 0 W/m -1,8 C -0,8 C 4,8 km/h (1 Bft)
13.01.2021 02:06 -0,8 C -2,2 C 93 % 1019,6 hPa 0,0 l/m 3,2 km/h (1 Bft) W-SW 247 0 min 0,0 UV-I 0 W/m -1,8 C -0,8 C 4,8 km/h (1 Bft)
13.01.2021 02:07 -0,9 C -2,2 C 93 % 1019,6 hPa 0,0 l/m 3,2 km/h (1 Bft) W-SW 247 0 min 0,0 UV-I 0 W/m -1,9 C -0,9 C 6,4 km/h (2 Bft)
13.01.2021 02:08 -0,9 C -2,2 C 93 % 1019,6 hPa 0,0 l/m 3,2 km/h (1 Bft) W-SW 247 0 min 0,0 UV-I 0 W/m -1,9 C -0,9 C 4,8 km/h (1 Bft)
13.01.2021 02:09 -0,8 C -2,2 C 93 % 1019,6 hPa 0,0 l/m 1,6 km/h (1 Bft) W-SW 247 0 min 0,0 UV-I 0 W/m -1,8 C -0,8 C 3,2 km/h (1 Bft)
13.01.2021 02:10 -0,9 C -2,2 C 93 % 1019,5 hPa 0,0 l/m 3,2 km/h (1 Bft) W-SW 247 0 min 0,0 UV-I 0 W/m -1,9 C -0,9 C 4,8 km/h (1 Bft)
13.01.2021 02:11 -0,9 C -2,2 C 93 % 1019,7 hPa 0,0 l/m 3,2 km/h (1 Bft) W-SW 247 0 min 0,0 UV-I 0 W/m -1,9 C -0,9 C 4,8 km/h (1 Bft)
13.01.2021 02:12 -0,9 C -2,2 C 93 % 1019,6 hPa 0,0 l/m 3,2 km/h (1 Bft) W-SW 247 0 min 0,0 UV-I 0 W/m -1,9 C -0,9 C 4,8 km/h (1 Bft)
13.01.2021 02:13 -0,9 C -2,2 C 93 % 1019,7 hPa 0,0 l/m 3,2 km/h (1 Bft) W-SW 247 0 min 0,0 UV-I 0 W/m -1,9 C -0,9 C 3,2 km/h (1 Bft)
13.01.2021 02:14 -0,9 C -2,2 C 93 % 1019,6 hPa 0,0 l/m 1,6 km/h (1 Bft) W-SW 247 0 min 0,0 UV-I 0 W/m -1,9 C -0,9 C 3,2 km/h (1 Bft)
13.01.2021 02:15 -0,9 C -2,2 C 93 % 1019,6 hPa 0,0 l/m 1,6 km/h (1 Bft) W-SW 247 0 min 0,0 UV-I 0 W/m -1,9 C -0,9 C 3,2 km/h (1 Bft)
13.01.2021 02:16 -0,9 C -2,2 C 93 % 1019,6 hPa 0,0 l/m 3,2 km/h (1 Bft) W-SW 247 0 min 0,0 UV-I 0 W/m -1,9 C -0,9 C 3,2 km/h (1 Bft)
13.01.2021 02:17 -0,9 C -2,2 C 93 % 1019,7 hPa 0,0 l/m 1,6 km/h (1 Bft) W-SW 247 0 min 0,0 UV-I 0 W/m -1,9 C -0,9 C 3,2 km/h (1 Bft)
13.01.2021 02:18 -1,0 C -2,2 C 93 % 1019,7 hPa 0,0 l/m 1,6 km/h (1 Bft) W-SW 247 0 min 0,0 UV-I 0 W/m -2,0 C -1,0 C 3,2 km/h (1 Bft)
13.01.2021 02:19 -1,0 C -2,2 C 93 % 1019,7 hPa 0,0 l/m 1,6 km/h (1 Bft) W-SW 247 0 min 0,0 UV-I 0 W/m -2,0 C -1,0 C 3,2 km/h (1 Bft)
13.01.2021 02:20 -0,9 C -2,2 C 93 % 1019,6 hPa 0,0 l/m 1,6 km/h (1 Bft) W-SW 247 0 min 0,0 UV-I 0 W/m -1,9 C -0,9 C 3,2 km/h (1 Bft)
13.01.2021 02:21 -1,0 C -2,2 C 93 % 1019,7 hPa 0,0 l/m 3,2 km/h (1 Bft) W-SW 247 0 min 0,0 UV-I 0 W/m -2,0 C -1,0 C 3,2 km/h (1 Bft)
13.01.2021 02:22 -1,1 C -2,2 C 93 % 1019,7 hPa 0,0 l/m 3,2 km/h (1 Bft) W-SW 247 0 min 0,0 UV-I 0 W/m -2,1 C -1,1 C 4,8 km/h (1 Bft)
13.01.2021 02:23 -1,1 C -2,2 C 93 % 1019,7 hPa 0,0 l/m 3,2 km/h (1 Bft) W-SW 247 0 min 0,0 UV-I 0 W/m -2,1 C -1,1 C 4,8 km/h (1 Bft)
13.01.2021 02:24 -1,1 C -2,2 C 93 % 1019,7 hPa 0,0 l/m 3,2 km/h (1 Bft) W-SW 247 0 min 0,0 UV-I 0 W/m -2,1 C -1,1 C 4,8 km/h (1 Bft)
13.01.2021 02:25 -1,1 C -2,2 C 93 % 1019,6 hPa 0,0 l/m 3,2 km/h (1 Bft) W-SW 247 0 min 0,0 UV-I 0 W/m -2,1 C -1,1 C 4,8 km/h (1 Bft)
13.01.2021 02:26 -1,1 C -2,2 C 93 % 1019,6 hPa 0,0 l/m 1,6 km/h (1 Bft) W-SW 247 0 min 0,0 UV-I 0 W/m -2,1 C -1,1 C 3,2 km/h (1 Bft)
13.01.2021 02:27 -1,1 C -2,2 C 93 % 1019,6 hPa 0,0 l/m 1,6 km/h (1 Bft) W-SW 247 0 min 0,0 UV-I 0 W/m -2,1 C -1,1 C 3,2 km/h (1 Bft)
13.01.2021 02:28 -1,1 C -2,2 C 93 % 1019,7 hPa 0,0 l/m 1,6 km/h (1 Bft) W-SW 247 0 min 0,0 UV-I 0 W/m -2,1 C -1,1 C 3,2 km/h (1 Bft)
13.01.2021 02:29 -1,1 C -2,8 C 93 % 1019,5 hPa 0,0 l/m 1,6 km/h (1 Bft) W-SW 247 0 min 0,0 UV-I 0 W/m -2,1 C -1,1 C 3,2 km/h (1 Bft)
13.01.2021 02:30 -1,1 C -2,8 C 93 % 1019,6 hPa 0,0 l/m 1,6 km/h (1 Bft) W-SW 247 0 min 0,0 UV-I 0 W/m -2,1 C -1,1 C 3,2 km/h (1 Bft)
13.01.2021 02:31 -1,1 C -2,8 C 93 % 1019,6 hPa 0,0 l/m 1,6 km/h (1 Bft) W-SW 247 0 min 0,0 UV-I 0 W/m -2,1 C -1,1 C 3,2 km/h (1 Bft)
13.01.2021 02:32 -1,2 C -2,8 C 93 % 1019,6 hPa 0,0 l/m 3,2 km/h (1 Bft) W-SW 247 0 min 0,0 UV-I 0 W/m -2,2 C -1,2 C 3,2 km/h (1 Bft)
13.01.2021 02:33 -1,2 C -2,8 C 93 % 1019,6 hPa 0,0 l/m 3,2 km/h (1 Bft) W-SW 247 0 min 0,0 UV-I 0 W/m -2,2 C -1,2 C 4,8 km/h (1 Bft)
13.01.2021 02:34 -1,2 C -2,8 C 93 % 1019,7 hPa 0,0 l/m 3,2 km/h (1 Bft) W-SW 247 0 min 0,0 UV-I 0 W/m -2,2 C -1,2 C 4,8 km/h (1 Bft)
13.01.2021 02:35 -1,2 C -2,8 C 93 % 1019,7 hPa 0,0 l/m 3,2 km/h (1 Bft) W-SW 247 0 min 0,0 UV-I 0 W/m -2,2 C -1,2 C 4,8 km/h (1 Bft)
13.01.2021 02:36 -1,2 C -2,8 C 93 % 1019,6 hPa 0,0 l/m 4,8 km/h (1 Bft) W-SW 247 0 min 0,0 UV-I 0 W/m -2,2 C -1,2 C 4,8 km/h (1 Bft)
13.01.2021 02:37 -1,2 C -2,8 C 93 % 1019,6 hPa 0,0 l/m 3,2 km/h (1 Bft) W-SW 247 0 min 0,0 UV-I 0 W/m -2,2 C -1,2 C 4,8 km/h (1 Bft)
13.01.2021 02:38 -1,2 C -2,2 C 93 % 1019,6 hPa 0,0 l/m 3,2 km/h (1 Bft) W-SW 247 0 min 0,0 UV-I 0 W/m -2,2 C -1,2 C 4,8 km/h (1 Bft)
13.01.2021 02:39 -1,2 C -2,2 C 93 % 1019,7 hPa 0,0 l/m 3,2 km/h (1 Bft) W-SW 247 0 min 0,0 UV-I 0 W/m -2,2 C -1,2 C 4,8 km/h (1 Bft)
13.01.2021 02:40 -1,2 C -2,2 C 93 % 1019,7 hPa 0,0 l/m 3,2 km/h (1 Bft) W-SW 247 0 min 0,0 UV-I 0 W/m -2,2 C -1,2 C 4,8 km/h (1 Bft)
13.01.2021 02:41 -1,2 C -2,2 C 93 % 1019,7 hPa 0,0 l/m 1,6 km/h (1 Bft) W-SW 247 0 min 0,0 UV-I 0 W/m -2,2 C -1,2 C 4,8 km/h (1 Bft)
13.01.2021 02:42 -1,2 C -2,2 C 93 % 1019,6 hPa 0,0 l/m 4,8 km/h (1 Bft) W-SW 247 0 min 0,0 UV-I 0 W/m -2,2 C -1,2 C 11,3 km/h (2 Bft)
13.01.2021 02:43 -1,2 C -2,2 C 93 % 1019,6 hPa 0,0 l/m 6,4 km/h (2 Bft) W-SW 247 0 min 0,0 UV-I 0 W/m -2,2 C -1,2 C 11,3 km/h (2 Bft)
13.01.2021 02:44 -1,2 C -2,2 C 93 % 1019,6 hPa 0,0 l/m 3,2 km/h (1 Bft) W-SW 247 0 min 0,0 UV-I 0 W/m -2,2 C -1,2 C 3,2 km/h (1 Bft)
13.01.2021 02:45 -1,2 C -2,2 C 93 % 1019,6 hPa 0,0 l/m 3,2 km/h (1 Bft) W-SW 247 0 min 0,0 UV-I 0 W/m -2,2 C -1,2 C 4,8 km/h (1 Bft)
13.01.2021 02:46 -1,3 C -2,2 C 93 % 1019,7 hPa 0,0 l/m 3,2 km/h (1 Bft) W-SW 247 0 min 0,0 UV-I 0 W/m -2,3 C -1,3 C 4,8 km/h (1 Bft)
13.01.2021 02:47 -1,3 C -2,2 C 93 % 1019,7 hPa 0,0 l/m 1,6 km/h (1 Bft) W-SW 247 0 min 0,0 UV-I 0 W/m -2,3 C -1,3 C 3,2 km/h (1 Bft)
13.01.2021 02:48 -1,3 C -2,2 C 93 % 1019,6 hPa 0,0 l/m 3,2 km/h (1 Bft) W-SW 247 0 min 0,0 UV-I 0 W/m -2,3 C -1,3 C 8,0 km/h (2 Bft)
13.01.2021 02:49 -1,3 C -2,2 C 93 % 1019,6 hPa 0,0 l/m 4,8 km/h (1 Bft) W 270 0 min 0,0 UV-I 0 W/m -2,3 C -1,3 C 6,4 km/h (2 Bft)
13.01.2021 02:50 -1,3 C -2,2 C 93 % 1019,7 hPa 0,0 l/m 9,7 km/h (2 Bft) W 270 0 min 0,0 UV-I 0 W/m -2,3 C -4,6 C 12,9 km/h (3 Bft)
13.01.2021 02:51 -1,3 C -2,2 C 93 % 1019,7 hPa 0,0 l/m 4,8 km/h (1 Bft) W 270 0 min 0,0 UV-I 0 W/m -2,3 C -1,3 C 11,3 km/h (2 Bft)
13.01.2021 02:52 -1,3 C -2,2 C 93 % 1019,6 hPa 0,0 l/m 6,4 km/h (2 Bft) W-SW 247 0 min 0,0 UV-I 0 W/m -2,3 C -1,3 C 8,0 km/h (2 Bft)
13.01.2021 02:53 -1,3 C -2,2 C 93 % 1019,6 hPa 0,0 l/m 4,8 km/h (1 Bft) W-SW 247 0 min 0,0 UV-I 0 W/m -2,3 C -1,3 C 8,0 km/h (2 Bft)
13.01.2021 02:54 -1,3 C -2,2 C 93 % 1019,7 hPa 0,0 l/m 8,0 km/h (2 Bft) W-SW 247 0 min 0,0 UV-I 0 W/m -2,3 C -3,0 C 11,3 km/h (2 Bft)
13.01.2021 02:55 -1,3 C -2,2 C 93 % 1019,7 hPa 0,0 l/m 8,0 km/h (2 Bft) W-SW 247 0 min 0,0 UV-I 0 W/m -2,3 C -3,0 C 11,3 km/h (2 Bft)
13.01.2021 02:56 -1,3 C -2,2 C 93 % 1019,7 hPa 0,0 l/m 6,4 km/h (2 Bft) W-SW 247 0 min 0,0 UV-I 0 W/m -2,3 C -1,3 C 11,3 km/h (2 Bft)
13.01.2021 02:57 -1,3 C -2,2 C 93 % 1019,7 hPa 0,0 l/m 3,2 km/h (1 Bft) W-SW 247 0 min 0,0 UV-I 0 W/m -2,3 C -1,3 C 6,4 km/h (2 Bft)
13.01.2021 02:58 -1,3 C -2,2 C 93 % 1019,7 hPa 0,0 l/m 6,4 km/h (2 Bft) SW 225 0 min 0,0 UV-I 0 W/m -2,3 C -1,3 C 9,7 km/h (2 Bft)
13.01.2021 02:59 -1,3 C -2,8 C 93 % 1019,7 hPa 0,0 l/m 3,2 km/h (1 Bft) SW 225 0 min 0,0 UV-I 0 W/m -2,3 C -1,3 C 6,4 km/h (2 Bft)
13.01.2021 03:00 -1,3 C -2,8 C 93 % 1019,7 hPa 0,0 l/m 3,2 km/h (1 Bft) SW 225 0 min 0,0 UV-I 0 W/m -2,3 C -1,3 C 3,2 km/h (1 Bft)
13.01.2021 03:01 -1,3 C -2,8 C 93 % 1019,7 hPa 0,0 l/m 1,6 km/h (1 Bft) SW 225 0 min 0,0 UV-I 0 W/m -2,3 C -1,3 C 1,6 km/h (1 Bft)
13.01.2021 03:02 -1,3 C -2,8 C 93 % 1019,8 hPa 0,0 l/m 3,2 km/h (1 Bft) SW 225 0 min 0,0 UV-I 0 W/m -2,3 C -1,3 C 4,8 km/h (1 Bft)
13.01.2021 03:03 -1,3 C -2,8 C 93 % 1019,8 hPa 0,0 l/m 0,0 km/h (0 Bft) SW 225 0 min 0,0 UV-I 0 W/m -2,3 C -1,3 C 1,6 km/h (1 Bft)
13.01.2021 03:04 -1,3 C -2,8 C 93 % 1019,8 hPa 0,0 l/m 0,0 km/h (0 Bft) SW 225 0 min 0,0 UV-I 0 W/m -2,3 C -1,3 C 1,6 km/h (1 Bft)
13.01.2021 03:05 -1,4 C -3,3 C 93 % 1019,8 hPa 0,0 l/m 0,0 km/h (0 Bft) SW 225 0 min 0,0 UV-I 0 W/m -2,4 C -1,4 C 1,6 km/h (1 Bft)
13.01.2021 03:06 -1,4 C -3,3 C 93 % 1019,8 hPa 0,0 l/m 1,6 km/h (1 Bft) SW 225 0 min 0,0 UV-I 0 W/m -2,4 C -1,4 C 3,2 km/h (1 Bft)
13.01.2021 03:07 -1,4 C -3,3 C 93 % 1019,8 hPa 0,0 l/m 3,2 km/h (1 Bft) SW 225 0 min 0,0 UV-I 0 W/m -2,4 C -1,4 C 4,8 km/h (1 Bft)
13.01.2021 03:08 -1,3 C -3,3 C 93 % 1019,7 hPa 0,0 l/m 3,2 km/h (1 Bft) SW 225 0 min 0,0 UV-I 0 W/m -2,3 C -1,3 C 3,2 km/h (1 Bft)
13.01.2021 03:09 -1,4 C -3,3 C 93 % 1019,8 hPa 0,0 l/m 1,6 km/h (1 Bft) SW 225 0 min 0,0 UV-I 0 W/m -2,4 C -1,4 C 3,2 km/h (1 Bft)
13.01.2021 03:10 -1,4 C -3,3 C 93 % 1019,9 hPa 0,0 l/m 3,2 km/h (1 Bft) SW 225 0 min 0,0 UV-I 0 W/m -2,4 C -1,4 C 4,8 km/h (1 Bft)
13.01.2021 03:11 -1,4 C -3,3 C 93 % 1019,8 hPa 0,0 l/m 1,6 km/h (1 Bft) SW 225 0 min 0,0 UV-I 0 W/m -2,4 C -1,4 C 1,6 km/h (1 Bft)
13.01.2021 03:12 -1,4 C -3,3 C 93 % 1019,8 hPa 0,0 l/m 1,6 km/h (1 Bft) SW 225 0 min 0,0 UV-I 0 W/m -2,4 C -1,4 C 1,6 km/h (1 Bft)
13.01.2021 03:13 -1,4 C -3,3 C 93 % 1019,9 hPa 0,0 l/m 3,2 km/h (1 Bft) SW 225 0 min 0,0 UV-I 0 W/m -2,4 C -1,4 C 4,8 km/h (1 Bft)
13.01.2021 03:14 -1,4 C -3,3 C 93 % 1019,9 hPa 0,0 l/m 3,2 km/h (1 Bft) SW 225 0 min 0,0 UV-I 0 W/m -2,4 C -1,4 C 3,2 km/h (1 Bft)
13.01.2021 03:15 -1,4 C -3,3 C 93 % 1019,8 hPa 0,0 l/m 3,2 km/h (1 Bft) SW 225 0 min 0,0 UV-I 0 W/m -2,4 C -1,4 C 4,8 km/h (1 Bft)
13.01.2021 03:16 -1,4 C -2,8 C 93 % 1019,8 hPa 0,0 l/m 3,2 km/h (1 Bft) SW 225 0 min 0,0 UV-I 0 W/m -2,4 C -1,4 C 4,8 km/h (1 Bft)
13.01.2021 03:17 -1,4 C -2,8 C 93 % 1019,9 hPa 0,0 l/m 1,6 km/h (1 Bft) SW 225 0 min 0,0 UV-I 0 W/m -2,4 C -1,4 C 3,2 km/h (1 Bft)
13.01.2021 03:18 -1,4 C -2,8 C 93 % 1019,9 hPa 0,0 l/m 1,6 km/h (1 Bft) SW 225 0 min 0,0 UV-I 0 W/m -2,4 C -1,4 C 3,2 km/h (1 Bft)
13.01.2021 03:19 -1,5 C -2,8 C 93 % 1019,8 hPa 0,0 l/m 3,2 km/h (1 Bft) SW 225 0 min 0,0 UV-I 0 W/m -2,5 C -1,5 C 4,8 km/h (1 Bft)
13.01.2021 03:20 -1,4 C -2,8 C 93 % 1019,8 hPa 0,0 l/m 3,2 km/h (1 Bft) SW 225 0 min 0,0 UV-I 0 W/m -2,4 C -1,4 C 3,2 km/h (1 Bft)
13.01.2021 03:21 -1,5 C -2,8 C 93 % 1019,8 hPa 0,0 l/m 1,6 km/h (1 Bft) SW 225 0 min 0,0 UV-I 0 W/m -2,5 C -1,5 C 3,2 km/h (1 Bft)
13.01.2021 03:22 -1,5 C -2,8 C 93 % 1019,8 hPa 0,0 l/m 1,6 km/h (1 Bft) SW 225 0 min 0,0 UV-I 0 W/m -2,5 C -1,5 C 3,2 km/h (1 Bft)
13.01.2021 03:23 -1,5 C -2,8 C 93 % 1019,9 hPa 0,0 l/m 0,0 km/h (0 Bft) SW 225 0 min 0,0 UV-I 0 W/m -2,5 C -1,5 C 1,6 km/h (1 Bft)
13.01.2021 03:24 -1,5 C -2,8 C 93 % 1019,9 hPa 0,0 l/m 1,6 km/h (1 Bft) SW 225 0 min 0,0 UV-I 0 W/m -2,5 C -1,5 C 3,2 km/h (1 Bft)
13.01.2021 03:25 -1,5 C -2,8 C 93 % 1019,8 hPa 0,0 l/m 1,6 km/h (1 Bft) SW 225 0 min 0,0 UV-I 0 W/m -2,5 C -1,5 C 3,2 km/h (1 Bft)
13.01.2021 03:26 -1,5 C -2,8 C 93 % 1019,9 hPa 0,0 l/m 1,6 km/h (1 Bft) SW 225 0 min 0,0 UV-I 0 W/m -2,5 C -1,5 C 1,6 km/h (1 Bft)
13.01.2021 03:27 -1,5 C -2,8 C 93 % 1019,9 hPa 0,0 l/m 1,6 km/h (1 Bft) SW 225 0 min 0,0 UV-I 0 W/m -2,5 C -1,5 C 1,6 km/h (1 Bft)
13.01.2021 03:28 -1,6 C -2,8 C 93 % 1019,9 hPa 0,0 l/m 3,2 km/h (1 Bft) SW 225 0 min 0,0 UV-I 0 W/m -2,6 C -1,6 C 4,8 km/h (1 Bft)
13.01.2021 03:29 -1,5 C -2,8 C 93 % 1019,9 hPa 0,0 l/m 4,8 km/h (1 Bft) SW 225 0 min 0,0 UV-I 0 W/m -2,5 C -1,5 C 4,8 km/h (1 Bft)
13.01.2021 03:30 -1,6 C -2,8 C 93 % 1019,9 hPa 0,0 l/m 3,2 km/h (1 Bft) SW 225 0 min 0,0 UV-I 0 W/m -2,6 C -1,6 C 4,8 km/h (1 Bft)
13.01.2021 03:31 -1,6 C -2,8 C 93 % 1020,0 hPa 0,0 l/m 3,2 km/h (1 Bft) SW 225 0 min 0,0 UV-I 0 W/m -2,6 C -1,6 C 6,4 km/h (2 Bft)
13.01.2021 03:32 -1,6 C -2,8 C 93 % 1019,9 hPa 0,0 l/m 3,2 km/h (1 Bft) SW 225 0 min 0,0 UV-I 0 W/m -2,6 C -1,6 C 4,8 km/h (1 Bft)
13.01.2021 03:33 -1,6 C -2,8 C 93 % 1019,9 hPa 0,0 l/m 1,6 km/h (1 Bft) SW 225 0 min 0,0 UV-I 0 W/m -2,6 C -1,6 C 3,2 km/h (1 Bft)
13.01.2021 03:34 -1,6 C -2,8 C 93 % 1019,9 hPa 0,0 l/m 3,2 km/h (1 Bft) SW 225 0 min 0,0 UV-I 0 W/m -2,6 C -1,6 C 3,2 km/h (1 Bft)
13.01.2021 03:35 -1,6 C -2,8 C 93 % 1019,9 hPa 0,0 l/m 1,6 km/h (1 Bft) SW 225 0 min 0,0 UV-I 0 W/m -2,6 C -1,6 C 4,8 km/h (1 Bft)
13.01.2021 03:36 -1,6 C -2,8 C 93 % 1019,9 hPa 0,0 l/m 1,6 km/h (1 Bft) SW 225 0 min 0,0 UV-I 0 W/m -2,6 C -1,6 C 1,6 km/h (1 Bft)
13.01.2021 03:37 -1,6 C -2,8 C 93 % 1019,9 hPa 0,0 l/m 3,2 km/h (1 Bft) SW 225 0 min 0,0 UV-I 0 W/m -2,6 C -1,6 C 3,2 km/h (1 Bft)
13.01.2021 03:38 -1,7 C -2,8 C 93 % 1019,9 hPa 0,0 l/m 3,2 km/h (1 Bft) SW 225 0 min 0,0 UV-I 0 W/m -2,7 C -1,7 C 6,4 km/h (2 Bft)
13.01.2021 03:39 -1,6 C -2,8 C 93 % 1019,8 hPa 0,0 l/m 1,6 km/h (1 Bft) SW 225 0 min 0,0 UV-I 0 W/m -2,6 C -1,6 C 3,2 km/h (1 Bft)
13.01.2021 03:40 -1,6 C -2,8 C 93 % 1019,9 hPa 0,0 l/m 3,2 km/h (1 Bft) SW 225 0 min 0,0 UV-I 0 W/m -2,6 C -1,6 C 4,8 km/h (1 Bft)
13.01.2021 03:41 -1,6 C -2,8 C 93 % 1019,9 hPa 0,0 l/m 3,2 km/h (1 Bft) SW 225 0 min 0,0 UV-I 0 W/m -2,6 C -1,6 C 8,0 km/h (2 Bft)
13.01.2021 03:42 -1,6 C -2,8 C 93 % 1019,9 hPa 0,0 l/m 3,2 km/h (1 Bft) SW 225 0 min 0,0 UV-I 0 W/m -2,6 C -1,6 C 8,0 km/h (2 Bft)
13.01.2021 03:43 -1,7 C -2,8 C 93 % 1019,9 hPa 0,0 l/m 3,2 km/h (1 Bft) SW 225 0 min 0,0 UV-I 0 W/m -2,7 C -1,7 C 3,2 km/h (1 Bft)
13.01.2021 03:44 -1,7 C -2,8 C 93 % 1019,9 hPa 0,0 l/m 3,2 km/h (1 Bft) SW 225 0 min 0,0 UV-I 0 W/m -2,7 C -1,7 C 6,4 km/h (2 Bft)
13.01.2021 03:45 -1,7 C -2,8 C 93 % 1020,0 hPa 0,0 l/m 3,2 km/h (1 Bft) SW 225 0 min 0,0 UV-I 0 W/m -2,7 C -1,7 C 4,8 km/h (1 Bft)
13.01.2021 03:46 -1,6 C -2,8 C 93 % 1020,0 hPa 0,0 l/m 6,4 km/h (2 Bft) SW 225 0 min 0,0 UV-I 0 W/m -2,6 C -1,6 C 9,7 km/h (2 Bft)
13.01.2021 03:47 -1,7 C -2,8 C 93 % 1020,0 hPa 0,0 l/m 3,2 km/h (1 Bft) W-SW 247 0 min 0,0 UV-I 0 W/m -2,7 C -1,7 C 4,8 km/h (1 Bft)
13.01.2021 03:48 -1,7 C -2,8 C 93 % 1020,0 hPa 0,0 l/m 6,4 km/h (2 Bft) W-SW 247 0 min 0,0 UV-I 0 W/m -2,7 C -1,7 C 8,0 km/h (2 Bft)
13.01.2021 03:49 -1,7 C -2,8 C 93 % 1019,9 hPa 0,0 l/m 4,8 km/h (1 Bft) W-SW 247 0 min 0,0 UV-I 0 W/m -2,7 C -1,7 C 6,4 km/h (2 Bft)
13.01.2021 03:50 -1,7 C -2,8 C 93 % 1019,9 hPa 0,0 l/m 3,2 km/h (1 Bft) W-SW 247 0 min 0,0 UV-I 0 W/m -2,7 C -1,7 C 4,8 km/h (1 Bft)
13.01.2021 03:51 -1,7 C -2,8 C 93 % 1020,0 hPa 0,0 l/m 1,6 km/h (1 Bft) W-SW 247 0 min 0,0 UV-I 0 W/m -2,7 C -1,7 C 4,8 km/h (1 Bft)
13.01.2021 03:52 -1,7 C -2,8 C 93 % 1020,1 hPa 0,0 l/m 3,2 km/h (1 Bft) W-SW 247 0 min 0,0 UV-I 0 W/m -2,7 C -1,7 C 4,8 km/h (1 Bft)
13.01.2021 03:53 -1,7 C -2,8 C 93 % 1020,1 hPa 0,0 l/m 3,2 km/h (1 Bft) W-SW 247 0 min 0,0 UV-I 0 W/m -2,7 C -1,7 C 4,8 km/h (1 Bft)
13.01.2021 03:54 -1,7 C -2,8 C 93 % 1020,1 hPa 0,0 l/m 4,8 km/h (1 Bft) W-SW 247 0 min 0,0 UV-I 0 W/m -2,7 C -1,7 C 6,4 km/h (2 Bft)
13.01.2021 03:55 -1,7 C -2,8 C 93 % 1020,2 hPa 0,0 l/m 3,2 km/h (1 Bft) W-SW 247 0 min 0,0 UV-I 0 W/m -2,7 C -1,7 C 4,8 km/h (1 Bft)
13.01.2021 03:56 -1,7 C -2,8 C 93 % 1020,2 hPa 0,0 l/m 4,8 km/h (1 Bft) W-SW 247 0 min 0,0 UV-I 0 W/m -2,7 C -1,7 C 6,4 km/h (2 Bft)
13.01.2021 03:57 -1,7 C -2,8 C 93 % 1020,1 hPa 0,0 l/m 4,8 km/h (1 Bft) W-SW 247 0 min 0,0 UV-I 0 W/m -2,7 C -1,7 C 4,8 km/h (1 Bft)
13.01.2021 03:58 -1,7 C -2,8 C 93 % 1020,1 hPa 0,0 l/m 3,2 km/h (1 Bft) W-SW 247 0 min 0,0 UV-I 0 W/m -2,7 C -1,7 C 4,8 km/h (1 Bft)
13.01.2021 03:59 -1,6 C -2,8 C 93 % 1020,2 hPa 0,0 l/m 3,2 km/h (1 Bft) W-SW 247 0 min 0,0 UV-I 0 W/m -2,6 C -1,6 C 4,8 km/h (1 Bft)
13.01.2021 04:00 -1,6 C -2,8 C 93 % 1020,2 hPa 0,0 l/m 3,2 km/h (1 Bft) W-SW 247 0 min 0,0 UV-I 0 W/m -2,6 C -1,6 C 4,8 km/h (1 Bft)
13.01.2021 04:01 -1,7 C -2,8 C 93 % 1020,3 hPa 0,0 l/m 4,8 km/h (1 Bft) W-SW 247 0 min 0,0 UV-I 0 W/m -2,7 C -1,7 C 6,4 km/h (2 Bft)
13.01.2021 04:02 -1,6 C -2,8 C 93 % 1020,1 hPa 0,0 l/m 4,8 km/h (1 Bft) W-SW 247 0 min 0,0 UV-I 0 W/m -2,6 C -1,6 C 8,0 km/h (2 Bft)
13.01.2021 04:03 -1,6 C -2,8 C 93 % 1020,2 hPa 0,0 l/m 4,8 km/h (1 Bft) W-SW 247 0 min 0,0 UV-I 0 W/m -2,6 C -1,6 C 8,0 km/h (2 Bft)
13.01.2021 04:04 -1,6 C -2,8 C 93 % 1020,1 hPa 0,0 l/m 3,2 km/h (1 Bft) W-SW 247 0 min 0,0 UV-I 0 W/m -2,6 C -1,6 C 6,4 km/h (2 Bft)
13.01.2021 04:05 -1,7 C -2,8 C 93 % 1020,2 hPa 0,0 l/m 4,8 km/h (1 Bft) W-SW 247 0 min 0,0 UV-I 0 W/m -2,7 C -1,7 C 6,4 km/h (2 Bft)
13.01.2021 04:06 -1,7 C -2,8 C 93 % 1020,1 hPa 0,0 l/m 3,2 km/h (1 Bft) W-SW 247 0 min 0,0 UV-I 0 W/m -2,7 C -1,7 C 4,8 km/h (1 Bft)
13.01.2021 04:07 -1,6 C -2,8 C 93 % 1020,1 hPa 0,0 l/m 3,2 km/h (1 Bft) W-SW 247 0 min 0,0 UV-I 0 W/m -2,6 C -1,6 C 8,0 km/h (2 Bft)
13.01.2021 04:08 -1,7 C -2,8 C 93 % 1020,1 hPa 0,0 l/m 4,8 km/h (1 Bft) W-SW 247 0 min 0,0 UV-I 0 W/m -2,7 C -1,7 C 4,8 km/h (1 Bft)
13.01.2021 04:09 -1,6 C -2,8 C 93 % 1020,1 hPa 0,0 l/m 4,8 km/h (1 Bft) W-SW 247 0 min 0,0 UV-I 0 W/m -2,6 C -1,6 C 8,0 km/h (2 Bft)
13.01.2021 04:10 -1,7 C -2,8 C 93 % 1020,2 hPa 0,0 l/m 8,0 km/h (2 Bft) W-SW 247 0 min 0,0 UV-I 0 W/m -2,7 C -3,4 C 11,3 km/h (2 Bft)
13.01.2021 04:11 -1,7 C -2,8 C 93 % 1020,1 hPa 0,0 l/m 6,4 km/h (2 Bft) SW 225 0 min 0,0 UV-I 0 W/m -2,7 C -1,7 C 8,0 km/h (2 Bft)
13.01.2021 04:12 -1,6 C -2,8 C 93 % 1020,1 hPa 0,0 l/m 3,2 km/h (1 Bft) SW 225 0 min 0,0 UV-I 0 W/m -2,6 C -1,6 C 4,8 km/h (1 Bft)
13.01.2021 04:13 -1,7 C -2,8 C 93 % 1020,1 hPa 0,0 l/m 4,8 km/h (1 Bft) SW 225 0 min 0,0 UV-I 0 W/m -2,7 C -1,7 C 9,7 km/h (2 Bft)
13.01.2021 04:14 -1,6 C -2,8 C 93 % 1020,2 hPa 0,0 l/m 6,4 km/h (2 Bft) SW 225 0 min 0,0 UV-I 0 W/m -2,6 C -1,6 C 9,7 km/h (2 Bft)
13.01.2021 04:15 -1,6 C -2,8 C 93 % 1020,1 hPa 0,0 l/m 8,0 km/h (2 Bft) W-SW 247 0 min 0,0 UV-I 0 W/m -2,6 C -3,3 C 14,5 km/h (3 Bft)
13.01.2021 04:16 -1,6 C -2,8 C 93 % 1020,2 hPa 0,0 l/m 4,8 km/h (1 Bft) W-SW 247 0 min 0,0 UV-I 0 W/m -2,6 C -1,6 C 8,0 km/h (2 Bft)
13.01.2021 04:17 -1,6 C -2,8 C 93 % 1020,1 hPa 0,0 l/m 6,4 km/h (2 Bft) SW 225 0 min 0,0 UV-I 0 W/m -2,6 C -1,6 C 11,3 km/h (2 Bft)
13.01.2021 04:18 -1,6 C -2,8 C 93 % 1020,2 hPa 0,0 l/m 6,4 km/h (2 Bft) SW 225 0 min 0,0 UV-I 0 W/m -2,6 C -1,6 C 8,0 km/h (2 Bft)
13.01.2021 04:19 -1,6 C -2,8 C 93 % 1020,1 hPa 0,0 l/m 6,4 km/h (2 Bft) SW 225 0 min 0,0 UV-I 0 W/m -2,6 C -1,6 C 11,3 km/h (2 Bft)
13.01.2021 04:20 -1,6 C -2,8 C 93 % 1020,1 hPa 0,0 l/m 8,0 km/h (2 Bft) SW 225 0 min 0,0 UV-I 0 W/m -2,6 C -3,3 C 9,7 km/h (2 Bft)
13.01.2021 04:21 -1,6 C -2,8 C 93 % 1020,1 hPa 0,0 l/m 4,8 km/h (1 Bft) SW 225 0 min 0,0 UV-I 0 W/m -2,6 C -1,6 C 8,0 km/h (2 Bft)
13.01.2021 04:22 -1,6 C -2,2 C 93 % 1020,1 hPa 0,0 l/m 4,8 km/h (1 Bft) SW 225 0 min 0,0 UV-I 0 W/m -2,6 C -1,6 C 8,0 km/h (2 Bft)
13.01.2021 04:23 -1,5 C -2,2 C 93 % 1020,1 hPa 0,0 l/m 4,8 km/h (1 Bft) S-SW 202 0 min 0,0 UV-I 0 W/m -2,5 C -1,5 C 8,0 km/h (2 Bft)
13.01.2021 04:24 -1,5 C -2,2 C 93 % 1020,2 hPa 0,0 l/m 6,4 km/h (2 Bft) W-SW 247 0 min 0,0 UV-I 0 W/m -2,5 C -1,5 C 11,3 km/h (2 Bft)
13.01.2021 04:25 -1,5 C -2,2 C 93 % 1020,3 hPa 0,0 l/m 3,2 km/h (1 Bft) W-SW 247 0 min 0,0 UV-I 0 W/m -2,5 C -1,5 C 6,4 km/h (2 Bft)
13.01.2021 04:26 -1,5 C -2,2 C 93 % 1020,3 hPa 0,0 l/m 4,8 km/h (1 Bft) W-SW 247 0 min 0,0 UV-I 0 W/m -2,5 C -1,5 C 8,0 km/h (2 Bft)
13.01.2021 04:27 -1,5 C -2,2 C 93 % 1020,2 hPa 0,0 l/m 3,2 km/h (1 Bft) W-SW 247 0 min 0,0 UV-I 0 W/m -2,5 C -1,5 C 4,8 km/h (1 Bft)
13.01.2021 04:28 -1,5 C -2,2 C 93 % 1020,2 hPa 0,0 l/m 4,8 km/h (1 Bft) SW 225 0 min 0,0 UV-I 0 W/m -2,5 C -1,5 C 8,0 km/h (2 Bft)
13.01.2021 04:29 -1,4 C -2,2 C 93 % 1020,2 hPa 0,0 l/m 4,8 km/h (1 Bft) SW 225 0 min 0,0 UV-I 0 W/m -2,4 C -1,4 C 4,8 km/h (1 Bft)
13.01.2021 04:30 -1,5 C -2,8 C 93 % 1020,1 hPa 0,0 l/m 3,2 km/h (1 Bft) SW 225 0 min 0,0 UV-I 0 W/m -2,5 C -1,5 C 4,8 km/h (1 Bft)
13.01.2021 04:31 -1,4 C -2,8 C 93 % 1020,2 hPa 0,0 l/m 3,2 km/h (1 Bft) SW 225 0 min 0,0 UV-I 0 W/m -2,4 C -1,4 C 3,2 km/h (1 Bft)
13.01.2021 04:32 -1,4 C -2,8 C 93 % 1020,2 hPa 0,0 l/m 3,2 km/h (1 Bft) SW 225 0 min 0,0 UV-I 0 W/m -2,4 C -1,4 C 3,2 km/h (1 Bft)
13.01.2021 04:33 -1,4 C -2,8 C 93 % 1020,1 hPa 0,0 l/m 3,2 km/h (1 Bft) SW 225 0 min 0,0 UV-I 0 W/m -2,4 C -1,4 C 3,2 km/h (1 Bft)
13.01.2021 04:34 -1,5 C -2,8 C 93 % 1020,1 hPa 0,0 l/m 3,2 km/h (1 Bft) SW 225 0 min 0,0 UV-I 0 W/m -2,5 C -1,5 C 4,8 km/h (1 Bft)
13.01.2021 04:35 -1,4 C -2,8 C 93 % 1020,2 hPa 0,0 l/m 3,2 km/h (1 Bft) SW 225 0 min 0,0 UV-I 0 W/m -2,4 C -1,4 C 4,8 km/h (1 Bft)
13.01.2021 04:36 -1,4 C -2,8 C 93 % 1020,2 hPa 0,0 l/m 4,8 km/h (1 Bft) SW 225 0 min 0,0 UV-I 0 W/m -2,4 C -1,4 C 6,4 km/h (2 Bft)
13.01.2021 04:37 -1,4 C -2,8 C 93 % 1020,2 hPa 0,0 l/m 3,2 km/h (1 Bft) SW 225 0 min 0,0 UV-I 0 W/m -2,4 C -1,4 C 4,8 km/h (1 Bft)
13.01.2021 04:38 -1,4 C -2,8 C 93 % 1020,1 hPa 0,0 l/m 3,2 km/h (1 Bft) SW 225 0 min 0,0 UV-I 0 W/m -2,4 C -1,4 C 4,8 km/h (1 Bft)
13.01.2021 04:39 -1,4 C -2,8 C 93 % 1020,1 hPa 0,0 l/m 4,8 km/h (1 Bft) SW 225 0 min 0,0 UV-I 0 W/m -2,4 C -1,4 C 6,4 km/h (2 Bft)
13.01.2021 04:40 -1,4 C -2,8 C 93 % 1020,3 hPa 0,0 l/m 4,8 km/h (1 Bft) SW 225 0 min 0,0 UV-I 0 W/m -2,4 C -1,4 C 4,8 km/h (1 Bft)
13.01.2021 04:41 -1,4 C -2,8 C 93 % 1020,1 hPa 0,0 l/m 4,8 km/h (1 Bft) SW 225 0 min 0,0 UV-I 0 W/m -2,4 C -1,4 C 6,4 km/h (2 Bft)
13.01.2021 04:42 -1,4 C -2,8 C 93 % 1020,3 hPa 0,0 l/m 3,2 km/h (1 Bft) SW 225 0 min 0,0 UV-I 0 W/m -2,4 C -1,4 C 4,8 km/h (1 Bft)
13.01.2021 04:43 -1,4 C -2,8 C 93 % 1020,2 hPa 0,0 l/m 3,2 km/h (1 Bft) SW 225 0 min 0,0 UV-I 0 W/m -2,4 C -1,4 C 3,2 km/h (1 Bft)
13.01.2021 04:44 -1,4 C -2,8 C 93 % 1020,2 hPa 0,0 l/m 1,6 km/h (1 Bft) SW 225 0 min 0,0 UV-I 0 W/m -2,4 C -1,4 C 4,8 km/h (1 Bft)
13.01.2021 04:45 -1,4 C -2,8 C 93 % 1020,2 hPa 0,0 l/m 1,6 km/h (1 Bft) SW 225 0 min 0,0 UV-I 0 W/m -2,4 C -1,4 C 4,8 km/h (1 Bft)
13.01.2021 04:46 -1,4 C -2,8 C 93 % 1020,3 hPa 0,0 l/m 3,2 km/h (1 Bft) SW 225 0 min 0,0 UV-I 0 W/m -2,4 C -1,4 C 4,8 km/h (1 Bft)
13.01.2021 04:47 -1,4 C -2,8 C 93 % 1020,3 hPa 0,0 l/m 3,2 km/h (1 Bft) SW 225 0 min 0,0 UV-I 0 W/m -2,4 C -1,4 C 4,8 km/h (1 Bft)
13.01.2021 04:48 -1,4 C -3,3 C 93 % 1020,3 hPa 0,0 l/m 4,8 km/h (1 Bft) SW 225 0 min 0,0 UV-I 0 W/m -2,4 C -1,4 C 8,0 km/h (2 Bft)
13.01.2021 04:49 -1,5 C -3,3 C 93 % 1020,4 hPa 0,0 l/m 4,8 km/h (1 Bft) SW 225 0 min 0,0 UV-I 0 W/m -2,5 C -1,5 C 8,0 km/h (2 Bft)
13.01.2021 04:50 -1,4 C -3,3 C 93 % 1020,3 hPa 0,0 l/m 3,2 km/h (1 Bft) SW 225 0 min 0,0 UV-I 0 W/m -2,4 C -1,4 C 4,8 km/h (1 Bft)
13.01.2021 04:51 -1,5 C -2,8 C 93 % 1020,3 hPa 0,0 l/m 3,2 km/h (1 Bft) SW 225 0 min 0,0 UV-I 0 W/m -2,5 C -1,5 C 4,8 km/h (1 Bft)
13.01.2021 04:52 -1,5 C -2,8 C 93 % 1020,3 hPa 0,0 l/m 4,8 km/h (1 Bft) SW 225 0 min 0,0 UV-I 0 W/m -2,5 C -1,5 C 6,4 km/h (2 Bft)
13.01.2021 04:53 -1,5 C -2,8 C 93 % 1020,4 hPa 0,0 l/m 4,8 km/h (1 Bft) SW 225 0 min 0,0 UV-I 0 W/m -2,5 C -1,5 C 6,4 km/h (2 Bft)
13.01.2021 04:54 -1,5 C -2,8 C 93 % 1020,4 hPa 0,0 l/m 4,8 km/h (1 Bft) SW 225 0 min 0,0 UV-I 0 W/m -2,5 C -1,5 C 6,4 km/h (2 Bft)
13.01.2021 04:55 -1,5 C -2,8 C 93 % 1020,4 hPa 0,0 l/m 4,8 km/h (1 Bft) SW 225 0 min 0,0 UV-I 0 W/m -2,5 C -1,5 C 8,0 km/h (2 Bft)
13.01.2021 04:56 -1,5 C -2,8 C 93 % 1020,3 hPa 0,0 l/m 3,2 km/h (1 Bft) SW 225 0 min 0,0 UV-I 0 W/m -2,5 C -1,5 C 4,8 km/h (1 Bft)
13.01.2021 04:57 -1,5 C -2,8 C 93 % 1020,3 hPa 0,0 l/m 3,2 km/h (1 Bft) SW 225 0 min 0,0 UV-I 0 W/m -2,5 C -1,5 C 3,2 km/h (1 Bft)
13.01.2021 04:58 -1,6 C -2,8 C 93 % 1020,4 hPa 0,0 l/m 3,2 km/h (1 Bft) SW 225 0 min 0,0 UV-I 0 W/m -2,6 C -1,6 C 4,8 km/h (1 Bft)
13.01.2021 04:59 -1,6 C -2,8 C 93 % 1020,3 hPa 0,0 l/m 3,2 km/h (1 Bft) SW 225 0 min 0,0 UV-I 0 W/m -2,6 C -1,6 C 4,8 km/h (1 Bft)
13.01.2021 05:00 -1,6 C -2,8 C 93 % 1020,4 hPa 0,0 l/m 3,2 km/h (1 Bft) SW 225 0 min 0,0 UV-I 0 W/m -2,6 C -1,6 C 4,8 km/h (1 Bft)
13.01.2021 05:01 -1,6 C -2,8 C 93 % 1020,4 hPa 0,0 l/m 3,2 km/h (1 Bft) SW 225 0 min 0,0 UV-I 0 W/m -2,6 C -1,6 C 4,8 km/h (1 Bft)
13.01.2021 05:02 -1,6 C -2,8 C 93 % 1020,3 hPa 0,0 l/m 3,2 km/h (1 Bft) SW 225 0 min 0,0 UV-I 0 W/m -2,6 C -1,6 C 3,2 km/h (1 Bft)
13.01.2021 05:03 -1,6 C -2,8 C 93 % 1020,4 hPa 0,0 l/m 3,2 km/h (1 Bft) SW 225 0 min 0,0 UV-I 0 W/m -2,6 C -1,6 C 4,8 km/h (1 Bft)
13.01.2021 05:04 -1,6 C -2,8 C 93 % 1020,3 hPa 0,0 l/m 3,2 km/h (1 Bft) SW 225 0 min 0,0 UV-I 0 W/m -2,6 C -1,6 C 4,8 km/h (1 Bft)
13.01.2021 05:05 -1,6 C -2,8 C 93 % 1020,3 hPa 0,0 l/m 1,6 km/h (1 Bft) SW 225 0 min 0,0 UV-I 0 W/m -2,6 C -1,6 C 3,2 km/h (1 Bft)
13.01.2021 05:06 -1,6 C -2,8 C 93 % 1020,3 hPa 0,0 l/m 3,2 km/h (1 Bft) SW 225 0 min 0,0 UV-I 0 W/m -2,6 C -1,6 C 4,8 km/h (1 Bft)
13.01.2021 05:07 -1,6 C -2,2 C 93 % 1020,3 hPa 0,0 l/m 3,2 km/h (1 Bft) SW 225 0 min 0,0 UV-I 0 W/m -2,6 C -1,6 C 4,8 km/h (1 Bft)
13.01.2021 05:08 -1,6 C -2,2 C 93 % 1020,2 hPa 0,0 l/m 1,6 km/h (1 Bft) SW 225 0 min 0,0 UV-I 0 W/m -2,6 C -1,6 C 3,2 km/h (1 Bft)
13.01.2021 05:09 -1,6 C -2,2 C 93 % 1020,3 hPa 0,0 l/m 3,2 km/h (1 Bft) SW 225 0 min 0,0 UV-I 0 W/m -2,6 C -1,6 C 4,8 km/h (1 Bft)
13.01.2021 05:10 -1,6 C -2,2 C 93 % 1020,3 hPa 0,0 l/m 4,8 km/h (1 Bft) SW 225 0 min 0,0 UV-I 0 W/m -2,6 C -1,6 C 4,8 km/h (1 Bft)
13.01.2021 05:11 -1,6 C -2,2 C 93 % 1020,3 hPa 0,0 l/m 3,2 km/h (1 Bft) SW 225 0 min 0,0 UV-I 0 W/m -2,6 C -1,6 C 4,8 km/h (1 Bft)
13.01.2021 05:12 -1,6 C -2,2 C 93 % 1020,3 hPa 0,0 l/m 3,2 km/h (1 Bft) SW 225 0 min 0,0 UV-I 0 W/m -2,6 C -1,6 C 4,8 km/h (1 Bft)
13.01.2021 05:13 -1,6 C -2,2 C 93 % 1020,3 hPa 0,0 l/m 3,2 km/h (1 Bft) SW 225 0 min 0,0 UV-I 0 W/m -2,6 C -1,6 C 4,8 km/h (1 Bft)
13.01.2021 05:14 -1,6 C -2,2 C 93 % 1020,3 hPa 0,0 l/m 3,2 km/h (1 Bft) SW 225 0 min 0,0 UV-I 0 W/m -2,6 C -1,6 C 4,8 km/h (1 Bft)
13.01.2021 05:15 -1,6 C -2,2 C 93 % 1020,2 hPa 0,0 l/m 3,2 km/h (1 Bft) SW 225 0 min 0,0 UV-I 0 W/m -2,6 C -1,6 C 4,8 km/h (1 Bft)
13.01.2021 05:16 -1,6 C -2,2 C 93 % 1020,3 hPa 0,0 l/m 3,2 km/h (1 Bft) SW 225 0 min 0,0 UV-I 0 W/m -2,6 C -1,6 C 4,8 km/h (1 Bft)
13.01.2021 05:17 -1,6 C -2,2 C 93 % 1020,1 hPa 0,0 l/m 4,8 km/h (1 Bft) SW 225 0 min 0,0 UV-I 0 W/m -2,6 C -1,6 C 8,0 km/h (2 Bft)
13.01.2021 05:18 -1,6 C -2,2 C 93 % 1020,2 hPa 0,0 l/m 1,6 km/h (1 Bft) SW 225 0 min 0,0 UV-I 0 W/m -2,6 C -1,6 C 3,2 km/h (1 Bft)
13.01.2021 05:19 -1,6 C -2,2 C 93 % 1020,2 hPa 0,0 l/m 4,8 km/h (1 Bft) SW 225 0 min 0,0 UV-I 0 W/m -2,6 C -1,6 C 8,0 km/h (2 Bft)
13.01.2021 05:20 -1,6 C -2,2 C 93 % 1020,2 hPa 0,0 l/m 4,8 km/h (1 Bft) SW 225 0 min 0,0 UV-I 0 W/m -2,6 C -1,6 C 8,0 km/h (2 Bft)
13.01.2021 05:21 -1,5 C -2,2 C 93 % 1020,1 hPa 0,0 l/m 6,4 km/h (2 Bft) SW 225 0 min 0,0 UV-I 0 W/m -2,5 C -1,5 C 8,0 km/h (2 Bft)
13.01.2021 05:22 -1,5 C -1,7 C 93 % 1020,1 hPa 0,0 l/m 6,4 km/h (2 Bft) SW 225 0 min 0,0 UV-I 0 W/m -2,5 C -1,5 C 9,7 km/h (2 Bft)
13.01.2021 05:23 -1,5 C -1,7 C 93 % 1020,1 hPa 0,0 l/m 6,4 km/h (2 Bft) W-SW 247 0 min 0,0 UV-I 0 W/m -2,5 C -1,5 C 8,0 km/h (2 Bft)
13.01.2021 05:24 -1,4 C -1,7 C 93 % 1020,2 hPa 0,0 l/m 4,8 km/h (1 Bft) W-SW 247 0 min 0,0 UV-I 0 W/m -2,4 C -1,4 C 6,4 km/h (2 Bft)
13.01.2021 05:25 -1,4 C -1,7 C 94 % 1020,1 hPa 0,0 l/m 3,2 km/h (1 Bft) W-SW 247 0 min 0,0 UV-I 0 W/m -2,2 C -1,4 C 6,4 km/h (2 Bft)
13.01.2021 05:26 -1,4 C -1,7 C 94 % 1020,2 hPa 0,0 l/m 3,2 km/h (1 Bft) W-SW 247 0 min 0,0 UV-I 0 W/m -2,2 C -1,4 C 4,8 km/h (1 Bft)
13.01.2021 05:27 -1,4 C -1,7 C 94 % 1020,2 hPa 0,0 l/m 3,2 km/h (1 Bft) W-SW 247 0 min 0,0 UV-I 0 W/m -2,2 C -1,4 C 6,4 km/h (2 Bft)
13.01.2021 05:28 -1,4 C -1,7 C 94 % 1020,2 hPa 0,0 l/m 4,8 km/h (1 Bft) W-SW 247 0 min 0,0 UV-I 0 W/m -2,2 C -1,4 C 9,7 km/h (2 Bft)
13.01.2021 05:29 -1,3 C -1,7 C 94 % 1020,1 hPa 0,0 l/m 4,8 km/h (1 Bft) W-SW 247 0 min 0,0 UV-I 0 W/m -2,1 C -1,3 C 6,4 km/h (2 Bft)
13.01.2021 05:30 -1,3 C -1,7 C 94 % 1020,2 hPa 0,0 l/m 4,8 km/h (1 Bft) W-SW 247 0 min 0,0 UV-I 0 W/m -2,1 C -1,3 C 6,4 km/h (2 Bft)
13.01.2021 05:31 -1,3 C -1,1 C 94 % 1020,2 hPa 0,0 l/m 6,4 km/h (2 Bft) W-SW 247 0 min 0,0 UV-I 0 W/m -2,1 C -1,3 C 12,9 km/h (3 Bft)
13.01.2021 05:32 -1,2 C -1,1 C 94 % 1020,2 hPa 0,0 l/m 4,8 km/h (1 Bft) SW 225 0 min 0,0 UV-I 0 W/m -2,0 C -1,2 C 6,4 km/h (2 Bft)
13.01.2021 05:33 -1,2 C -1,1 C 94 % 1020,2 hPa 0,0 l/m 6,4 km/h (2 Bft) W-SW 247 0 min 0,0 UV-I 0 W/m -2,0 C -1,2 C 11,3 km/h (2 Bft)
13.01.2021 05:34 -1,2 C -1,1 C 94 % 1020,2 hPa 0,0 l/m 4,8 km/h (1 Bft) W-SW 247 0 min 0,0 UV-I 0 W/m -2,0 C -1,2 C 8,0 km/h (2 Bft)
13.01.2021 05:35 -1,2 C -1,1 C 94 % 1020,1 hPa 0,0 l/m 8,0 km/h (2 Bft) W-SW 247 0 min 0,0 UV-I 0 W/m -2,0 C -2,9 C 9,7 km/h (2 Bft)
13.01.2021 05:36 -1,1 C -1,1 C 94 % 1020,1 hPa 0,0 l/m 9,7 km/h (2 Bft) W-SW 247 0 min 0,0 UV-I 0 W/m -1,9 C -4,4 C 14,5 km/h (3 Bft)
13.01.2021 05:37 -1,1 C -1,1 C 94 % 1020,1 hPa 0,0 l/m 6,4 km/h (2 Bft) SW 225 0 min 0,0 UV-I 0 W/m -1,9 C -1,1 C 8,0 km/h (2 Bft)
13.01.2021 05:38 -1,1 C -1,1 C 94 % 1020,2 hPa 0,0 l/m 9,7 km/h (2 Bft) W-SW 247 0 min 0,0 UV-I 0 W/m -1,9 C -4,4 C 14,5 km/h (3 Bft)
13.01.2021 05:39 -1,0 C -1,1 C 94 % 1020,1 hPa 0,0 l/m 6,4 km/h (2 Bft) SW 225 0 min 0,0 UV-I 0 W/m -1,8 C -1,0 C 8,0 km/h (2 Bft)
13.01.2021 05:40 -0,9 C -1,1 C 94 % 1020,0 hPa 0,0 l/m 8,0 km/h (2 Bft) W-SW 247 0 min 0,0 UV-I 0 W/m -1,7 C -2,6 C 14,5 km/h (3 Bft)
13.01.2021 05:41 -0,9 C -1,1 C 94 % 1020,1 hPa 0,0 l/m 9,7 km/h (2 Bft) W-SW 247 0 min 0,0 UV-I 0 W/m -1,7 C -4,2 C 12,9 km/h (3 Bft)
13.01.2021 05:42 -0,9 C -1,1 C 94 % 1020,1 hPa 0,0 l/m 6,4 km/h (2 Bft) W-SW 247 0 min 0,0 UV-I 0 W/m -1,7 C -0,9 C 11,3 km/h (2 Bft)
13.01.2021 05:43 -0,8 C -1,1 C 94 % 1020,1 hPa 0,0 l/m 6,4 km/h (2 Bft) W-SW 247 0 min 0,0 UV-I 0 W/m -1,6 C -0,8 C 11,3 km/h (2 Bft)
13.01.2021 05:44 -0,8 C -1,1 C 94 % 1020,2 hPa 0,0 l/m 8,0 km/h (2 Bft) W-SW 247 0 min 0,0 UV-I 0 W/m -1,6 C -2,5 C 12,9 km/h (3 Bft)
13.01.2021 05:45 -0,8 C -1,1 C 94 % 1020,2 hPa 0,0 l/m 11,3 km/h (2 Bft) W 270 0 min 0,0 UV-I 0 W/m -1,6 C -5,4 C 14,5 km/h (3 Bft)
13.01.2021 05:46 -0,8 C -1,1 C 94 % 1020,2 hPa 0,0 l/m 4,8 km/h (1 Bft) SW 225 0 min 0,0 UV-I 0 W/m -1,6 C -0,8 C 8,0 km/h (2 Bft)
13.01.2021 05:47 -0,7 C -1,1 C 94 % 1020,2 hPa 0,0 l/m 4,8 km/h (1 Bft) W-SW 247 0 min 0,0 UV-I 0 W/m -1,5 C -0,7 C 8,0 km/h (2 Bft)
13.01.2021 05:48 -0,7 C -1,1 C 94 % 1020,1 hPa 0,0 l/m 3,2 km/h (1 Bft) W-SW 247 0 min 0,0 UV-I 0 W/m -1,5 C -0,7 C 4,8 km/h (1 Bft)
13.01.2021 05:49 -0,7 C -1,1 C 94 % 1020,1 hPa 0,0 l/m 4,8 km/h (1 Bft) W-SW 247 0 min 0,0 UV-I 0 W/m -1,5 C -0,7 C 6,4 km/h (2 Bft)
13.01.2021 05:50 -0,7 C -1,1 C 94 % 1020,1 hPa 0,0 l/m 4,8 km/h (1 Bft) SW 225 0 min 0,0 UV-I 0 W/m -1,5 C -0,7 C 8,0 km/h (2 Bft)
13.01.2021 05:51 -0,7 C -1,1 C 94 % 1020,0 hPa 0,0 l/m 4,8 km/h (1 Bft) SW 225 0 min 0,0 UV-I 0 W/m -1,5 C -0,7 C 6,4 km/h (2 Bft)
13.01.2021 05:52 -0,7 C -1,1 C 94 % 1020,1 hPa 0,0 l/m 4,8 km/h (1 Bft) SW 225 0 min 0,0 UV-I 0 W/m -1,5 C -0,7 C 6,4 km/h (2 Bft)
13.01.2021 05:53 -0,7 C -1,1 C 94 % 1020,0 hPa 0,0 l/m 3,2 km/h (1 Bft) W-SW 247 0 min 0,0 UV-I 0 W/m -1,5 C -0,7 C 4,8 km/h (1 Bft)
13.01.2021 05:54 -0,7 C -1,1 C 94 % 1020,0 hPa 0,0 l/m 6,4 km/h (2 Bft) SW 225 0 min 0,0 UV-I 0 W/m -1,5 C -0,7 C 8,0 km/h (2 Bft)
13.01.2021 05:55 -0,6 C -1,1 C 94 % 1020,0 hPa 0,0 l/m 4,8 km/h (1 Bft) W-SW 247 0 min 0,0 UV-I 0 W/m -1,4 C -0,6 C 6,4 km/h (2 Bft)
13.01.2021 05:56 -0,6 C -1,1 C 94 % 1020,0 hPa 0,0 l/m 4,8 km/h (1 Bft) SW 225 0 min 0,0 UV-I 0 W/m -1,4 C -0,6 C 8,0 km/h (2 Bft)
13.01.2021 05:57 -0,6 C -1,1 C 94 % 1019,9 hPa 0,0 l/m 8,0 km/h (2 Bft) W-SW 247 0 min 0,0 UV-I 0 W/m -1,4 C -2,3 C 12,9 km/h (3 Bft)
13.01.2021 05:58 -0,6 C -1,1 C 94 % 1019,9 hPa 0,0 l/m 6,4 km/h (2 Bft) W-SW 247 0 min 0,0 UV-I 0 W/m -1,4 C -0,6 C 11,3 km/h (2 Bft)
13.01.2021 05:59 -0,6 C -1,1 C 94 % 1019,9 hPa 0,0 l/m 4,8 km/h (1 Bft) S-SW 202 0 min 0,0 UV-I 0 W/m -1,4 C -0,6 C 6,4 km/h (2 Bft)
13.01.2021 06:00 -0,6 C -1,1 C 94 % 1019,9 hPa 0,0 l/m 8,0 km/h (2 Bft) W-SW 247 0 min 0,0 UV-I 0 W/m -1,4 C -2,3 C 11,3 km/h (2 Bft)
13.01.2021 06:01 -0,6 C -1,1 C 94 % 1019,9 hPa 0,0 l/m 6,4 km/h (2 Bft) W-SW 247 0 min 0,0 UV-I 0 W/m -1,4 C -0,6 C 11,3 km/h (2 Bft)
13.01.2021 06:02 -0,6 C -1,1 C 94 % 1019,9 hPa 0,0 l/m 4,8 km/h (1 Bft) SW 225 0 min 0,0 UV-I 0 W/m -1,4 C -0,6 C 8,0 km/h (2 Bft)
13.01.2021 06:03 -0,5 C -1,1 C 94 % 1019,9 hPa 0,0 l/m 4,8 km/h (1 Bft) SW 225 0 min 0,0 UV-I 0 W/m -1,3 C -0,5 C 6,4 km/h (2 Bft)
13.01.2021 06:04 -0,5 C -1,1 C 94 % 1019,9 hPa 0,0 l/m 4,8 km/h (1 Bft) SW 225 0 min 0,0 UV-I 0 W/m -1,3 C -0,5 C 8,0 km/h (2 Bft)
13.01.2021 06:05 -0,6 C -1,1 C 94 % 1019,8 hPa 0,0 l/m 6,4 km/h (2 Bft) SW 225 0 min 0,0 UV-I 0 W/m -1,4 C -0,6 C 8,0 km/h (2 Bft)
13.01.2021 06:06 -0,5 C -0,6 C 94 % 1019,9 hPa 0,0 l/m 4,8 km/h (1 Bft) W-SW 247 0 min 0,0 UV-I 0 W/m -1,3 C -0,5 C 6,4 km/h (2 Bft)
13.01.2021 06:07 -0,5 C -0,6 C 94 % 1019,9 hPa 0,0 l/m 4,8 km/h (1 Bft) W-SW 247 0 min 0,0 UV-I 0 W/m -1,3 C -0,5 C 8,0 km/h (2 Bft)
13.01.2021 06:08 -0,5 C -0,6 C 94 % 1019,9 hPa 0,0 l/m 6,4 km/h (2 Bft) W-SW 247 0 min 0,0 UV-I 0 W/m -1,3 C -0,5 C 8,0 km/h (2 Bft)
13.01.2021 06:09 -0,4 C -0,6 C 94 % 1020,0 hPa 0,0 l/m 4,8 km/h (1 Bft) W-SW 247 0 min 0,0 UV-I 0 W/m -1,2 C -0,4 C 6,4 km/h (2 Bft)
13.01.2021 06:10 -0,5 C -0,6 C 94 % 1020,0 hPa 0,0 l/m 3,2 km/h (1 Bft) SW 225 0 min 0,0 UV-I 0 W/m -1,3 C -0,5 C 4,8 km/h (1 Bft)
13.01.2021 06:11 -0,4 C -0,6 C 94 % 1020,0 hPa 0,0 l/m 4,8 km/h (1 Bft) W-SW 247 0 min 0,0 UV-I 0 W/m -1,2 C -0,4 C 8,0 km/h (2 Bft)
13.01.2021 06:12 -0,4 C -0,6 C 94 % 1020,0 hPa 0,0 l/m 4,8 km/h (1 Bft) W-SW 247 0 min 0,0 UV-I 0 W/m -1,2 C -0,4 C 12,9 km/h (3 Bft)
13.01.2021 06:13 -0,4 C -0,6 C 94 % 1020,0 hPa 0,0 l/m 6,4 km/h (2 Bft) SW 225 0 min 0,0 UV-I 0 W/m -1,2 C -0,4 C 11,3 km/h (2 Bft)
13.01.2021 06:14 -0,4 C -0,6 C 94 % 1020,0 hPa 0,0 l/m 4,8 km/h (1 Bft) SW 225 0 min 0,0 UV-I 0 W/m -1,2 C -0,4 C 6,4 km/h (2 Bft)
13.01.2021 06:15 -0,4 C -0,6 C 94 % 1020,0 hPa 0,0 l/m 4,8 km/h (1 Bft) W-SW 247 0 min 0,0 UV-I 0 W/m -1,2 C -0,4 C 6,4 km/h (2 Bft)
13.01.2021 06:16 -0,4 C -0,6 C 94 % 1020,0 hPa 0,0 l/m 6,4 km/h (2 Bft) SW 225 0 min 0,0 UV-I 0 W/m -1,2 C -0,4 C 12,9 km/h (3 Bft)
13.01.2021 06:17 -0,4 C -0,6 C 94 % 1020,1 hPa 0,0 l/m 4,8 km/h (1 Bft) SW 225 0 min 0,0 UV-I 0 W/m -1,2 C -0,4 C 8,0 km/h (2 Bft)
13.01.2021 06:18 -0,4 C -0,6 C 94 % 1020,0 hPa 0,0 l/m 4,8 km/h (1 Bft) SW 225 0 min 0,0 UV-I 0 W/m -1,2 C -0,4 C 6,4 km/h (2 Bft)
13.01.2021 06:19 -0,3 C -0,6 C 94 % 1020,0 hPa 0,0 l/m 4,8 km/h (1 Bft) W-SW 247 0 min 0,0 UV-I 0 W/m -1,1 C -0,3 C 9,7 km/h (2 Bft)
13.01.2021 06:20 -0,3 C -0,6 C 94 % 1020,0 hPa 0,0 l/m 6,4 km/h (2 Bft) W-SW 247 0 min 0,0 UV-I 0 W/m -1,1 C -0,3 C 9,7 km/h (2 Bft)
13.01.2021 06:21 -0,3 C -0,6 C 94 % 1020,0 hPa 0,0 l/m 3,2 km/h (1 Bft) W-SW 247 0 min 0,0 UV-I 0 W/m -1,1 C -0,3 C 6,4 km/h (2 Bft)
13.01.2021 06:22 -0,3 C -0,6 C 94 % 1020,0 hPa 0,0 l/m 8,0 km/h (2 Bft) W-SW 247 0 min 0,0 UV-I 0 W/m -1,1 C -2,0 C 12,9 km/h (3 Bft)
13.01.2021 06:23 -0,3 C -0,6 C 94 % 1020,0 hPa 0,0 l/m 11,3 km/h (2 Bft) W-SW 247 0 min 0,0 UV-I 0 W/m -1,1 C -4,8 C 16,1 km/h (3 Bft)
13.01.2021 06:24 -0,3 C -0,6 C 94 % 1020,0 hPa 0,0 l/m 8,0 km/h (2 Bft) W-SW 247 0 min 0,0 UV-I 0 W/m -1,1 C -2,0 C 11,3 km/h (2 Bft)
13.01.2021 06:25 -0,3 C -0,6 C 94 % 1020,0 hPa 0,0 l/m 4,8 km/h (1 Bft) W-SW 247 0 min 0,0 UV-I 0 W/m -1,1 C -0,3 C 8,0 km/h (2 Bft)
13.01.2021 06:26 -0,3 C -0,6 C 94 % 1019,9 hPa 0,0 l/m 8,0 km/h (2 Bft) SW 225 0 min 0,0 UV-I 0 W/m -1,1 C -2,0 C 14,5 km/h (3 Bft)
13.01.2021 06:27 -0,3 C -0,6 C 94 % 1019,9 hPa 0,0 l/m 6,4 km/h (2 Bft) SW 225 0 min 0,0 UV-I 0 W/m -1,1 C -0,3 C 9,7 km/h (2 Bft)
13.01.2021 06:28 -0,2 C -0,6 C 94 % 1019,9 hPa 0,0 l/m 11,3 km/h (2 Bft) W-SW 247 0 min 0,0 UV-I 0 W/m -1,0 C -4,7 C 14,5 km/h (3 Bft)
13.01.2021 06:29 -0,2 C -0,6 C 94 % 1020,0 hPa 0,0 l/m 8,0 km/h (2 Bft) SW 225 0 min 0,0 UV-I 0 W/m -1,0 C -1,9 C 12,9 km/h (3 Bft)
13.01.2021 06:30 -0,2 C -0,6 C 94 % 1019,9 hPa 0,0 l/m 9,7 km/h (2 Bft) SW 225 0 min 0,0 UV-I 0 W/m -1,0 C -3,4 C 12,9 km/h (3 Bft)
13.01.2021 06:31 -0,2 C -0,6 C 94 % 1019,9 hPa 0,0 l/m 8,0 km/h (2 Bft) S-SW 202 0 min 0,0 UV-I 0 W/m -1,0 C -1,9 C 9,7 km/h (2 Bft)
13.01.2021 06:32 -0,2 C -0,6 C 94 % 1019,9 hPa 0,0 l/m 4,8 km/h (1 Bft) W-SW 247 0 min 0,0 UV-I 0 W/m -1,0 C -0,2 C 9,7 km/h (2 Bft)
13.01.2021 06:33 -0,2 C -0,6 C 94 % 1019,9 hPa 0,0 l/m 6,4 km/h (2 Bft) SW 225 0 min 0,0 UV-I 0 W/m -1,0 C -0,2 C 8,0 km/h (2 Bft)
13.01.2021 06:34 -0,2 C -0,6 C 94 % 1019,9 hPa 0,0 l/m 6,4 km/h (2 Bft) S-SW 202 0 min 0,0 UV-I 0 W/m -1,0 C -0,2 C 9,7 km/h (2 Bft)
13.01.2021 06:35 -0,2 C -0,6 C 94 % 1020,0 hPa 0,0 l/m 4,8 km/h (1 Bft) SW 225 0 min 0,0 UV-I 0 W/m -1,0 C -0,2 C 8,0 km/h (2 Bft)
13.01.2021 06:36 -0,2 C -0,6 C 94 % 1019,9 hPa 0,0 l/m 4,8 km/h (1 Bft) W-SW 247 0 min 0,0 UV-I 0 W/m -1,0 C -0,2 C 8,0 km/h (2 Bft)
13.01.2021 06:37 -0,2 C -0,6 C 94 % 1020,0 hPa 0,0 l/m 6,4 km/h (2 Bft) W-SW 247 0 min 0,0 UV-I 0 W/m -1,0 C -0,2 C 11,3 km/h (2 Bft)
13.01.2021 06:38 -0,2 C -0,6 C 94 % 1019,9 hPa 0,0 l/m 6,4 km/h (2 Bft) SW 225 0 min 0,0 UV-I 0 W/m -1,0 C -0,2 C 9,7 km/h (2 Bft)
13.01.2021 06:39 -0,2 C -0,6 C 94 % 1019,9 hPa 0,0 l/m 4,8 km/h (1 Bft) SW 225 0 min 0,0 UV-I 0 W/m -1,0 C -0,2 C 9,7 km/h (2 Bft)
13.01.2021 06:40 -0,2 C -0,6 C 94 % 1019,9 hPa 0,0 l/m 6,4 km/h (2 Bft) SW 225 0 min 0,0 UV-I 0 W/m -1,0 C -0,2 C 8,0 km/h (2 Bft)
13.01.2021 06:41 -0,2 C -0,6 C 94 % 1019,9 hPa 0,0 l/m 4,8 km/h (1 Bft) SW 225 0 min 0,0 UV-I 0 W/m -1,0 C -0,2 C 6,4 km/h (2 Bft)
13.01.2021 06:42 -0,2 C -0,6 C 94 % 1019,8 hPa 0,0 l/m 4,8 km/h (1 Bft) SW 225 0 min 0,0 UV-I 0 W/m -1,0 C -0,2 C 8,0 km/h (2 Bft)
13.01.2021 06:43 -0,1 C -0,6 C 94 % 1019,8 hPa 0,0 l/m 6,4 km/h (2 Bft) W 270 0 min 0,0 UV-I 0 W/m -0,9 C -0,1 C 11,3 km/h (2 Bft)
13.01.2021 06:44 -0,2 C -0,6 C 94 % 1020,0 hPa 0,0 l/m 6,4 km/h (2 Bft) SW 225 0 min 0,0 UV-I 0 W/m -1,0 C -0,2 C 8,0 km/h (2 Bft)
13.01.2021 06:45 -0,1 C -0,6 C 94 % 1019,9 hPa 0,0 l/m 3,2 km/h (1 Bft) SW 225 0 min 0,0 UV-I 0 W/m -0,9 C -0,1 C 6,4 km/h (2 Bft)
13.01.2021 06:46 -0,1 C -0,6 C 94 % 1019,9 hPa 0,0 l/m 6,4 km/h (2 Bft) W-SW 247 0 min 0,0 UV-I 0 W/m -0,9 C -0,1 C 8,0 km/h (2 Bft)
13.01.2021 06:47 -0,1 C -0,6 C 94 % 1019,8 hPa 0,0 l/m 4,8 km/h (1 Bft) SW 225 0 min 0,0 UV-I 0 W/m -0,9 C -0,1 C 8,0 km/h (2 Bft)
13.01.2021 06:48 -0,1 C -0,6 C 94 % 1020,0 hPa 0,0 l/m 8,0 km/h (2 Bft) W-SW 247 0 min 0,0 UV-I 0 W/m -0,9 C -1,8 C 14,5 km/h (3 Bft)
13.01.2021 06:49 -0,1 C -0,6 C 94 % 1019,9 hPa 0,0 l/m 4,8 km/h (1 Bft) W-SW 247 0 min 0,0 UV-I 0 W/m -0,9 C -0,1 C 8,0 km/h (2 Bft)
13.01.2021 06:50 -0,1 C -0,6 C 94 % 1020,0 hPa 0,0 l/m 4,8 km/h (1 Bft) W-SW 247 0 min 0,0 UV-I 0 W/m -0,9 C -0,1 C 8,0 km/h (2 Bft)
13.01.2021 06:51 -0,1 C -0,6 C 94 % 1019,9 hPa 0,0 l/m 6,4 km/h (2 Bft) SW 225 0 min 0,0 UV-I 0 W/m -0,9 C -0,1 C 9,7 km/h (2 Bft)
13.01.2021 06:52 -0,1 C -0,6 C 94 % 1019,9 hPa 0,0 l/m 6,4 km/h (2 Bft) W-SW 247 0 min 0,0 UV-I 0 W/m -0,9 C -0,1 C 11,3 km/h (2 Bft)
13.01.2021 06:53 -0,1 C -0,6 C 94 % 1019,9 hPa 0,0 l/m 6,4 km/h (2 Bft) SW 225 0 min 0,0 UV-I 0 W/m -0,9 C -0,1 C 11,3 km/h (2 Bft)
13.01.2021 06:54 -0,1 C -0,6 C 94 % 1019,9 hPa 0,0 l/m 6,4 km/h (2 Bft) SW 225 0 min 0,0 UV-I 0 W/m -0,9 C -0,1 C 9,7 km/h (2 Bft)
13.01.2021 06:55 -0,1 C -0,6 C 94 % 1019,8 hPa 0,0 l/m 6,4 km/h (2 Bft) SW 225 0 min 0,0 UV-I 0 W/m -0,9 C -0,1 C 8,0 km/h (2 Bft)
13.01.2021 06:56 -0,1 C -0,6 C 94 % 1019,7 hPa 0,0 l/m 6,4 km/h (2 Bft) SW 225 0 min 0,0 UV-I 0 W/m -0,9 C -0,1 C 8,0 km/h (2 Bft)
13.01.2021 06:57 -0,1 C -0,6 C 94 % 1019,9 hPa 0,0 l/m 6,4 km/h (2 Bft) SW 225 0 min 0,0 UV-I 0 W/m -0,9 C -0,1 C 11,3 km/h (2 Bft)
13.01.2021 06:58 -0,1 C -0,6 C 94 % 1019,8 hPa 0,0 l/m 6,4 km/h (2 Bft) W-SW 247 0 min 0,0 UV-I 0 W/m -0,9 C -0,1 C 9,7 km/h (2 Bft)
13.01.2021 06:59 -0,1 C -0,6 C 94 % 1019,9 hPa 0,0 l/m 8,0 km/h (2 Bft) SW 225 0 min 0,0 UV-I 0 W/m -0,9 C -1,8 C 14,5 km/h (3 Bft)
13.01.2021 07:00 -0,1 C -0,6 C 94 % 1019,8 hPa 0,0 l/m 8,0 km/h (2 Bft) W-SW 247 0 min 0,0 UV-I 0 W/m -0,9 C -1,8 C 14,5 km/h (3 Bft)
13.01.2021 07:01 -0,1 C -0,6 C 94 % 1019,8 hPa 0,0 l/m 9,7 km/h (2 Bft) W-SW 247 0 min 0,0 UV-I 0 W/m -0,9 C -3,3 C 16,1 km/h (3 Bft)
13.01.2021 07:02 -0,1 C -0,6 C 94 % 1019,8 hPa 0,0 l/m 8,0 km/h (2 Bft) W-SW 247 0 min 0,0 UV-I 0 W/m -0,9 C -1,8 C 16,1 km/h (3 Bft)
13.01.2021 07:03 -0,1 C -0,6 C 94 % 1019,8 hPa 0,0 l/m 9,7 km/h (2 Bft) W-SW 247 0 min 0,0 UV-I 0 W/m -0,9 C -3,3 C 14,5 km/h (3 Bft)
13.01.2021 07:04 -0,1 C -0,6 C 94 % 1019,8 hPa 0,0 l/m 8,0 km/h (2 Bft) SW 225 0 min 0,0 UV-I 0 W/m -0,9 C -1,8 C 11,3 km/h (2 Bft)
13.01.2021 07:05 -0,1 C -0,6 C 94 % 1019,8 hPa 0,0 l/m 6,4 km/h (2 Bft) SW 225 0 min 0,0 UV-I 0 W/m -0,9 C -0,1 C 9,7 km/h (2 Bft)
13.01.2021 07:06 -0,1 C -0,6 C 94 % 1019,8 hPa 0,0 l/m 8,0 km/h (2 Bft) SW 225 0 min 0,0 UV-I 0 W/m -0,9 C -1,8 C 14,5 km/h (3 Bft)
13.01.2021 07:07 -0,1 C -0,6 C 94 % 1019,8 hPa 0,0 l/m 8,0 km/h (2 Bft) W-SW 247 0 min 0,0 UV-I 0 W/m -0,9 C -1,8 C 9,7 km/h (2 Bft)
13.01.2021 07:08 -0,1 C -0,6 C 94 % 1019,8 hPa 0,0 l/m 8,0 km/h (2 Bft) W-SW 247 0 min 0,0 UV-I 0 W/m -0,9 C -1,8 C 14,5 km/h (3 Bft)
13.01.2021 07:09 -0,1 C -0,6 C 94 % 1019,8 hPa 0,0 l/m 11,3 km/h (2 Bft) W-SW 247 0 min 0,0 UV-I 0 W/m -0,9 C -4,6 C 19,3 km/h (3 Bft)
13.01.2021 07:10 -0,1 C -0,6 C 94 % 1019,8 hPa 0,0 l/m 9,7 km/h (2 Bft) W-SW 247 0 min 0,0 UV-I 0 W/m -0,9 C -3,3 C 14,5 km/h (3 Bft)
13.01.2021 07:11 -0,1 C -0,6 C 94 % 1019,8 hPa 0,0 l/m 9,7 km/h (2 Bft) W-SW 247 0 min 0,0 UV-I 0 W/m -0,9 C -3,3 C 17,7 km/h (3 Bft)
13.01.2021 07:12 -0,1 C -0,6 C 94 % 1019,8 hPa 0,0 l/m 6,4 km/h (2 Bft) SW 225 0 min 0,0 UV-I 0 W/m -0,9 C -0,1 C 14,5 km/h (3 Bft)
13.01.2021 07:13 -0,1 C -0,6 C 94 % 1019,8 hPa 0,0 l/m 6,4 km/h (2 Bft) SW 225 0 min 0,0 UV-I 0 W/m -0,9 C -0,1 C 12,9 km/h (3 Bft)
13.01.2021 07:14 0,0 C -0,6 C 94 % 1019,8 hPa 0,0 l/m 4,8 km/h (1 Bft) SW 225 0 min 0,0 UV-I 0 W/m -0,8 C 0,0 C 6,4 km/h (2 Bft)
13.01.2021 07:15 -0,1 C -0,6 C 94 % 1019,8 hPa 0,0 l/m 6,4 km/h (2 Bft) SW 225 0 min 0,0 UV-I 0 W/m -0,9 C -0,1 C 14,5 km/h (3 Bft)
13.01.2021 07:16 -0,1 C -0,6 C 94 % 1019,8 hPa 0,0 l/m 8,0 km/h (2 Bft) SW 225 0 min 0,0 UV-I 0 W/m -0,9 C -1,8 C 12,9 km/h (3 Bft)
13.01.2021 07:17 -0,1 C -0,6 C 94 % 1019,8 hPa 0,0 l/m 9,7 km/h (2 Bft) SW 225 0 min 0,0 UV-I 0 W/m -0,9 C -3,3 C 14,5 km/h (3 Bft)
13.01.2021 07:18 -0,1 C -0,6 C 94 % 1019,8 hPa 0,0 l/m 8,0 km/h (2 Bft) SW 225 0 min 0,0 UV-I 0 W/m -0,9 C -1,8 C 11,3 km/h (2 Bft)
13.01.2021 07:19 0,0 C -0,6 C 94 % 1019,7 hPa 0,0 l/m 6,4 km/h (2 Bft) SW 225 0 min 0,0 UV-I 0 W/m -0,8 C 0,0 C 14,5 km/h (3 Bft)
13.01.2021 07:20 -0,1 C -0,6 C 94 % 1019,8 hPa 0,0 l/m 11,3 km/h (2 Bft) SW 225 0 min 0,0 UV-I 0 W/m -0,9 C -4,6 C 20,9 km/h (4 Bft)
13.01.2021 07:21 0,0 C -0,6 C 94 % 1019,7 hPa 0,0 l/m 6,4 km/h (2 Bft) SW 225 0 min 0,0 UV-I 0 W/m -0,8 C 0,0 C 12,9 km/h (3 Bft)
13.01.2021 07:22 -0,1 C -0,6 C 94 % 1019,7 hPa 0,0 l/m 8,0 km/h (2 Bft) SW 225 0 min 0,0 UV-I 0 W/m -0,9 C -1,8 C 14,5 km/h (3 Bft)
13.01.2021 07:23 0,0 C -0,6 C 94 % 1019,7 hPa 0,0 l/m 8,0 km/h (2 Bft) SW 225 0 min 0,0 UV-I 0 W/m -0,8 C -1,6 C 12,9 km/h (3 Bft)
13.01.2021 07:24 -0,1 C -0,6 C 94 % 1019,7 hPa 0,0 l/m 6,4 km/h (2 Bft) SW 225 0 min 0,0 UV-I 0 W/m -0,9 C -0,1 C 14,5 km/h (3 Bft)
13.01.2021 07:25 0,0 C -0,6 C 94 % 1019,8 hPa 0,0 l/m 9,7 km/h (2 Bft) W-SW 247 0 min 0,0 UV-I 0 W/m -0,8 C -3,2 C 16,1 km/h (3 Bft)
13.01.2021 07:26 0,0 C -0,6 C 94 % 1019,8 hPa 0,0 l/m 8,0 km/h (2 Bft) W 270 0 min 0,0 UV-I 0 W/m -0,8 C -1,6 C 11,3 km/h (2 Bft)
13.01.2021 07:27 0,0 C -0,6 C 94 % 1019,8 hPa 0,0 l/m 6,4 km/h (2 Bft) SW 225 0 min 0,0 UV-I 0 W/m -0,8 C 0,0 C 9,7 km/h (2 Bft)
13.01.2021 07:28 -0,1 C -0,6 C 94 % 1019,8 hPa 0,0 l/m 6,4 km/h (2 Bft) SW 225 0 min 0,0 UV-I 0 W/m -0,9 C -0,1 C 12,9 km/h (3 Bft)
13.01.2021 07:29 0,0 C -0,6 C 94 % 1019,9 hPa 0,0 l/m 6,4 km/h (2 Bft) SW 225 0 min 0,0 UV-I 0 W/m -0,8 C 0,0 C 8,0 km/h (2 Bft)
13.01.2021 07:30 0,0 C -0,6 C 94 % 1019,8 hPa 0,0 l/m 8,0 km/h (2 Bft) SW 225 0 min 0,0 UV-I 0 W/m -0,8 C -1,6 C 12,9 km/h (3 Bft)
13.01.2021 07:31 -0,1 C -0,6 C 94 % 1019,8 hPa 0,0 l/m 6,4 km/h (2 Bft) SW 225 0 min 0,0 UV-I 0 W/m -0,9 C -0,1 C 8,0 km/h (2 Bft)
13.01.2021 07:32 0,0 C -0,6 C 94 % 1019,8 hPa 0,0 l/m 8,0 km/h (2 Bft) SW 225 0 min 0,0 UV-I 0 W/m -0,8 C -1,6 C 12,9 km/h (3 Bft)
13.01.2021 07:33 0,0 C -0,6 C 94 % 1019,8 hPa 0,0 l/m 11,3 km/h (2 Bft) SW 225 0 min 0,0 UV-I 0 W/m -0,8 C -4,5 C 16,1 km/h (3 Bft)
13.01.2021 07:34 0,0 C -0,6 C 94 % 1019,7 hPa 0,0 l/m 12,9 km/h (3 Bft) W-SW 247 0 min 0,0 UV-I 0 W/m -0,8 C -5,6 C 17,7 km/h (3 Bft)
13.01.2021 07:35 -0,1 C -0,6 C 94 % 1019,7 hPa 0,0 l/m 11,3 km/h (2 Bft) W-SW 247 0 min 0,0 UV-I 0 W/m -0,9 C -4,6 C 14,5 km/h (3 Bft)
13.01.2021 07:36 0,0 C -0,6 C 94 % 1019,8 hPa 0,0 l/m 9,7 km/h (2 Bft) SW 225 0 min 0,0 UV-I 0 W/m -0,8 C -3,2 C 17,7 km/h (3 Bft)
13.01.2021 07:37 0,0 C -0,6 C 94 % 1019,8 hPa 0,0 l/m 8,0 km/h (2 Bft) W-SW 247 0 min 0,0 UV-I 0 W/m -0,8 C -1,6 C 16,1 km/h (3 Bft)
13.01.2021 07:38 0,0 C -0,6 C 94 % 1019,8 hPa 0,0 l/m 11,3 km/h (2 Bft) SW 225 0 min 0,0 UV-I 0 W/m -0,8 C -4,5 C 16,1 km/h (3 Bft)
13.01.2021 07:39 -0,1 C -0,6 C 94 % 1019,8 hPa 0,0 l/m 9,7 km/h (2 Bft) W-SW 247 0 min 0,0 UV-I 0 W/m -0,9 C -3,3 C 17,7 km/h (3 Bft)
13.01.2021 07:40 0,0 C -0,6 C 94 % 1019,8 hPa 0,0 l/m 9,7 km/h (2 Bft) SW 225 0 min 0,0 UV-I 0 W/m -0,8 C -3,2 C 14,5 km/h (3 Bft)
13.01.2021 07:41 0,0 C -0,6 C 94 % 1019,8 hPa 0,0 l/m 9,7 km/h (2 Bft) SW 225 0 min 0,0 UV-I 0 W/m -0,8 C -3,2 C 17,7 km/h (3 Bft)
13.01.2021 07:42 -0,1 C -0,6 C 94 % 1019,8 hPa 0,0 l/m 6,4 km/h (2 Bft) SW 225 0 min 0,0 UV-I 0 W/m -0,9 C -0,1 C 11,3 km/h (2 Bft)
13.01.2021 07:43 0,0 C -0,6 C 94 % 1019,8 hPa 0,0 l/m 4,8 km/h (1 Bft) W-SW 247 0 min 0,0 UV-I 0 W/m -0,8 C 0,0 C 8,0 km/h (2 Bft)
13.01.2021 07:44 0,0 C -0,6 C 93 % 1019,8 hPa 0,0 l/m 9,7 km/h (2 Bft) SW 225 0 min 0,0 UV-I 0 W/m -1,0 C -3,2 C 16,1 km/h (3 Bft)
13.01.2021 07:45 0,0 C -0,6 C 93 % 1019,8 hPa 0,0 l/m 9,7 km/h (2 Bft) SW 225 0 min 0,0 UV-I 0 W/m -1,0 C -3,2 C 17,7 km/h (3 Bft)
13.01.2021 07:46 0,0 C -0,6 C 93 % 1019,8 hPa 0,0 l/m 9,7 km/h (2 Bft) W-SW 247 0 min 0,0 UV-I 0 W/m -1,0 C -3,2 C 14,5 km/h (3 Bft)
13.01.2021 07:47 -0,1 C -0,6 C 93 % 1019,9 hPa 0,0 l/m 8,0 km/h (2 Bft) SW 225 0 min 0,0 UV-I 0 W/m -1,1 C -1,8 C 14,5 km/h (3 Bft)
13.01.2021 07:48 -0,1 C -0,6 C 93 % 1019,8 hPa 0,0 l/m 6,4 km/h (2 Bft) SW 225 0 min 0,0 UV-I 0 W/m -1,1 C -0,1 C 11,3 km/h (2 Bft)
13.01.2021 07:49 0,0 C -0,6 C 93 % 1019,9 hPa 0,0 l/m 6,4 km/h (2 Bft) W 270 0 min 0,0 UV-I 0 W/m -1,0 C 0,0 C 11,3 km/h (2 Bft)
13.01.2021 07:50 0,0 C -0,6 C 93 % 1019,9 hPa 0,0 l/m 8,0 km/h (2 Bft) SW 225 0 min 0,0 UV-I 0 W/m -1,0 C -1,6 C 20,9 km/h (4 Bft)
13.01.2021 07:51 0,0 C -0,6 C 93 % 1019,8 hPa 0,0 l/m 11,3 km/h (2 Bft) SW 225 0 min 0,0 UV-I 0 W/m -1,0 C -4,5 C 20,9 km/h (4 Bft)
13.01.2021 07:54 0,0 C -0,6 C 93 % 1019,9 hPa 0,0 l/m 6,1 km/h (2 Bft) SW 216 0 min 0,0 UV-I 0 W/m -1,0 C 0,0 C 9,7 km/h (2 Bft)
13.01.2021 07:56 0,0 C -0,6 C 93 % 1019,8 hPa 0,0 l/m 7,5 km/h (2 Bft) W-SW 239 0 min 0,0 UV-I 0 W/m -1,0 C -1,1 C 14,5 km/h (3 Bft)
13.01.2021 07:58 0,0 C -0,6 C 93 % 1019,9 hPa 0,0 l/m 10,9 km/h (2 Bft) W 265 0 min 0,0 UV-I 0 W/m -1,0 C -4,2 C 17,7 km/h (3 Bft)
13.01.2021 08:00 -0,1 C -0,6 C 93 % 1019,9 hPa 0,0 l/m 14,3 km/h (3 Bft) W-SW 244 0 min 0,0 UV-I 0 W/m -1,1 C -6,7 C 22,5 km/h (4 Bft)
13.01.2021 08:02 -0,1 C -0,6 C 93 % 1019,9 hPa 0,0 l/m 10,1 km/h (2 Bft) W-SW 244 0 min 0,0 UV-I 0 W/m -1,1 C -3,6 C 22,5 km/h (4 Bft)
13.01.2021 08:04 0,0 C -0,6 C 93 % 1019,9 hPa 0,0 l/m 6,1 km/h (2 Bft) W-SW 246 0 min 0,0 UV-I 0 W/m -1,0 C 0,0 C 11,3 km/h (2 Bft)
13.01.2021 08:06 -0,1 C -0,6 C 93 % 1019,9 hPa 0,0 l/m 5,7 km/h (1 Bft) SW 219 0 min 0,0 UV-I 0 W/m -1,1 C -0,1 C 9,7 km/h (2 Bft)
13.01.2021 08:07 -0,1 C -0,6 C 93 % 1019,9 hPa 0,0 l/m 4,8 km/h (1 Bft) W-SW 247 0 min 0,0 UV-I 0 W/m -1,1 C -0,1 C 9,7 km/h (2 Bft)
13.01.2021 08:08 0,0 C -0,6 C 93 % 1019,8 hPa 0,0 l/m 4,8 km/h (1 Bft) W-SW 247 0 min 0,0 UV-I 0 W/m -1,0 C 0,0 C 8,0 km/h (2 Bft)
13.01.2021 08:10 -0,1 C -0,6 C 93 % 1019,8 hPa 0,0 l/m 5,9 km/h (2 Bft) W-SW 245 0 min 0,0 UV-I 0 W/m -1,1 C -0,1 C 11,3 km/h (2 Bft)
13.01.2021 08:12 0,0 C -0,6 C 93 % 1019,8 hPa 0,0 l/m 7,3 km/h (2 Bft) SW 217 0 min 0,0 UV-I 0 W/m -1,0 C -0,9 C 11,3 km/h (2 Bft)
13.01.2021 08:14 0,0 C -0,6 C 93 % 1019,8 hPa 0,0 l/m 7,9 km/h (2 Bft) SW 225 0 min 0,0 UV-I 0 W/m -1,0 C -1,5 C 12,9 km/h (3 Bft)
13.01.2021 08:16 0,0 C -0,6 C 93 % 1019,7 hPa 0,0 l/m 8,6 km/h (2 Bft) W-SW 246 0 min 0,0 UV-I 0 W/m -1,0 C -2,2 C 12,9 km/h (3 Bft)
13.01.2021 08:18 0,0 C -0,6 C 93 % 1019,6 hPa 0,0 l/m 10,8 km/h (2 Bft) SW 236 0 min 0,0 UV-I 0 W/m -1,0 C -4,1 C 16,1 km/h (3 Bft)
13.01.2021 08:20 0,0 C -0,6 C 93 % 1019,7 hPa 0,0 l/m 9,4 km/h (2 Bft) W-SW 242 0 min 0,0 UV-I 0 W/m -1,0 C -2,9 C 17,7 km/h (3 Bft)
13.01.2021 08:22 0,0 C -0,6 C 93 % 1019,6 hPa 0,0 l/m 9,5 km/h (2 Bft) SW 236 0 min 0,0 UV-I 0 W/m -1,0 C -3,0 C 17,7 km/h (3 Bft)
13.01.2021 08:24 0,0 C -0,6 C 93 % 1019,8 hPa 0,0 l/m 11,1 km/h (2 Bft) SW 228 0 min 0,0 UV-I 0 W/m -1,0 C -4,3 C 17,7 km/h (3 Bft)
13.01.2021 08:26 -0,1 C -0,6 C 93 % 1019,7 hPa 0,0 l/m 9,7 km/h (2 Bft) SW 225 0 min 0,0 UV-I 0 W/m -1,1 C -3,3 C 20,9 km/h (4 Bft)
13.01.2021 08:28 -0,1 C -0,6 C 93 % 1019,7 hPa 0,0 l/m 10,2 km/h (2 Bft) SW 228 0 min 0,0 UV-I 0 W/m -1,1 C -3,7 C 17,7 km/h (3 Bft)
13.01.2021 08:30 -0,1 C -0,6 C 93 % 1019,8 hPa 0,0 l/m 8,2 km/h (2 Bft) W 262 0 min 0,0 UV-I 0 W/m -1,1 C -1,9 C 16,1 km/h (3 Bft)
13.01.2021 08:32 -0,1 C -0,6 C 93 % 1019,8 hPa 0,0 l/m 7,5 km/h (2 Bft) W-SW 240 0 min 0,0 UV-I 0 W/m -1,1 C -1,2 C 12,9 km/h (3 Bft)
13.01.2021 08:34 -0,1 C -0,6 C 93 % 1019,7 hPa 0,0 l/m 6,2 km/h (2 Bft) SW 229 0 min 0,0 UV-I 0 W/m -1,1 C -0,1 C 11,3 km/h (2 Bft)
13.01.2021 08:36 -0,1 C -0,6 C 93 % 1019,7 hPa 0,0 l/m 6,2 km/h (2 Bft) SW 222 0 min 0,0 UV-I 0 W/m -1,1 C -0,1 C 12,9 km/h (3 Bft)
13.01.2021 08:38 -0,1 C -0,6 C 93 % 1019,7 hPa 0,0 l/m 5,8 km/h (2 Bft) SW 225 0 min 0,0 UV-I 0 W/m -1,1 C -0,1 C 11,3 km/h (2 Bft)
13.01.2021 08:40 -0,1 C -0,6 C 92 % 1019,7 hPa 0,0 l/m 6,3 km/h (2 Bft) W-SW 255 0 min 0,0 UV-I 0 W/m -1,2 C -0,1 C 14,5 km/h (3 Bft)
13.01.2021 08:42 -0,1 C -0,6 C 92 % 1019,8 hPa 0,0 l/m 8,9 km/h (2 Bft) W-SW 246 0 min 0,0 UV-I 0 W/m -1,2 C -2,6 C 17,7 km/h (3 Bft)
13.01.2021 08:44 -0,1 C -0,6 C 92 % 1019,9 hPa 0,0 l/m 16,4 km/h (3 Bft) W-SW 250 0 min 0,0 UV-I 0 W/m -1,2 C -7,9 C 29,0 km/h (5 Bft)
13.01.2021 08:46 -0,1 C -0,6 C 92 % 1019,9 hPa 0,0 l/m 8,5 km/h (2 Bft) SW 221 0 min 0,0 UV-I 2 W/m -1,2 C -2,2 C 17,7 km/h (3 Bft)
13.01.2021 08:48 -0,1 C -0,6 C 92 % 1019,9 hPa 0,0 l/m 7,7 km/h (2 Bft) SW 235 0 min 0,0 UV-I 5 W/m -1,2 C -1,5 C 14,5 km/h (3 Bft)
13.01.2021 08:50 -0,1 C -0,6 C 92 % 1019,9 hPa 0,0 l/m 12,9 km/h (3 Bft) W-SW 240 0 min 0,0 UV-I 6 W/m -1,2 C -5,8 C 25,7 km/h (4 Bft)
13.01.2021 08:52 -0,1 C -0,6 C 92 % 1020,0 hPa 0,0 l/m 12,0 km/h (2 Bft) W-SW 246 0 min 0,0 UV-I 7 W/m -1,2 C -5,1 C 20,9 km/h (4 Bft)
13.01.2021 08:54 -0,1 C -0,6 C 92 % 1020,0 hPa 0,0 l/m 15,7 km/h (3 Bft) W-SW 241 0 min 0,0 UV-I 7 W/m -1,2 C -7,5 C 25,7 km/h (4 Bft)
13.01.2021 08:56 0,0 C -0,6 C 92 % 1020,1 hPa 0,0 l/m 15,5 km/h (3 Bft) SW 227 0 min 0,0 UV-I 8 W/m -1,1 C -7,3 C 30,6 km/h (5 Bft)
13.01.2021 08:58 -0,1 C -0,6 C 92 % 1020,0 hPa 0,0 l/m 17,8 km/h (3 Bft) SW 221 0 min 0,0 UV-I 9 W/m -1,2 C -8,7 C 27,4 km/h (4 Bft)
13.01.2021 09:00 -0,1 C -0,6 C 92 % 1020,1 hPa 0,0 l/m 12,8 km/h (3 Bft) S-SW 213 0 min 0,0 UV-I 9 W/m -1,2 C -5,7 C 22,5 km/h (4 Bft)
13.01.2021 09:02 -0,1 C -0,6 C 92 % 1020,1 hPa 0,0 l/m 12,1 km/h (2 Bft) SW 224 0 min 0,0 UV-I 7 W/m -1,2 C -5,2 C 20,9 km/h (4 Bft)
13.01.2021 09:04 -0,1 C -0,6 C 92 % 1020,1 hPa 0,0 l/m 17,0 km/h (3 Bft) SW 217 0 min 0,0 UV-I 11 W/m -1,2 C -8,2 C 27,4 km/h (4 Bft)
13.01.2021 09:06 -0,1 C -0,6 C 92 % 1020,1 hPa 0,0 l/m 14,0 km/h (3 Bft) W-SW 246 0 min 0,0 UV-I 10 W/m -1,2 C -6,5 C 24,1 km/h (4 Bft)
13.01.2021 09:08 -0,1 C -0,6 C 92 % 1020,1 hPa 0,0 l/m 13,3 km/h (3 Bft) SW 235 0 min 0,0 UV-I 12 W/m -1,2 C -6,0 C 22,5 km/h (4 Bft)
13.01.2021 09:10 -0,1 C -0,6 C 92 % 1020,2 hPa 0,0 l/m 11,4 km/h (2 Bft) SW 214 0 min 0,0 UV-I 12 W/m -1,2 C -4,7 C 22,5 km/h (4 Bft)
13.01.2021 09:12 -0,1 C -0,6 C 92 % 1020,1 hPa 0,0 l/m 11,9 km/h (2 Bft) S-SW 210 0 min 0,0 UV-I 15 W/m -1,2 C -5,0 C 17,7 km/h (3 Bft)
13.01.2021 09:14 -0,1 C -0,6 C 92 % 1020,2 hPa 0,0 l/m 8,0 km/h (2 Bft) SW 217 0 min 0,0 UV-I 18 W/m -1,2 C -1,8 C 14,5 km/h (3 Bft)
13.01.2021 09:16 0,0 C -0,6 C 92 % 1020,2 hPa 0,0 l/m 10,5 km/h (2 Bft) W-SW 245 0 min 0,0 UV-I 19 W/m -1,1 C -3,9 C 16,1 km/h (3 Bft)
13.01.2021 09:18 0,0 C -0,6 C 92 % 1020,1 hPa 0,0 l/m 9,9 km/h (2 Bft) W-SW 239 0 min 0,0 UV-I 19 W/m -1,1 C -3,4 C 14,5 km/h (3 Bft)
13.01.2021 09:20 0,0 C -0,6 C 92 % 1020,0 hPa 0,0 l/m 9,8 km/h (2 Bft) W 269 0 min 0,0 UV-I 20 W/m -1,1 C -3,3 C 16,1 km/h (3 Bft)
13.01.2021 09:22 0,0 C -0,6 C 92 % 1020,2 hPa 0,0 l/m 11,1 km/h (2 Bft) W-SW 255 0 min 0,0 UV-I 22 W/m -1,1 C -4,3 C 19,3 km/h (3 Bft)
13.01.2021 09:24 0,1 C -0,6 C 92 % 1020,2 hPa 0,0 l/m 9,4 km/h (2 Bft) SW 232 0 min 0,0 UV-I 23 W/m -1,0 C -2,8 C 17,7 km/h (3 Bft)
13.01.2021 09:26 0,1 C -0,6 C 92 % 1020,1 hPa 0,0 l/m 12,3 km/h (3 Bft) SW 217 0 min 0,0 UV-I 27 W/m -1,0 C -5,1 C 20,9 km/h (4 Bft)
13.01.2021 09:28 0,1 C -0,6 C 92 % 1020,1 hPa 0,0 l/m 10,4 km/h (2 Bft) SW 216 0 min 0,0 UV-I 29 W/m -1,0 C -3,7 C 17,7 km/h (3 Bft)
13.01.2021 09:30 0,1 C -0,6 C 92 % 1020,0 hPa 0,0 l/m 10,1 km/h (2 Bft) S-SW 211 0 min 0,0 UV-I 31 W/m -1,0 C -3,4 C 17,7 km/h (3 Bft)
13.01.2021 09:32 0,1 C -0,6 C 92 % 1020,1 hPa 0,0 l/m 11,1 km/h (2 Bft) SW 233 0 min 0,0 UV-I 26 W/m -1,0 C -4,2 C 17,7 km/h (3 Bft)
13.01.2021 09:34 0,1 C -0,6 C 92 % 1020,0 hPa 0,0 l/m 12,9 km/h (3 Bft) W-SW 250 0 min 0,0 UV-I 27 W/m -1,0 C -5,5 C 22,5 km/h (4 Bft)
13.01.2021 09:36 0,1 C 0,0 C 92 % 1020,0 hPa 0,0 l/m 8,0 km/h (2 Bft) S-SW 213 0 min 0,0 UV-I 31 W/m -1,0 C -1,5 C 14,5 km/h (3 Bft)
13.01.2021 09:38 0,2 C 0,0 C 92 % 1020,0 hPa 0,0 l/m 6,4 km/h (2 Bft) W-SW 246 0 min 0,0 UV-I 37 W/m -0,9 C 0,2 C 17,7 km/h (3 Bft)
13.01.2021 09:40 0,2 C 0,0 C 92 % 1020,1 hPa 0,0 l/m 10,6 km/h (2 Bft) S-SW 203 0 min 0,0 UV-I 38 W/m -0,9 C -3,7 C 22,5 km/h (4 Bft)
13.01.2021 09:42 0,2 C 0,0 C 92 % 1020,1 hPa 0,0 l/m 10,2 km/h (2 Bft) S-SW 198 0 min 0,0 UV-I 28 W/m -0,9 C -3,4 C 22,5 km/h (4 Bft)
13.01.2021 09:44 0,2 C 0,0 C 92 % 1020,1 hPa 0,0 l/m 9,0 km/h (2 Bft) SW 214 0 min 0,0 UV-I 32 W/m -0,9 C -2,4 C 14,5 km/h (3 Bft)
13.01.2021 09:46 0,3 C 0,0 C 92 % 1020,1 hPa 0,0 l/m 7,7 km/h (2 Bft) SW 214 0 min 0,0 UV-I 31 W/m -0,8 C -1,0 C 17,7 km/h (3 Bft)
13.01.2021 09:48 0,3 C 0,0 C 92 % 1020,1 hPa 0,0 l/m 10,3 km/h (2 Bft) W-SW 244 0 min 0,0 UV-I 27 W/m -0,8 C -3,4 C 19,3 km/h (3 Bft)
13.01.2021 09:50 0,3 C 0,0 C 92 % 1020,1 hPa 0,0 l/m 10,2 km/h (2 Bft) S-SW 209 0 min 0,0 UV-I 25 W/m -0,8 C -3,3 C 17,7 km/h (3 Bft)
13.01.2021 09:52 0,3 C 0,0 C 92 % 1020,1 hPa 0,0 l/m 11,3 km/h (2 Bft) W-SW 258 0 min 0,0 UV-I 25 W/m -0,8 C -4,1 C 19,3 km/h (3 Bft)
13.01.2021 09:54 0,3 C 0,0 C 92 % 1020,1 hPa 0,0 l/m 8,8 km/h (2 Bft) W-SW 246 0 min 0,0 UV-I 22 W/m -0,8 C -2,1 C 14,5 km/h (3 Bft)
13.01.2021 09:56 0,3 C 0,0 C 92 % 1020,2 hPa 0,0 l/m 9,6 km/h (2 Bft) S 190 0 min 0,0 UV-I 21 W/m -0,8 C -2,8 C 16,1 km/h (3 Bft)
13.01.2021 09:58 0,3 C 0,0 C 92 % 1020,1 hPa 0,0 l/m 11,1 km/h (2 Bft) SW 230 0 min 0,0 UV-I 20 W/m -0,8 C -4,0 C 17,7 km/h (3 Bft)
13.01.2021 10:00 0,3 C 0,0 C 92 % 1020,1 hPa 0,0 l/m 11,3 km/h (2 Bft) SW 219 0 min 0,0 UV-I 23 W/m -0,8 C -4,1 C 20,9 km/h (4 Bft)
13.01.2021 10:02 0,3 C 0,0 C 92 % 1020,0 hPa 0,0 l/m 11,0 km/h (2 Bft) W-SW 240 0 min 0,0 UV-I 29 W/m -0,8 C -3,9 C 17,7 km/h (3 Bft)
13.01.2021 10:04 0,3 C 0,0 C 92 % 1020,0 hPa 0,0 l/m 6,8 km/h (2 Bft) SW 215 0 min 0,0 UV-I 32 W/m -0,8 C -0,1 C 14,5 km/h (3 Bft)
13.01.2021 10:06 0,3 C 0,0 C 92 % 1020,0 hPa 0,0 l/m 10,9 km/h (2 Bft) SW 223 0 min 0,0 UV-I 36 W/m -0,8 C -3,8 C 16,1 km/h (3 Bft)
13.01.2021 10:08 0,3 C 0,0 C 92 % 1019,9 hPa 0,0 l/m 9,2 km/h (2 Bft) SW 228 0 min 0,0 UV-I 33 W/m -0,8 C -2,4 C 16,1 km/h (3 Bft)
13.01.2021 10:10 0,3 C 0,0 C 92 % 1020,0 hPa 0,0 l/m 9,6 km/h (2 Bft) W-SW 242 0 min 0,0 UV-I 32 W/m -0,8 C -2,8 C 20,9 km/h (4 Bft)
13.01.2021 10:12 0,3 C 0,0 C 92 % 1020,0 hPa 0,0 l/m 6,7 km/h (2 Bft) S-SW 206 0 min 0,0 UV-I 27 W/m -0,8 C 0,0 C 11,3 km/h (2 Bft)
13.01.2021 10:14 0,3 C 0,0 C 92 % 1020,0 hPa 0,0 l/m 10,5 km/h (2 Bft) S-SW 211 0 min 0,0 UV-I 27 W/m -0,8 C -3,5 C 24,1 km/h (4 Bft)
13.01.2021 10:16 0,3 C 0,0 C 92 % 1020,0 hPa 0,0 l/m 13,8 km/h (3 Bft) W-SW 242 0 min 0,0 UV-I 35 W/m -0,8 C -5,9 C 22,5 km/h (4 Bft)
13.01.2021 10:18 0,3 C 0,0 C 92 % 1020,0 hPa 0,0 l/m 11,3 km/h (2 Bft) S-SW 212 0 min 0,0 UV-I 37 W/m -0,8 C -4,1 C 19,3 km/h (3 Bft)
13.01.2021 10:20 0,4 C 0,0 C 92 % 1019,9 hPa 0,0 l/m 12,4 km/h (3 Bft) SW 223 0 min 0,0 UV-I 39 W/m -0,7 C -4,8 C 19,3 km/h (3 Bft)
13.01.2021 10:22 0,4 C 0,0 C 91 % 1020,0 hPa 0,0 l/m 8,1 km/h (2 Bft) W 261 0 min 0,0 UV-I 37 W/m -0,9 C -1,3 C 16,1 km/h (3 Bft)
13.01.2021 10:24 0,4 C 0,0 C 91 % 1019,9 hPa 0,0 l/m 11,9 km/h (2 Bft) S-SW 207 0 min 0,0 UV-I 40 W/m -0,9 C -4,5 C 19,3 km/h (3 Bft)
13.01.2021 10:26 0,4 C 0,0 C 91 % 1020,0 hPa 0,0 l/m 14,8 km/h (3 Bft) W-SW 257 0 min 0,0 UV-I 42 W/m -0,9 C -6,4 C 25,7 km/h (4 Bft)
13.01.2021 10:28 0,4 C 0,0 C 91 % 1020,0 hPa 0,0 l/m 13,1 km/h (3 Bft) W-SW 240 0 min 0,0 UV-I 41 W/m -0,9 C -5,3 C 24,1 km/h (4 Bft)
13.01.2021 10:30 0,4 C 0,0 C 91 % 1019,9 hPa 0,0 l/m 12,9 km/h (3 Bft) SW 219 0 min 0,0 UV-I 42 W/m -0,9 C -5,2 C 27,4 km/h (4 Bft)
13.01.2021 10:32 0,4 C 0,0 C 91 % 1020,0 hPa 0,0 l/m 9,1 km/h (2 Bft) S-SW 213 0 min 0,0 UV-I 50 W/m -0,9 C -2,2 C 12,9 km/h (3 Bft)
13.01.2021 10:34 0,4 C 0,0 C 91 % 1020,1 hPa 0,0 l/m 8,4 km/h (2 Bft) SW 230 0 min 0,0 UV-I 45 W/m -0,9 C -1,6 C 19,3 km/h (3 Bft)
13.01.2021 10:36 0,4 C 0,0 C 91 % 1020,0 hPa 0,0 l/m 12,2 km/h (2 Bft) W-SW 242 0 min 0,0 UV-I 37 W/m -0,9 C -4,7 C 20,9 km/h (4 Bft)
13.01.2021 10:38 0,4 C 0,0 C 90 % 1020,0 hPa 0,0 l/m 15,2 km/h (3 Bft) SW 217 0 min 0,0 UV-I 41 W/m -1,0 C -6,6 C 25,7 km/h (4 Bft)
13.01.2021 10:40 0,4 C 0,0 C 90 % 1020,0 hPa 0,0 l/m 13,1 km/h (3 Bft) W 267 0 min 0,0 UV-I 36 W/m -1,0 C -5,3 C 22,5 km/h (4 Bft)
13.01.2021 10:42 0,4 C 0,0 C 90 % 1020,0 hPa 0,0 l/m 11,5 km/h (2 Bft) W-SW 240 0 min 0,0 UV-I 37 W/m -1,0 C -4,2 C 17,7 km/h (3 Bft)
13.01.2021 10:44 0,4 C 0,0 C 90 % 1020,0 hPa 0,0 l/m 13,9 km/h (3 Bft) SW 221 0 min 0,0 UV-I 41 W/m -1,0 C -5,8 C 20,9 km/h (4 Bft)
13.01.2021 10:46 0,4 C 0,0 C 90 % 1020,0 hPa 0,0 l/m 11,2 km/h (2 Bft) SW 223 0 min 0,0 UV-I 49 W/m -1,0 C -4,0 C 20,9 km/h (4 Bft)
13.01.2021 10:48 0,4 C 0,0 C 90 % 1020,1 hPa 0,0 l/m 10,1 km/h (2 Bft) W-SW 252 0 min 0,0 UV-I 48 W/m -1,0 C -3,1 C 17,7 km/h (3 Bft)
13.01.2021 10:50 0,4 C 0,0 C 90 % 1019,9 hPa 0,0 l/m 7,8 km/h (2 Bft) SW 235 0 min 0,0 UV-I 63 W/m -1,0 C -1,0 C 16,1 km/h (3 Bft)
13.01.2021 10:52 0,4 C 0,0 C 90 % 1020,0 hPa 0,0 l/m 11,4 km/h (2 Bft) W-SW 257 0 min 0,0 UV-I 52 W/m -1,0 C -4,1 C 22,5 km/h (4 Bft)
13.01.2021 10:54 0,4 C 0,0 C 90 % 1020,0 hPa 0,0 l/m 14,1 km/h (3 Bft) SW 236 0 min 0,0 UV-I 48 W/m -1,0 C -5,9 C 24,1 km/h (4 Bft)
13.01.2021 10:56 0,3 C 0,0 C 90 % 1020,0 hPa 0,0 l/m 11,8 km/h (2 Bft) SW 223 0 min 0,0 UV-I 49 W/m -1,1 C -4,5 C 19,3 km/h (3 Bft)
13.01.2021 10:58 0,4 C 0,0 C 90 % 1019,9 hPa 0,0 l/m 11,6 km/h (2 Bft) SW 225 0 min 0,0 UV-I 49 W/m -1,0 C -4,3 C 24,1 km/h (4 Bft)
13.01.2021 11:00 0,3 C 0,0 C 90 % 1019,9 hPa 0,0 l/m 7,8 km/h (2 Bft) W-SW 254 0 min 0,0 UV-I 49 W/m -1,1 C -1,1 C 12,9 km/h (3 Bft)
13.01.2021 11:02 0,3 C 0,0 C 90 % 1019,9 hPa 0,0 l/m 13,4 km/h (3 Bft) SW 221 0 min 0,0 UV-I 60 W/m -1,1 C -5,6 C 22,5 km/h (4 Bft)
13.01.2021 11:04 0,3 C 0,0 C 90 % 1019,9 hPa 0,0 l/m 10,5 km/h (2 Bft) S-SW 207 0 min 0,0 UV-I 59 W/m -1,1 C -3,5 C 19,3 km/h (3 Bft)
13.01.2021 11:06 0,3 C 0,0 C 90 % 1020,0 hPa 0,0 l/m 9,6 km/h (2 Bft) S-SW 209 0 min 0,0 UV-I 61 W/m -1,1 C -2,8 C 16,1 km/h (3 Bft)
13.01.2021 11:08 0,3 C 0,0 C 90 % 1020,0 hPa 0,0 l/m 10,8 km/h (2 Bft) W-SW 239 0 min 0,0 UV-I 63 W/m -1,1 C -3,8 C 22,5 km/h (4 Bft)
13.01.2021 11:10 0,3 C 0,0 C 90 % 1020,0 hPa 0,0 l/m 7,7 km/h (2 Bft) S-SW 196 0 min 0,0 UV-I 60 W/m -1,1 C -1,0 C 16,1 km/h (3 Bft)
13.01.2021 11:12 0,3 C 0,0 C 90 % 1020,1 hPa 0,0 l/m 10,1 km/h (2 Bft) S-SW 213 0 min 0,0 UV-I 66 W/m -1,1 C -3,2 C 14,5 km/h (3 Bft)
13.01.2021 11:14 0,3 C 0,0 C 90 % 1019,9 hPa 0,0 l/m 9,4 km/h (2 Bft) SW 217 0 min 0,0 UV-I 79 W/m -1,1 C -2,6 C 17,7 km/h (3 Bft)
13.01.2021 11:16 0,3 C 0,0 C 90 % 1019,9 hPa 0,0 l/m 12,2 km/h (2 Bft) SW 235 0 min 0,0 UV-I 77 W/m -1,1 C -4,8 C 24,1 km/h (4 Bft)
13.01.2021 11:18 0,3 C 0,0 C 90 % 1020,0 hPa 0,0 l/m 12,2 km/h (2 Bft) S-SW 210 0 min 0,0 UV-I 78 W/m -1,1 C -4,8 C 19,3 km/h (3 Bft)
13.01.2021 11:20 0,3 C 0,0 C 90 % 1020,0 hPa 0,0 l/m 9,0 km/h (2 Bft) W-SW 250 0 min 0,0 UV-I 75 W/m -1,1 C -2,3 C 16,1 km/h (3 Bft)
13.01.2021 11:22 0,3 C 0,0 C 90 % 1020,0 hPa 0,0 l/m 12,8 km/h (3 Bft) SW 234 0 min 0,0 UV-I 64 W/m -1,1 C -5,2 C 22,5 km/h (4 Bft)
13.01.2021 11:24 0,3 C 0,0 C 90 % 1020,0 hPa 0,0 l/m 9,0 km/h (2 Bft) S 183 0 min 0,0 UV-I 66 W/m -1,1 C -2,3 C 14,5 km/h (3 Bft)
13.01.2021 11:26 0,3 C 0,0 C 90 % 1020,0 hPa 0,0 l/m 12,2 km/h (2 Bft) S-SW 208 0 min 0,0 UV-I 84 W/m -1,1 C -4,8 C 25,7 km/h (4 Bft)
13.01.2021 11:28 0,3 C 0,0 C 90 % 1020,0 hPa 0,0 l/m 11,8 km/h (2 Bft) W-SW 238 0 min 0,0 UV-I 89 W/m -1,1 C -4,5 C 20,9 km/h (4 Bft)
13.01.2021 11:30 0,3 C 0,0 C 90 % 1020,0 hPa 0,0 l/m 11,4 km/h (2 Bft) SW 233 0 min 0,0 UV-I 64 W/m -1,1 C -4,2 C 19,3 km/h (3 Bft)
13.01.2021 11:32 0,3 C 0,0 C 90 % 1020,0 hPa 0,0 l/m 8,9 km/h (2 Bft) SW 226 0 min 0,0 UV-I 72 W/m -1,1 C -2,2 C 16,1 km/h (3 Bft)
13.01.2021 11:34 0,3 C 0,0 C 90 % 1019,8 hPa 0,0 l/m 10,2 km/h (2 Bft) S-SW 206 0 min 0,0 UV-I 79 W/m -1,1 C -3,3 C 17,7 km/h (3 Bft)
13.01.2021 11:36 0,3 C 0,0 C 90 % 1019,8 hPa 0,0 l/m 12,6 km/h (3 Bft) W-SW 246 0 min 0,4 UV-I 84 W/m -1,1 C -5,1 C 19,3 km/h (3 Bft)
13.01.2021 11:38 0,3 C 0,0 C 90 % 1019,8 hPa 0,0 l/m 11,7 km/h (2 Bft) SW 223 0 min 0,5 UV-I 103 W/m -1,1 C -4,4 C 14,5 km/h (3 Bft)
13.01.2021 11:40 0,3 C 0,0 C 90 % 1019,8 hPa 0,0 l/m 18,0 km/h (3 Bft) S-SW 207 0 min 0,5 UV-I 101 W/m -1,1 C -8,3 C 25,7 km/h (4 Bft)
13.01.2021 11:42 0,3 C 0,0 C 90 % 1019,8 hPa 0,0 l/m 13,9 km/h (3 Bft) W 264 0 min 0,5 UV-I 111 W/m -1,1 C -5,9 C 20,9 km/h (4 Bft)
13.01.2021 11:44 0,3 C 0,0 C 90 % 1019,9 hPa 0,0 l/m 12,8 km/h (3 Bft) W-SW 252 0 min 0,2 UV-I 88 W/m -1,1 C -5,2 C 24,1 km/h (4 Bft)
13.01.2021 11:46 0,3 C 0,0 C 90 % 1019,9 hPa 0,0 l/m 7,6 km/h (2 Bft) SW 236 0 min 0,1 UV-I 66 W/m -1,1 C -0,9 C 16,1 km/h (3 Bft)
13.01.2021 11:48 0,3 C 0,0 C 90 % 1019,8 hPa 0,0 l/m 8,3 km/h (2 Bft) S-SW 199 0 min 0,5 UV-I 118 W/m -1,1 C -1,6 C 16,1 km/h (3 Bft)
13.01.2021 11:50 0,3 C 0,0 C 90 % 1019,8 hPa 0,0 l/m 9,0 km/h (2 Bft) S-SW 208 0 min 0,5 UV-I 107 W/m -1,1 C -2,3 C 17,7 km/h (3 Bft)
13.01.2021 11:52 0,3 C 0,0 C 90 % 1019,7 hPa 0,0 l/m 9,2 km/h (2 Bft) SW 221 0 min 0,5 UV-I 91 W/m -1,1 C -2,4 C 17,7 km/h (3 Bft)
13.01.2021 11:54 0,3 C 0,0 C 90 % 1019,6 hPa 0,0 l/m 8,9 km/h (2 Bft) S-SW 213 0 min 0,5 UV-I 126 W/m -1,1 C -2,2 C 17,7 km/h (3 Bft)
13.01.2021 11:56 0,4 C 0,0 C 90 % 1019,6 hPa 0,0 l/m 12,0 km/h (2 Bft) W 279 0 min 0,6 UV-I 139 W/m -1,0 C -4,5 C 19,3 km/h (3 Bft)
13.01.2021 11:58 0,4 C 0,0 C 90 % 1019,5 hPa 0,0 l/m 13,2 km/h (3 Bft) W-SW 246 0 min 0,7 UV-I 149 W/m -1,0 C -5,4 C 19,3 km/h (3 Bft)
13.01.2021 12:00 0,4 C 0,0 C 89 % 1019,6 hPa 0,0 l/m 11,4 km/h (2 Bft) W-SW 240 0 min 0,7 UV-I 140 W/m -1,2 C -4,1 C 22,5 km/h (4 Bft)
13.01.2021 12:02 0,5 C 0,0 C 89 % 1019,5 hPa 0,0 l/m 17,4 km/h (3 Bft) S-SW 211 0 min 0,7 UV-I 159 W/m -1,1 C -7,7 C 27,4 km/h (4 Bft)
13.01.2021 12:04 0,5 C 0,0 C 88 % 1019,4 hPa 0,0 l/m 17,0 km/h (3 Bft) SW 234 0 min 0,6 UV-I 135 W/m -1,3 C -7,5 C 24,1 km/h (4 Bft)
13.01.2021 12:06 0,4 C 0,0 C 88 % 1019,4 hPa 0,0 l/m 16,5 km/h (3 Bft) S-SW 205 0 min 0,6 UV-I 136 W/m -1,3 C -7,4 C 29,0 km/h (5 Bft)
13.01.2021 12:08 0,5 C 0,0 C 88 % 1019,4 hPa 0,0 l/m 15,3 km/h (3 Bft) S-SW 207 0 min 0,7 UV-I 149 W/m -1,3 C -6,6 C 25,7 km/h (4 Bft)
13.01.2021 12:10 0,5 C 0,0 C 88 % 1019,4 hPa 0,0 l/m 14,5 km/h (3 Bft) S-SW 195 0 min 0,7 UV-I 144 W/m -1,3 C -6,1 C 20,9 km/h (4 Bft)
13.01.2021 12:12 0,5 C 0,0 C 88 % 1019,2 hPa 0,0 l/m 14,8 km/h (3 Bft) S-SW 208 0 min 0,7 UV-I 124 W/m -1,3 C -6,3 C 22,5 km/h (4 Bft)
13.01.2021 12:14 0,4 C 0,0 C 88 % 1019,1 hPa 0,0 l/m 14,2 km/h (3 Bft) W 267 0 min 0,6 UV-I 111 W/m -1,3 C -6,0 C 22,5 km/h (4 Bft)
13.01.2021 12:16 0,4 C 0,0 C 88 % 1019,1 hPa 0,0 l/m 13,1 km/h (3 Bft) SW 225 0 min 0,7 UV-I 138 W/m -1,3 C -5,3 C 22,5 km/h (4 Bft)
13.01.2021 12:18 0,5 C 0,0 C 88 % 1019,1 hPa 0,0 l/m 11,1 km/h (2 Bft) W-SW 251 0 min 0,7 UV-I 136 W/m -1,3 C -3,8 C 22,5 km/h (4 Bft)
13.01.2021 12:20 0,6 C 0,0 C 88 % 1019,1 hPa 0,0 l/m 8,6 km/h (2 Bft) S-SW 206 0 min 0,7 UV-I 137 W/m -1,2 C -1,6 C 12,9 km/h (3 Bft)
13.01.2021 12:22 0,6 C 0,0 C 89 % 1019,2 hPa 0,0 l/m 10,4 km/h (2 Bft) SW 236 0 min 0,7 UV-I 161 W/m -1,0 C -3,1 C 17,7 km/h (3 Bft)
13.01.2021 12:24 0,6 C 0,0 C 88 % 1019,1 hPa 0,0 l/m 9,0 km/h (2 Bft) W 263 0 min 0,7 UV-I 154 W/m -1,2 C -1,9 C 17,7 km/h (3 Bft)
13.01.2021 12:26 0,6 C 0,0 C 88 % 1019,1 hPa 0,0 l/m 7,9 km/h (2 Bft) S-SW 203 0 min 0,7 UV-I 136 W/m -1,2 C -0,9 C 16,1 km/h (3 Bft)
13.01.2021 12:28 0,6 C 0,0 C 88 % 1019,1 hPa 0,0 l/m 11,3 km/h (2 Bft) SW 223 0 min 0,7 UV-I 151 W/m -1,2 C -3,8 C 19,3 km/h (3 Bft)
13.01.2021 12:30 0,6 C 0,0 C 89 % 1019,0 hPa 0,0 l/m 11,1 km/h (2 Bft) W-SW 248 0 min 0,8 UV-I 142 W/m -1,0 C -3,7 C 20,9 km/h (4 Bft)
13.01.2021 12:32 0,7 C 0,6 C 89 % 1019,0 hPa 0,0 l/m 10,9 km/h (2 Bft) SW 225 0 min 0,7 UV-I 137 W/m -0,9 C -3,4 C 19,3 km/h (3 Bft)
13.01.2021 12:34 0,7 C 0,0 C 88 % 1019,0 hPa 0,0 l/m 11,6 km/h (2 Bft) SW 221 0 min 0,7 UV-I 113 W/m -1,1 C -3,9 C 22,5 km/h (4 Bft)
13.01.2021 12:36 0,7 C 0,0 C 89 % 1019,0 hPa 0,0 l/m 12,2 km/h (2 Bft) S-SW 208 0 min 0,7 UV-I 132 W/m -0,9 C -4,3 C 19,3 km/h (3 Bft)
13.01.2021 12:38 0,7 C 0,0 C 88 % 1018,9 hPa 0,0 l/m 14,1 km/h (3 Bft) SW 220 0 min 0,8 UV-I 143 W/m -1,1 C -5,6 C 24,1 km/h (4 Bft)
13.01.2021 12:40 0,6 C 0,0 C 88 % 1018,9 hPa 0,0 l/m 16,3 km/h (3 Bft) S-SW 209 0 min 0,7 UV-I 125 W/m -1,2 C -7,0 C 25,7 km/h (4 Bft)
13.01.2021 12:42 0,6 C 0,0 C 88 % 1018,9 hPa 0,0 l/m 13,9 km/h (3 Bft) S-SW 205 0 min 0,8 UV-I 172 W/m -1,2 C -5,6 C 20,9 km/h (4 Bft)
13.01.2021 12:44 0,6 C 0,6 C 88 % 1018,9 hPa 0,0 l/m 11,6 km/h (2 Bft) S-SW 195 0 min 0,8 UV-I 130 W/m -1,2 C -4,0 C 19,3 km/h (3 Bft)
13.01.2021 12:46 0,6 C 0,0 C 88 % 1018,9 hPa 0,0 l/m 14,1 km/h (3 Bft) SW 225 0 min 0,8 UV-I 130 W/m -1,2 C -5,7 C 20,9 km/h (4 Bft)
13.01.2021 12:48 0,7 C 0,0 C 88 % 1018,8 hPa 0,0 l/m 14,4 km/h (3 Bft) SW 219 0 min 0,8 UV-I 150 W/m -1,1 C -5,8 C 27,4 km/h (4 Bft)
13.01.2021 12:50 0,7 C 0,0 C 88 % 1018,7 hPa 0,0 l/m 15,6 km/h (3 Bft) S-SW 200 0 min 0,8 UV-I 165 W/m -1,1 C -6,5 C 22,5 km/h (4 Bft)
13.01.2021 12:52 0,8 C 0,6 C 88 % 1018,7 hPa 0,0 l/m 13,6 km/h (3 Bft) S-SW 213 0 min 0,8 UV-I 208 W/m -1,0 C -5,2 C 20,9 km/h (4 Bft)
13.01.2021 12:54 0,8 C 1,1 C 88 % 1018,6 hPa 0,0 l/m 11,6 km/h (2 Bft) S-SW 213 0 min 0,8 UV-I 176 W/m -1,0 C -3,8 C 16,1 km/h (3 Bft)
13.01.2021 12:56 0,8 C 1,1 C 88 % 1018,6 hPa 0,0 l/m 9,3 km/h (2 Bft) S-SW 198 0 min 0,8 UV-I 140 W/m -1,0 C -2,0 C 16,1 km/h (3 Bft)
13.01.2021 12:58 0,8 C 0,6 C 88 % 1018,7 hPa 0,0 l/m 12,6 km/h (3 Bft) SW 225 0 min 0,8 UV-I 120 W/m -1,0 C -4,5 C 19,3 km/h (3 Bft)
13.01.2021 13:00 0,8 C 0,6 C 88 % 1018,8 hPa 0,0 l/m 13,6 km/h (3 Bft) S-SW 199 0 min 1,0 UV-I 120 W/m -1,0 C -5,2 C 19,3 km/h (3 Bft)
13.01.2021 13:02 0,8 C 1,1 C 87 % 1018,6 hPa 0,0 l/m 12,5 km/h (3 Bft) SW 232 0 min 0,8 UV-I 111 W/m -1,1 C -4,4 C 20,9 km/h (4 Bft)
13.01.2021 13:04 0,8 C 0,6 C 87 % 1018,6 hPa 0,0 l/m 14,8 km/h (3 Bft) S-SW 204 0 min 0,9 UV-I 124 W/m -1,1 C -5,9 C 20,9 km/h (4 Bft)
13.01.2021 13:06 0,9 C 0,6 C 87 % 1018,5 hPa 0,0 l/m 13,1 km/h (3 Bft) SW 221 0 min 1,0 UV-I 163 W/m -1,0 C -4,7 C 22,5 km/h (4 Bft)
13.01.2021 13:08 0,9 C 0,6 C 87 % 1018,5 hPa 0,0 l/m 12,1 km/h (2 Bft) S-SW 200 0 min 0,9 UV-I 177 W/m -1,0 C -4,0 C 16,1 km/h (3 Bft)
13.01.2021 13:10 1,0 C 0,6 C 87 % 1018,5 hPa 0,0 l/m 11,8 km/h (2 Bft) S-SW 192 0 min 0,9 UV-I 187 W/m -0,9 C -3,7 C 19,3 km/h (3 Bft)
13.01.2021 13:12 1,0 C 1,1 C 87 % 1018,5 hPa 0,0 l/m 10,9 km/h (2 Bft) W-SW 248 0 min 0,9 UV-I 162 W/m -0,9 C -3,0 C 20,9 km/h (4 Bft)
13.01.2021 13:14 1,1 C 1,1 C 87 % 1018,4 hPa 0,0 l/m 11,0 km/h (2 Bft) SW 220 2 min 0,9 UV-I 305 W/m -0,8 C -3,0 C 19,3 km/h (3 Bft)
13.01.2021 13:16 1,1 C 1,1 C 86 % 1018,5 hPa 0,0 l/m 14,0 km/h (3 Bft) S-SW 194 0 min 1,0 UV-I 196 W/m -1,0 C -5,0 C 20,9 km/h (4 Bft)
13.01.2021 13:18 1,0 C 1,1 C 86 % 1018,5 hPa 0,0 l/m 17,0 km/h (3 Bft) SW 232 2 min 0,9 UV-I 317 W/m -1,1 C -6,9 C 27,4 km/h (4 Bft)
13.01.2021 13:20 0,9 C 1,1 C 86 % 1018,3 hPa 0,0 l/m 14,8 km/h (3 Bft) SW 219 0 min 0,9 UV-I 166 W/m -1,2 C -5,8 C 22,5 km/h (4 Bft)
13.01.2021 13:22 1,0 C 0,6 C 86 % 1018,3 hPa 0,0 l/m 15,0 km/h (3 Bft) W-SW 246 0 min 0,9 UV-I 171 W/m -1,1 C -5,8 C 24,1 km/h (4 Bft)
13.01.2021 13:24 1,0 C 1,1 C 86 % 1018,4 hPa 0,0 l/m 15,7 km/h (3 Bft) SW 229 0 min 0,9 UV-I 170 W/m -1,1 C -6,2 C 24,1 km/h (4 Bft)
13.01.2021 13:26 1,0 C 1,1 C 86 % 1018,3 hPa 0,0 l/m 11,1 km/h (2 Bft) W-SW 249 0 min 0,7 UV-I 127 W/m -1,1 C -3,2 C 17,7 km/h (3 Bft)
13.01.2021 13:28 0,9 C 0,6 C 86 % 1018,3 hPa 0,0 l/m 8,0 km/h (2 Bft) W-SW 246 0 min 0,7 UV-I 96 W/m -1,2 C -0,7 C 14,5 km/h (3 Bft)
13.01.2021 13:30 0,9 C 0,6 C 86 % 1018,3 hPa 0,0 l/m 10,2 km/h (2 Bft) SW 219 0 min 0,8 UV-I 110 W/m -1,2 C -2,6 C 17,7 km/h (3 Bft)
13.01.2021 13:32 0,8 C 0,6 C 86 % 1018,3 hPa 0,0 l/m 9,8 km/h (2 Bft) SW 226 0 min 0,8 UV-I 155 W/m -1,3 C -2,4 C 16,1 km/h (3 Bft)
13.01.2021 13:34 0,9 C 0,6 C 86 % 1018,3 hPa 0,0 l/m 12,8 km/h (3 Bft) SW 214 0 min 0,9 UV-I 171 W/m -1,2 C -4,5 C 20,9 km/h (4 Bft)
13.01.2021 13:36 0,9 C 0,6 C 86 % 1018,2 hPa 0,0 l/m 16,4 km/h (3 Bft) S-SW 202 0 min 0,8 UV-I 176 W/m -1,2 C -6,7 C 25,7 km/h (4 Bft)
13.01.2021 13:38 0,9 C 0,6 C 86 % 1018,1 hPa 0,0 l/m 10,5 km/h (2 Bft) W-SW 255 0 min 0,9 UV-I 188 W/m -1,2 C -2,9 C 16,1 km/h (3 Bft)
13.01.2021 13:40 1,0 C 1,1 C 86 % 1018,0 hPa 0,0 l/m 9,4 km/h (2 Bft) S-SW 192 2 min 1,0 UV-I 365 W/m -1,1 C -1,9 C 14,5 km/h (3 Bft)
13.01.2021 13:42 1,1 C 1,1 C 86 % 1018,0 hPa 0,0 l/m 11,5 km/h (2 Bft) SW 229 0 min 1,0 UV-I 178 W/m -1,0 C -3,4 C 22,5 km/h (4 Bft)
13.01.2021 13:44 1,1 C 1,1 C 85 % 1018,0 hPa 0,0 l/m 18,1 km/h (3 Bft) S 177 0 min 0,9 UV-I 168 W/m -1,1 C -7,3 C 25,7 km/h (4 Bft)
13.01.2021 13:46 1,0 C 1,1 C 85 % 1018,0 hPa 0,0 l/m 13,5 km/h (3 Bft) SW 214 2 min 0,9 UV-I 256 W/m -1,2 C -4,9 C 19,3 km/h (3 Bft)
13.01.2021 13:48 1,0 C 1,1 C 85 % 1017,9 hPa 0,0 l/m 11,7 km/h (2 Bft) S-SW 198 0 min 0,9 UV-I 216 W/m -1,2 C -3,6 C 24,1 km/h (4 Bft)
13.01.2021 13:50 0,9 C 1,1 C 85 % 1017,8 hPa 0,0 l/m 13,4 km/h (3 Bft) SW 217 0 min 0,8 UV-I 135 W/m -1,3 C -4,9 C 22,5 km/h (4 Bft)
13.01.2021 13:52 0,9 C 0,6 C 85 % 1017,9 hPa 0,0 l/m 15,1 km/h (3 Bft) SW 215 0 min 0,9 UV-I 127 W/m -1,3 C -5,9 C 22,5 km/h (4 Bft)
13.01.2021 13:54 0,8 C 0,6 C 85 % 1017,8 hPa 0,0 l/m 12,8 km/h (3 Bft) W-SW 241 0 min 0,8 UV-I 126 W/m -1,4 C -4,6 C 20,9 km/h (4 Bft)
13.01.2021 13:56 0,8 C 0,6 C 85 % 1017,8 hPa 0,0 l/m 11,7 km/h (2 Bft) S-SW 211 0 min 0,8 UV-I 120 W/m -1,4 C -3,9 C 17,7 km/h (3 Bft)
13.01.2021 13:58 0,8 C 0,6 C 85 % 1017,8 hPa 0,0 l/m 11,9 km/h (2 Bft) SW 220 0 min 0,8 UV-I 118 W/m -1,4 C -4,0 C 17,7 km/h (3 Bft)
13.01.2021 14:00 0,8 C 0,6 C 85 % 1017,8 hPa 0,0 l/m 12,1 km/h (2 Bft) SW 225 0 min 0,9 UV-I 104 W/m -1,4 C -4,2 C 22,5 km/h (4 Bft)
13.01.2021 14:02 0,9 C 0,6 C 85 % 1017,7 hPa 0,0 l/m 9,6 km/h (2 Bft) S-SW 213 0 min 0,8 UV-I 98 W/m -1,3 C -2,1 C 12,9 km/h (3 Bft)
13.01.2021 14:04 0,9 C 0,6 C 85 % 1017,7 hPa 0,0 l/m 9,1 km/h (2 Bft) SW 223 0 min 0,7 UV-I 124 W/m -1,3 C -1,7 C 12,9 km/h (3 Bft)
13.01.2021 14:06 0,8 C 0,6 C 85 % 1017,6 hPa 0,0 l/m 11,5 km/h (2 Bft) SW 221 0 min 0,8 UV-I 133 W/m -1,4 C -3,7 C 19,3 km/h (3 Bft)
13.01.2021 14:08 0,9 C 0,6 C 85 % 1017,7 hPa 0,0 l/m 14,1 km/h (3 Bft) W-SW 246 2 min 0,9 UV-I 303 W/m -1,3 C -5,3 C 20,9 km/h (4 Bft)
13.01.2021 14:10 1,0 C 1,1 C 84 % 1017,5 hPa 0,0 l/m 15,2 km/h (3 Bft) S-SW 203 2 min 0,9 UV-I 301 W/m -1,4 C -5,9 C 24,1 km/h (4 Bft)
13.01.2021 14:12 1,1 C 1,1 C 84 % 1017,6 hPa 0,0 l/m 16,2 km/h (3 Bft) S-SW 209 2 min 0,9 UV-I 288 W/m -1,3 C -6,3 C 22,5 km/h (4 Bft)
13.01.2021 14:14 1,2 C 1,7 C 84 % 1017,5 hPa 0,0 l/m 12,3 km/h (3 Bft) SW 217 2 min 0,9 UV-I 295 W/m -1,2 C -3,8 C 17,7 km/h (3 Bft)
13.01.2021 14:16 1,2 C 1,7 C 84 % 1017,5 hPa 0,0 l/m 10,6 km/h (2 Bft) S-SW 205 2 min 0,9 UV-I 327 W/m -1,2 C -2,6 C 14,5 km/h (3 Bft)
13.01.2021 14:18 1,2 C 2,2 C 84 % 1017,5 hPa 0,0 l/m 8,9 km/h (2 Bft) S-SW 207 2 min 0,9 UV-I 296 W/m -1,2 C -1,2 C 12,9 km/h (3 Bft)
13.01.2021 14:20 1,3 C 2,2 C 84 % 1017,5 hPa 0,0 l/m 13,3 km/h (3 Bft) W 261 2 min 0,8 UV-I 331 W/m -1,1 C -4,4 C 20,9 km/h (4 Bft)
13.01.2021 14:22 1,3 C 2,2 C 84 % 1017,5 hPa 0,0 l/m 11,5 km/h (2 Bft) SW 225 2 min 0,8 UV-I 283 W/m -1,1 C -3,2 C 16,1 km/h (3 Bft)
13.01.2021 14:24 1,2 C 1,7 C 83 % 1017,6 hPa 0,0 l/m 9,3 km/h (2 Bft) SW 219 0 min 0,8 UV-I 227 W/m -1,4 C -1,5 C 14,5 km/h (3 Bft)
13.01.2021 14:26 1,2 C 1,7 C 84 % 1017,6 hPa 0,0 l/m 7,8 km/h (2 Bft) S-SW 205 0 min 0,8 UV-I 218 W/m -1,2 C -0,2 C 12,9 km/h (3 Bft)
13.01.2021 14:28 1,2 C 1,7 C 84 % 1017,6 hPa 0,0 l/m 10,8 km/h (2 Bft) S-SW 204 0 min 0,8 UV-I 173 W/m -1,2 C -2,7 C 16,1 km/h (3 Bft)
13.01.2021 14:30 1,2 C 2,2 C 84 % 1017,6 hPa 0,0 l/m 11,0 km/h (2 Bft) S-SW 211 2 min 0,8 UV-I 277 W/m -1,2 C -2,9 C 19,3 km/h (3 Bft)
13.01.2021 14:32 1,2 C 2,2 C 83 % 1017,5 hPa 0,0 l/m 12,4 km/h (3 Bft) S-SW 208 2 min 0,7 UV-I 297 W/m -1,4 C -3,9 C 16,1 km/h (3 Bft)
13.01.2021 14:34 1,2 C 1,7 C 84 % 1017,6 hPa 0,0 l/m 14,4 km/h (3 Bft) S-SW 199 0 min 0,7 UV-I 155 W/m -1,2 C -5,2 C 24,1 km/h (4 Bft)
13.01.2021 14:36 1,2 C 1,7 C 84 % 1017,6 hPa 0,0 l/m 11,3 km/h (2 Bft) S-SW 201 2 min 0,7 UV-I 234 W/m -1,2 C -3,1 C 14,5 km/h (3 Bft)
13.01.2021 14:38 1,3 C 2,2 C 84 % 1017,6 hPa 0,0 l/m 7,6 km/h (2 Bft) S-SW 203 2 min 0,8 UV-I 285 W/m -1,1 C 0,1 C 17,7 km/h (3 Bft)
13.01.2021 14:40 1,3 C 2,8 C 84 % 1017,6 hPa 0,0 l/m 12,8 km/h (3 Bft) SW 225 2 min 0,8 UV-I 306 W/m -1,1 C -4,0 C 17,7 km/h (3 Bft)
13.01.2021 14:42 1,4 C 3,3 C 84 % 1017,6 hPa 0,0 l/m 11,6 km/h (2 Bft) S-SW 205 2 min 0,8 UV-I 300 W/m -1,0 C -3,1 C 16,1 km/h (3 Bft)
13.01.2021 14:44 1,4 C 3,3 C 84 % 1017,6 hPa 0,0 l/m 7,6 km/h (2 Bft) S-SW 200 2 min 0,8 UV-I 297 W/m -1,0 C 0,2 C 11,3 km/h (2 Bft)
13.01.2021 14:46 1,4 C 3,3 C 84 % 1017,6 hPa 0,0 l/m 8,2 km/h (2 Bft) W 259 2 min 0,8 UV-I 303 W/m -1,0 C -0,4 C 12,9 km/h (3 Bft)
13.01.2021 14:48 1,5 C 3,3 C 83 % 1017,6 hPa 0,0 l/m 12,4 km/h (3 Bft) S-SW 202 2 min 0,7 UV-I 310 W/m -1,1 C -3,5 C 19,3 km/h (3 Bft)
13.01.2021 14:50 1,4 C 3,3 C 83 % 1017,6 hPa 0,0 l/m 9,3 km/h (2 Bft) S-SW 212 0 min 0,7 UV-I 213 W/m -1,2 C -1,3 C 12,9 km/h (3 Bft)
13.01.2021 14:52 1,3 C 2,8 C 83 % 1017,5 hPa 0,0 l/m 10,0 km/h (2 Bft) S-SW 208 0 min 0,7 UV-I 228 W/m -1,3 C -2,0 C 14,5 km/h (3 Bft)
13.01.2021 14:54 1,3 C 2,2 C 83 % 1017,6 hPa 0,0 l/m 12,6 km/h (3 Bft) S-SW 213 0 min 0,6 UV-I 113 W/m -1,3 C -3,9 C 20,9 km/h (4 Bft)
13.01.2021 14:56 1,2 C 1,1 C 83 % 1017,5 hPa 0,0 l/m 10,1 km/h (2 Bft) W-SW 244 0 min 0,5 UV-I 91 W/m -1,4 C -2,2 C 19,3 km/h (3 Bft)
13.01.2021 14:58 1,0 C 1,1 C 83 % 1017,5 hPa 0,0 l/m 9,6 km/h (2 Bft) S-SW 198 0 min 0,5 UV-I 84 W/m -1,6 C -2,0 C 12,9 km/h (3 Bft)
13.01.2021 15:00 0,8 C 0,6 C 84 % 1017,6 hPa 0,0 l/m 9,6 km/h (2 Bft) S-SW 208 0 min 0,5 UV-I 85 W/m -1,6 C -2,2 C 17,7 km/h (3 Bft)
13.01.2021 15:02 0,8 C 0,6 C 85 % 1017,5 hPa 0,0 l/m 10,6 km/h (2 Bft) S-SW 211 0 min 0,5 UV-I 76 W/m -1,4 C -3,0 C 16,1 km/h (3 Bft)
13.01.2021 15:04 0,7 C 0,0 C 85 % 1017,4 hPa 0,0 l/m 8,4 km/h (2 Bft) SW 217 0 min 0,4 UV-I 69 W/m -1,5 C -1,3 C 12,9 km/h (3 Bft)
13.01.2021 15:06 0,6 C 0,0 C 85 % 1017,5 hPa 0,0 l/m 4,4 km/h (1 Bft) S-SW 207 0 min 0,0 UV-I 69 W/m -1,6 C 0,6 C 6,4 km/h (2 Bft)
13.01.2021 15:08 0,6 C 0,0 C 85 % 1017,4 hPa 0,0 l/m 5,7 km/h (1 Bft) SW 215 0 min 0,0 UV-I 67 W/m -1,6 C 0,6 C 8,0 km/h (2 Bft)
13.01.2021 15:10 0,5 C 0,0 C 86 % 1017,3 hPa 0,0 l/m 8,6 km/h (2 Bft) S-SW 193 0 min 0,0 UV-I 68 W/m -1,6 C -1,7 C 12,9 km/h (3 Bft)
13.01.2021 15:12 0,4 C 0,0 C 86 % 1017,4 hPa 0,0 l/m 5,9 km/h (2 Bft) S-SW 210 0 min 0,0 UV-I 73 W/m -1,7 C 0,4 C 8,0 km/h (2 Bft)
13.01.2021 15:14 0,4 C 0,0 C 86 % 1017,3 hPa 0,0 l/m 5,1 km/h (1 Bft) S-SW 208 0 min 0,0 UV-I 74 W/m -1,7 C 0,4 C 6,4 km/h (2 Bft)
13.01.2021 15:16 0,4 C 0,0 C 86 % 1017,3 hPa 0,0 l/m 4,7 km/h (1 Bft) S-SW 200 0 min 0,0 UV-I 69 W/m -1,7 C 0,4 C 8,0 km/h (2 Bft)
13.01.2021 15:18 0,3 C -0,6 C 86 % 1017,3 hPa 0,0 l/m 5,7 km/h (1 Bft) S-SW 205 0 min 0,0 UV-I 63 W/m -1,8 C 0,3 C 9,7 km/h (2 Bft)
13.01.2021 15:20 0,3 C -0,6 C 86 % 1017,2 hPa 0,0 l/m 11,0 km/h (2 Bft) SW 215 0 min 0,0 UV-I 60 W/m -1,8 C -3,9 C 19,3 km/h (3 Bft)
13.01.2021 15:22 0,4 C -0,6 C 86 % 1017,2 hPa 0,0 l/m 10,2 km/h (2 Bft) S-SW 211 0 min 0,0 UV-I 62 W/m -1,7 C -3,2 C 17,7 km/h (3 Bft)
13.01.2021 15:24 0,4 C -0,6 C 86 % 1017,2 hPa 0,0 l/m 8,4 km/h (2 Bft) S-SW 199 0 min 0,0 UV-I 62 W/m -1,7 C -1,6 C 17,7 km/h (3 Bft)
13.01.2021 15:26 0,3 C -0,6 C 86 % 1017,3 hPa 0,0 l/m 7,6 km/h (2 Bft) SW 215 0 min 0,0 UV-I 65 W/m -1,8 C -0,9 C 12,9 km/h (3 Bft)
13.01.2021 15:28 0,3 C -0,6 C 86 % 1017,3 hPa 0,0 l/m 7,3 km/h (2 Bft) SW 222 0 min 0,0 UV-I 75 W/m -1,8 C -0,6 C 9,7 km/h (2 Bft)
13.01.2021 15:30 0,4 C -0,6 C 86 % 1017,1 hPa 0,0 l/m 7,3 km/h (2 Bft) S-SW 209 0 min 0,0 UV-I 88 W/m -1,7 C -0,5 C 11,3 km/h (2 Bft)
13.01.2021 15:32 0,4 C 0,0 C 86 % 1017,2 hPa 0,0 l/m 6,7 km/h (2 Bft) SW 214 0 min 0,0 UV-I 89 W/m -1,7 C 0,1 C 11,3 km/h (2 Bft)
13.01.2021 15:34 0,4 C 0,0 C 86 % 1017,2 hPa 0,0 l/m 10,4 km/h (2 Bft) SW 225 0 min 0,0 UV-I 88 W/m -1,7 C -3,3 C 14,5 km/h (3 Bft)
13.01.2021 15:36 0,5 C 0,0 C 86 % 1017,2 hPa 0,0 l/m 8,2 km/h (2 Bft) S-SW 210 0 min 0,0 UV-I 90 W/m -1,6 C -1,3 C 12,9 km/h (3 Bft)
13.01.2021 15:38 0,5 C 0,0 C 86 % 1017,2 hPa 0,0 l/m 9,2 km/h (2 Bft) S-SW 209 0 min 0,0 UV-I 88 W/m -1,6 C -2,2 C 12,9 km/h (3 Bft)
13.01.2021 15:40 0,6 C 0,0 C 86 % 1017,2 hPa 0,0 l/m 10,8 km/h (2 Bft) SW 214 0 min 0,0 UV-I 84 W/m -1,5 C -3,4 C 17,7 km/h (3 Bft)
13.01.2021 15:42 0,6 C 0,0 C 86 % 1017,1 hPa 0,0 l/m 8,1 km/h (2 Bft) S-SW 209 0 min 0,0 UV-I 76 W/m -1,5 C -1,1 C 14,5 km/h (3 Bft)
13.01.2021 15:44 0,6 C 0,0 C 86 % 1017,0 hPa 0,0 l/m 8,6 km/h (2 Bft) S-SW 199 0 min 0,0 UV-I 69 W/m -1,5 C -1,6 C 12,9 km/h (3 Bft)
13.01.2021 15:46 0,6 C 0,0 C 86 % 1017,1 hPa 0,0 l/m 10,4 km/h (2 Bft) S 188 0 min 0,0 UV-I 67 W/m -1,5 C -3,1 C 17,7 km/h (3 Bft)
13.01.2021 15:48 0,6 C 0,0 C 87 % 1017,0 hPa 0,0 l/m 9,6 km/h (2 Bft) S-SW 209 0 min 0,0 UV-I 66 W/m -1,3 C -2,5 C 14,5 km/h (3 Bft)
13.01.2021 15:50 0,6 C 0,0 C 87 % 1017,1 hPa 0,0 l/m 7,0 km/h (2 Bft) SW 219 0 min 0,0 UV-I 62 W/m -1,3 C -0,0 C 9,7 km/h (2 Bft)
13.01.2021 15:52 0,6 C 0,0 C 87 % 1017,0 hPa 0,0 l/m 8,7 km/h (2 Bft) S-SW 212 0 min 0,0 UV-I 62 W/m -1,3 C -1,7 C 17,7 km/h (3 Bft)
13.01.2021 15:54 0,6 C 0,0 C 87 % 1017,0 hPa 0,0 l/m 6,5 km/h (2 Bft) S-SW 211 0 min 0,0 UV-I 61 W/m -1,3 C 0,5 C 11,3 km/h (2 Bft)
13.01.2021 15:56 0,6 C 0,0 C 87 % 1017,0 hPa 0,0 l/m 8,2 km/h (2 Bft) SW 217 0 min 0,0 UV-I 59 W/m -1,3 C -1,2 C 12,9 km/h (3 Bft)
13.01.2021 15:58 0,5 C 0,0 C 87 % 1017,0 hPa 0,0 l/m 7,4 km/h (2 Bft) S-SW 200 0 min 0,0 UV-I 56 W/m -1,4 C -0,5 C 11,3 km/h (2 Bft)
13.01.2021 16:00 0,5 C 0,0 C 87 % 1016,9 hPa 0,0 l/m 9,0 km/h (2 Bft) S-SW 197 0 min 0,0 UV-I 56 W/m -1,4 C -2,0 C 16,1 km/h (3 Bft)
13.01.2021 16:02 0,5 C 0,0 C 88 % 1017,0 hPa 0,0 l/m 6,6 km/h (2 Bft) S-SW 205 0 min 0,0 UV-I 56 W/m -1,3 C 0,3 C 11,3 km/h (2 Bft)
13.01.2021 16:04 0,4 C -0,6 C 88 % 1017,0 hPa 0,0 l/m 6,9 km/h (2 Bft) SW 215 0 min 0,0 UV-I 52 W/m -1,3 C -0,1 C 9,7 km/h (2 Bft)
13.01.2021 16:06 0,4 C -0,6 C 88 % 1017,0 hPa 0,0 l/m 4,2 km/h (1 Bft) S-SW 199 0 min 0,0 UV-I 48 W/m -1,3 C 0,4 C 8,0 km/h (2 Bft)
13.01.2021 16:08 0,4 C -0,6 C 88 % 1016,9 hPa 0,0 l/m 5,5 km/h (1 Bft) S-SW 213 0 min 0,0 UV-I 46 W/m -1,3 C 0,4 C 8,0 km/h (2 Bft)
13.01.2021 16:10 0,4 C -0,6 C 88 % 1016,9 hPa 0,0 l/m 7,3 km/h (2 Bft) SW 215 0 min 0,0 UV-I 49 W/m -1,3 C -0,5 C 11,3 km/h (2 Bft)
13.01.2021 16:12 0,4 C -0,6 C 88 % 1017,0 hPa 0,0 l/m 7,3 km/h (2 Bft) SW 218 0 min 0,0 UV-I 42 W/m -1,3 C -0,5 C 12,9 km/h (3 Bft)
13.01.2021 16:14 0,4 C 0,0 C 88 % 1016,9 hPa 0,0 l/m 7,3 km/h (2 Bft) S-SW 202 0 min 0,0 UV-I 32 W/m -1,3 C -0,5 C 11,3 km/h (2 Bft)
13.01.2021 16:16 0,4 C 0,0 C 88 % 1016,9 hPa 0,0 l/m 7,7 km/h (2 Bft) SW 215 0 min 0,0 UV-I 25 W/m -1,3 C -0,9 C 11,3 km/h (2 Bft)
13.01.2021 16:18 0,4 C 0,0 C 88 % 1016,9 hPa 0,0 l/m 7,3 km/h (2 Bft) S-SW 213 0 min 0,0 UV-I 22 W/m -1,3 C -0,5 C 11,3 km/h (2 Bft)
13.01.2021 16:20 0,5 C 0,0 C 88 % 1016,9 hPa 0,0 l/m 5,8 km/h (2 Bft) S-SW 209 0 min 0,0 UV-I 21 W/m -1,3 C 0,5 C 8,0 km/h (2 Bft)
13.01.2021 16:22 0,5 C 0,0 C 88 % 1016,9 hPa 0,0 l/m 7,5 km/h (2 Bft) S-SW 210 0 min 0,0 UV-I 19 W/m -1,3 C -0,6 C 11,3 km/h (2 Bft)
13.01.2021 16:24 0,5 C 0,0 C 88 % 1017,0 hPa 0,0 l/m 6,7 km/h (2 Bft) SW 223 0 min 0,0 UV-I 16 W/m -1,3 C 0,2 C 9,7 km/h (2 Bft)
13.01.2021 16:26 0,6 C 0,0 C 88 % 1016,9 hPa 0,0 l/m 6,7 km/h (2 Bft) S-SW 207 0 min 0,0 UV-I 14 W/m -1,2 C 0,3 C 11,3 km/h (2 Bft)
13.01.2021 16:28 0,6 C 0,0 C 88 % 1017,0 hPa 0,0 l/m 4,7 km/h (1 Bft) S-SW 208 0 min 0,0 UV-I 12 W/m -1,2 C 0,6 C 8,0 km/h (2 Bft)
13.01.2021 16:30 0,6 C 0,0 C 88 % 1016,9 hPa 0,0 l/m 4,8 km/h (1 Bft) S-SW 209 0 min 0,0 UV-I 10 W/m -1,2 C 0,6 C 6,4 km/h (2 Bft)
13.01.2021 16:32 0,5 C 0,0 C 88 % 1016,8 hPa 0,0 l/m 3,4 km/h (1 Bft) S-SW 209 0 min 0,0 UV-I 9 W/m -1,3 C 0,5 C 4,8 km/h (1 Bft)
13.01.2021 16:34 0,6 C 0,0 C 88 % 1016,8 hPa 0,0 l/m 4,2 km/h (1 Bft) S-SW 209 0 min 0,0 UV-I 9 W/m -1,2 C 0,6 C 6,4 km/h (2 Bft)
13.01.2021 16:36 0,5 C 0,0 C 88 % 1016,9 hPa 0,0 l/m 2,9 km/h (1 Bft) S-SW 209 0 min 0,0 UV-I 7 W/m -1,3 C 0,5 C 4,8 km/h (1 Bft)
13.01.2021 16:38 0,5 C 0,0 C 88 % 1016,9 hPa 0,0 l/m 3,8 km/h (1 Bft) S-SW 195 0 min 0,0 UV-I 5 W/m -1,3 C 0,5 C 6,4 km/h (2 Bft)
13.01.2021 16:40 0,6 C 0,0 C 89 % 1017,0 hPa 0,0 l/m 5,2 km/h (1 Bft) S-SW 200 0 min 0,0 UV-I 5 W/m -1,0 C 0,6 C 6,4 km/h (2 Bft)
13.01.2021 16:42 0,6 C 0,0 C 88 % 1017,0 hPa 0,0 l/m 3,3 km/h (1 Bft) S-SW 200 0 min 0,0 UV-I 5 W/m -1,2 C 0,6 C 4,8 km/h (1 Bft)
13.01.2021 16:44 0,6 C 0,0 C 89 % 1017,0 hPa 0,0 l/m 5,3 km/h (1 Bft) S-SW 208 0 min 0,0 UV-I 5 W/m -1,0 C 0,6 C 6,4 km/h (2 Bft)
13.01.2021 16:46 0,6 C 0,0 C 89 % 1016,9 hPa 0,0 l/m 6,4 km/h (2 Bft) S-SW 208 0 min 0,0 UV-I 5 W/m -1,0 C 0,6 C 9,7 km/h (2 Bft)
13.01.2021 16:48 0,6 C 0,0 C 89 % 1016,9 hPa 0,0 l/m 4,6 km/h (1 Bft) SW 219 0 min 0,0 UV-I 2 W/m -1,0 C 0,6 C 8,0 km/h (2 Bft)
13.01.2021 16:50 0,6 C 0,0 C 89 % 1016,9 hPa 0,0 l/m 5,0 km/h (1 Bft) SW 223 0 min 0,0 UV-I 0 W/m -1,0 C 0,6 C 6,4 km/h (2 Bft)
13.01.2021 16:52 0,6 C 0,0 C 89 % 1016,8 hPa 0,0 l/m 6,2 km/h (2 Bft) W 267 0 min 0,0 UV-I 0 W/m -1,0 C 0,6 C 12,9 km/h (3 Bft)
13.01.2021 16:54 0,7 C 0,0 C 90 % 1016,8 hPa 0,0 l/m 5,6 km/h (1 Bft) S-SW 209 0 min 0,0 UV-I 0 W/m -0,7 C 0,7 C 9,7 km/h (2 Bft)
13.01.2021 16:56 0,7 C 0,0 C 90 % 1016,9 hPa 0,0 l/m 6,7 km/h (2 Bft) S-SW 211 0 min 0,0 UV-I 0 W/m -0,7 C 0,4 C 11,3 km/h (2 Bft)
13.01.2021 16:58 0,8 C 0,0 C 90 % 1016,8 hPa 0,0 l/m 6,2 km/h (2 Bft) S-SW 198 0 min 0,0 UV-I 0 W/m -0,6 C 0,8 C 11,3 km/h (2 Bft)
13.01.2021 17:00 0,8 C 0,0 C 90 % 1016,8 hPa 0,0 l/m 8,0 km/h (2 Bft) S-SW 210 0 min 0,0 UV-I 0 W/m -0,6 C -0,8 C 11,3 km/h (2 Bft)
13.01.2021 17:02 0,8 C 0,0 C 90 % 1016,8 hPa 0,0 l/m 8,6 km/h (2 Bft) S-SW 205 0 min 0,0 UV-I 0 W/m -0,6 C -1,4 C 11,3 km/h (2 Bft)
13.01.2021 17:04 0,8 C 0,0 C 90 % 1016,7 hPa 0,0 l/m 7,0 km/h (2 Bft) S-SW 198 0 min 0,0 UV-I 0 W/m -0,6 C 0,2 C 9,7 km/h (2 Bft)
13.01.2021 17:06 0,8 C 0,0 C 90 % 1016,8 hPa 0,0 l/m 7,7 km/h (2 Bft) S-SW 213 0 min 0,0 UV-I 0 W/m -0,6 C -0,5 C 11,3 km/h (2 Bft)
13.01.2021 17:08 0,8 C 0,0 C 90 % 1016,8 hPa 0,0 l/m 7,2 km/h (2 Bft) SW 221 0 min 0,0 UV-I 0 W/m -0,6 C -0,0 C 11,3 km/h (2 Bft)
13.01.2021 17:10 0,8 C 0,0 C 91 % 1016,7 hPa 0,0 l/m 7,6 km/h (2 Bft) SW 216 0 min 0,0 UV-I 0 W/m -0,5 C -0,4 C 14,5 km/h (3 Bft)
13.01.2021 17:12 0,8 C 0,0 C 91 % 1016,7 hPa 0,0 l/m 10,7 km/h (2 Bft) S-SW 207 0 min 0,0 UV-I 0 W/m -0,5 C -3,1 C 14,5 km/h (3 Bft)
13.01.2021 17:14 0,8 C 0,0 C 91 % 1016,6 hPa 0,0 l/m 8,1 km/h (2 Bft) S-SW 200 0 min 0,0 UV-I 0 W/m -0,5 C -0,9 C 11,3 km/h (2 Bft)
13.01.2021 17:16 0,8 C 0,0 C 91 % 1016,6 hPa 0,0 l/m 9,4 km/h (2 Bft) SW 219 0 min 0,0 UV-I 0 W/m -0,5 C -2,1 C 16,1 km/h (3 Bft)
13.01.2021 17:18 0,8 C 0,0 C 91 % 1016,6 hPa 0,0 l/m 9,6 km/h (2 Bft) S-SW 202 0 min 0,0 UV-I 0 W/m -0,5 C -2,2 C 12,9 km/h (3 Bft)
13.01.2021 17:20 0,8 C 0,0 C 91 % 1016,5 hPa 0,0 l/m 6,5 km/h (2 Bft) S-SW 211 0 min 0,0 UV-I 0 W/m -0,5 C 0,7 C 9,7 km/h (2 Bft)
13.01.2021 17:22 0,8 C 0,0 C 92 % 1016,5 hPa 0,0 l/m 6,2 km/h (2 Bft) S 176 0 min 0,0 UV-I 0 W/m -0,3 C 0,8 C 11,3 km/h (2 Bft)
13.01.2021 17:24 0,8 C 0,0 C 92 % 1016,6 hPa 0,0 l/m 6,3 km/h (2 Bft) S-SW 211 0 min 0,0 UV-I 0 W/m -0,3 C 0,8 C 9,7 km/h (2 Bft)
13.01.2021 17:26 0,7 C 0,0 C 92 % 1016,5 hPa 0,0 l/m 7,1 km/h (2 Bft) S 186 0 min 0,0 UV-I 0 W/m -0,4 C -0,0 C 12,9 km/h (3 Bft)
13.01.2021 17:28 0,7 C 0,0 C 92 % 1016,6 hPa 0,0 l/m 6,8 km/h (2 Bft) S 190 0 min 0,0 UV-I 0 W/m -0,4 C 0,3 C 9,7 km/h (2 Bft)
13.01.2021 17:30 0,7 C 0,0 C 92 % 1016,5 hPa 0,0 l/m 8,7 km/h (2 Bft) S-SW 204 0 min 0,0 UV-I 0 W/m -0,4 C -1,6 C 12,9 km/h (3 Bft)
13.01.2021 17:32 0,7 C 0,0 C 93 % 1016,6 hPa 0,0 l/m 7,5 km/h (2 Bft) S 189 0 min 0,0 UV-I 0 W/m -0,3 C -0,4 C 11,3 km/h (2 Bft)
13.01.2021 17:34 0,7 C 0,0 C 93 % 1016,5 hPa 0,0 l/m 5,8 km/h (2 Bft) SW 219 0 min 0,0 UV-I 0 W/m -0,3 C 0,7 C 8,0 km/h (2 Bft)
13.01.2021 17:36 0,7 C 0,0 C 93 % 1016,5 hPa 0,0 l/m 6,8 km/h (2 Bft) S-SW 199 0 min 0,0 UV-I 0 W/m -0,3 C 0,3 C 9,7 km/h (2 Bft)
13.01.2021 17:38 0,7 C 0,0 C 93 % 1016,5 hPa 0,0 l/m 7,2 km/h (2 Bft) SW 217 0 min 0,0 UV-I 0 W/m -0,3 C -0,1 C 12,9 km/h (3 Bft)
13.01.2021 17:40 0,7 C 0,0 C 93 % 1016,6 hPa 0,0 l/m 6,1 km/h (2 Bft) S-SW 205 0 min 0,0 UV-I 0 W/m -0,3 C 0,7 C 11,3 km/h (2 Bft)
13.01.2021 17:42 0,7 C 0,0 C 93 % 1016,5 hPa 0,0 l/m 5,1 km/h (1 Bft) S-SW 209 0 min 0,0 UV-I 0 W/m -0,3 C 0,7 C 8,0 km/h (2 Bft)
13.01.2021 17:44 0,7 C 0,0 C 93 % 1016,5 hPa 0,0 l/m 5,7 km/h (1 Bft) SW 217 0 min 0,0 UV-I 0 W/m -0,3 C 0,7 C 9,7 km/h (2 Bft)
13.01.2021 17:46 0,7 C 0,0 C 93 % 1016,5 hPa 0,0 l/m 4,3 km/h (1 Bft) S-SW 211 0 min 0,0 UV-I 0 W/m -0,3 C 0,7 C 8,0 km/h (2 Bft)
13.01.2021 17:48 0,7 C 0,0 C 94 % 1016,5 hPa 0,0 l/m 6,8 km/h (2 Bft) S-SW 207 0 min 0,0 UV-I 0 W/m -0,2 C 0,3 C 8,0 km/h (2 Bft)
13.01.2021 17:50 0,7 C 0,0 C 94 % 1016,5 hPa 0,0 l/m 5,2 km/h (1 Bft) SW 224 0 min 0,0 UV-I 0 W/m -0,2 C 0,7 C 6,4 km/h (2 Bft)
13.01.2021 17:52 0,7 C 0,0 C 94 % 1016,5 hPa 0,0 l/m 6,4 km/h (2 Bft) S-SW 213 0 min 0,0 UV-I 0 W/m -0,2 C 0,7 C 8,0 km/h (2 Bft)
13.01.2021 17:54 0,7 C 0,0 C 94 % 1016,5 hPa 0,0 l/m 6,6 km/h (2 Bft) W-SW 239 0 min 0,0 UV-I 0 W/m -0,2 C 0,5 C 11,3 km/h (2 Bft)
13.01.2021 17:56 0,7 C 0,0 C 94 % 1016,5 hPa 0,0 l/m 4,9 km/h (1 Bft) SW 232 0 min 0,0 UV-I 0 W/m -0,2 C 0,7 C 8,0 km/h (2 Bft)
13.01.2021 17:58 0,7 C 0,0 C 94 % 1016,5 hPa 0,0 l/m 3,4 km/h (1 Bft) SW 232 0 min 0,0 UV-I 0 W/m -0,2 C 0,7 C 4,8 km/h (1 Bft)
13.01.2021 18:00 0,7 C 0,0 C 94 % 1016,6 hPa 0,0 l/m 4,2 km/h (1 Bft) W-SW 238 0 min 0,0 UV-I 0 W/m -0,2 C 0,7 C 8,0 km/h (2 Bft)
13.01.2021 18:02 0,7 C 0,0 C 94 % 1016,6 hPa 0,0 l/m 4,6 km/h (1 Bft) W-SW 238 0 min 0,0 UV-I 0 W/m -0,2 C 0,7 C 8,0 km/h (2 Bft)
13.01.2021 18:04 0,7 C 0,0 C 94 % 1016,5 hPa 0,0 l/m 7,1 km/h (2 Bft) S-SW 212 0 min 0,0 UV-I 0 W/m -0,2 C -0,0 C 14,5 km/h (3 Bft)
13.01.2021 18:06 0,8 C 0,0 C 94 % 1016,4 hPa 0,0 l/m 4,5 km/h (1 Bft) SW 232 0 min 0,0 UV-I 0 W/m -0,1 C 0,8 C 6,4 km/h (2 Bft)
13.01.2021 18:08 0,8 C 0,0 C 94 % 1016,4 hPa 0,0 l/m 4,6 km/h (1 Bft) SW 229 0 min 0,0 UV-I 0 W/m -0,1 C 0,8 C 6,4 km/h (2 Bft)
13.01.2021 18:10 0,8 C 0,0 C 94 % 1016,3 hPa 0,0 l/m 4,8 km/h (1 Bft) SW 220 0 min 0,0 UV-I 0 W/m -0,1 C 0,8 C 8,0 km/h (2 Bft)
13.01.2021 18:12 0,8 C 0,0 C 94 % 1016,4 hPa 0,0 l/m 4,7 km/h (1 Bft) SW 228 0 min 0,0 UV-I 0 W/m -0,1 C 0,8 C 8,0 km/h (2 Bft)
13.01.2021 18:14 0,8 C 0,0 C 94 % 1016,3 hPa 0,0 l/m 5,6 km/h (1 Bft) SW 224 0 min 0,0 UV-I 0 W/m -0,1 C 0,8 C 8,0 km/h (2 Bft)
13.01.2021 18:16 0,8 C 0,0 C 95 % 1016,4 hPa 0,0 l/m 4,7 km/h (1 Bft) SW 227 0 min 0,0 UV-I 0 W/m 0,1 C 0,8 C 6,4 km/h (2 Bft)
13.01.2021 18:18 0,9 C 0,0 C 94 % 1016,4 hPa 0,0 l/m 4,7 km/h (1 Bft) S-SW 207 0 min 0,0 UV-I 0 W/m 0,0 C 0,9 C 9,7 km/h (2 Bft)
13.01.2021 18:20 0,9 C 0,0 C 95 % 1016,3 hPa 0,0 l/m 4,8 km/h (1 Bft) SW 228 0 min 0,0 UV-I 0 W/m 0,2 C 0,9 C 8,0 km/h (2 Bft)
13.01.2021 18:22 0,9 C 0,0 C 95 % 1016,4 hPa 0,0 l/m 6,2 km/h (2 Bft) W-SW 246 0 min 0,0 UV-I 0 W/m 0,2 C 0,9 C 14,5 km/h (3 Bft)
13.01.2021 18:24 0,9 C 0,0 C 95 % 1016,4 hPa 0,0 l/m 7,6 km/h (2 Bft) W-SW 248 0 min 0,0 UV-I 0 W/m 0,2 C -0,3 C 11,3 km/h (2 Bft)
13.01.2021 18:26 1,0 C 0,6 C 95 % 1016,4 hPa 0,0 l/m 7,9 km/h (2 Bft) W-SW 242 0 min 0,0 UV-I 0 W/m 0,3 C -0,5 C 16,1 km/h (3 Bft)
13.01.2021 18:28 1,0 C 0,6 C 95 % 1016,4 hPa 0,0 l/m 5,9 km/h (2 Bft) SW 217 0 min 0,0 UV-I 0 W/m 0,3 C 1,0 C 11,3 km/h (2 Bft)
13.01.2021 18:30 1,0 C 0,6 C 95 % 1016,5 hPa 0,0 l/m 5,6 km/h (1 Bft) W-SW 241 0 min 0,0 UV-I 0 W/m 0,3 C 1,0 C 11,3 km/h (2 Bft)
13.01.2021 18:32 1,0 C 0,6 C 95 % 1016,4 hPa 0,0 l/m 8,1 km/h (2 Bft) W 260 0 min 0,0 UV-I 0 W/m 0,3 C -0,7 C 14,5 km/h (3 Bft)
13.01.2021 18:34 1,1 C 0,6 C 95 % 1016,3 hPa 0,0 l/m 8,3 km/h (2 Bft) W-SW 248 0 min 0,0 UV-I 0 W/m 0,4 C -0,8 C 14,5 km/h (3 Bft)
13.01.2021 18:36 1,0 C 0,6 C 95 % 1016,3 hPa 0,0 l/m 9,0 km/h (2 Bft) SW 215 0 min 0,0 UV-I 0 W/m 0,3 C -1,5 C 16,1 km/h (3 Bft)
13.01.2021 18:38 1,0 C 0,6 C 95 % 1016,4 hPa 0,0 l/m 6,5 km/h (2 Bft) W-SW 253 0 min 0,0 UV-I 0 W/m 0,3 C 0,9 C 11,3 km/h (2 Bft)
13.01.2021 18:40 1,1 C 0,6 C 95 % 1016,4 hPa 0,0 l/m 7,2 km/h (2 Bft) SW 234 0 min 0,0 UV-I 0 W/m 0,4 C 0,3 C 11,3 km/h (2 Bft)
13.01.2021 18:42 1,1 C 0,6 C 95 % 1016,4 hPa 0,0 l/m 9,7 km/h (2 Bft) W 265 0 min 0,0 UV-I 0 W/m 0,4 C -2,0 C 17,7 km/h (3 Bft)
13.01.2021 18:44 1,1 C 0,6 C 95 % 1016,3 hPa 0,0 l/m 7,4 km/h (2 Bft) SW 234 0 min 0,0 UV-I 0 W/m 0,4 C 0,1 C 17,7 km/h (3 Bft)
13.01.2021 18:46 1,1 C 0,6 C 95 % 1016,3 hPa 0,0 l/m 7,6 km/h (2 Bft) W-SW 238 0 min 0,0 UV-I 0 W/m 0,4 C -0,1 C 11,3 km/h (2 Bft)
13.01.2021 18:48 1,1 C 0,6 C 95 % 1016,3 hPa 0,0 l/m 10,1 km/h (2 Bft) W-SW 251 0 min 0,0 UV-I 0 W/m 0,4 C -2,3 C 17,7 km/h (3 Bft)
13.01.2021 18:50 1,1 C 0,6 C 95 % 1016,3 hPa 0,0 l/m 9,0 km/h (2 Bft) W-SW 249 0 min 0,0 UV-I 0 W/m 0,4 C -1,4 C 20,9 km/h (4 Bft)
13.01.2021 18:52 1,1 C 0,6 C 95 % 1016,4 hPa 0,0 l/m 16,2 km/h (3 Bft) W-SW 254 0 min 0,0 UV-I 0 W/m 0,4 C -6,3 C 22,5 km/h (4 Bft)
13.01.2021 18:54 1,1 C 0,6 C 95 % 1016,4 hPa 0,0 l/m 12,7 km/h (3 Bft) W-NW 300 0 min 0,0 UV-I 0 W/m 0,4 C -4,2 C 19,3 km/h (3 Bft)
13.01.2021 18:56 1,1 C 0,6 C 95 % 1016,4 hPa 0,0 l/m 8,7 km/h (2 Bft) W 261 0 min 0,0 UV-I 0 W/m 0,4 C -1,1 C 19,3 km/h (3 Bft)
13.01.2021 18:58 1,1 C 0,6 C 95 % 1016,4 hPa 0,0 l/m 11,2 km/h (2 Bft) W 269 0 min 0,0 UV-I 0 W/m 0,4 C -3,2 C 17,7 km/h (3 Bft)
13.01.2021 19:00 1,1 C 0,6 C 95 % 1016,4 hPa 0,0 l/m 10,2 km/h (2 Bft) W-SW 245 0 min 0,0 UV-I 0 W/m 0,4 C -2,4 C 16,1 km/h (3 Bft)
13.01.2021 19:02 1,1 C 0,6 C 95 % 1016,5 hPa 0,0 l/m 11,9 km/h (2 Bft) W-SW 250 0 min 0,0 UV-I 0 W/m 0,4 C -3,7 C 16,1 km/h (3 Bft)
13.01.2021 19:04 1,2 C 0,6 C 95 % 1016,5 hPa 0,0 l/m 6,4 km/h (2 Bft) W-SW 252 0 min 0,0 UV-I 0 W/m 0,5 C 1,2 C 14,5 km/h (3 Bft)
13.01.2021 19:06 1,2 C 0,6 C 95 % 1016,4 hPa 0,0 l/m 7,5 km/h (2 Bft) SW 221 0 min 0,0 UV-I 0 W/m 0,5 C 0,1 C 11,3 km/h (2 Bft)
13.01.2021 19:08 1,2 C 0,6 C 95 % 1016,3 hPa 0,0 l/m 7,5 km/h (2 Bft) S-SW 211 0 min 0,0 UV-I 0 W/m 0,5 C 0,1 C 14,5 km/h (3 Bft)
13.01.2021 19:10 1,2 C 0,6 C 95 % 1016,3 hPa 0,0 l/m 6,8 km/h (2 Bft) SW 223 0 min 0,0 UV-I 0 W/m 0,5 C 0,8 C 11,3 km/h (2 Bft)
13.01.2021 19:12 1,2 C 0,6 C 95 % 1016,2 hPa 0,0 l/m 12,3 km/h (3 Bft) W 267 0 min 0,0 UV-I 0 W/m 0,5 C -3,8 C 25,7 km/h (4 Bft)
13.01.2021 19:14 1,2 C 0,6 C 95 % 1016,2 hPa 0,0 l/m 10,6 km/h (2 Bft) W 261 0 min 0,0 UV-I 0 W/m 0,5 C -2,6 C 22,5 km/h (4 Bft)
13.01.2021 19:16 1,2 C 0,6 C 94 % 1016,2 hPa 0,0 l/m 8,3 km/h (2 Bft) SW 235 0 min 0,0 UV-I 0 W/m 0,3 C -0,7 C 16,1 km/h (3 Bft)
13.01.2021 19:18 1,2 C 0,6 C 95 % 1016,2 hPa 0,0 l/m 2,3 km/h (1 Bft) SW 235 0 min 0,0 UV-I 0 W/m 0,5 C 1,2 C 4,8 km/h (1 Bft)
13.01.2021 19:20 1,2 C 0,6 C 95 % 1016,2 hPa 0,0 l/m 8,1 km/h (2 Bft) W-NW 302 0 min 0,0 UV-I 0 W/m 0,5 C -0,5 C 17,7 km/h (3 Bft)
13.01.2021 19:22 1,2 C 0,6 C 94 % 1016,3 hPa 0,0 l/m 8,2 km/h (2 Bft) W 269 0 min 0,0 UV-I 0 W/m 0,3 C -0,6 C 12,9 km/h (3 Bft)
13.01.2021 19:24 1,2 C 0,6 C 94 % 1016,3 hPa 0,0 l/m 6,0 km/h (2 Bft) W-SW 257 0 min 0,0 UV-I 0 W/m 0,3 C 1,2 C 11,3 km/h (2 Bft)
13.01.2021 19:26 1,2 C 0,6 C 94 % 1016,3 hPa 0,0 l/m 6,1 km/h (2 Bft) W 271 0 min 0,0 UV-I 0 W/m 0,3 C 1,2 C 9,7 km/h (2 Bft)
13.01.2021 19:28 1,2 C 0,6 C 94 % 1016,3 hPa 0,0 l/m 9,2 km/h (2 Bft) W-SW 249 0 min 0,0 UV-I 0 W/m 0,3 C -1,5 C 14,5 km/h (3 Bft)
13.01.2021 19:30 1,3 C 0,6 C 94 % 1016,2 hPa 0,0 l/m 10,2 km/h (2 Bft) W 259 0 min 0,0 UV-I 0 W/m 0,4 C -2,2 C 19,3 km/h (3 Bft)
13.01.2021 19:32 1,3 C 0,6 C 94 % 1016,3 hPa 0,0 l/m 13,8 km/h (3 Bft) W-SW 249 0 min 0,0 UV-I 0 W/m 0,4 C -4,7 C 19,3 km/h (3 Bft)
13.01.2021 19:34 1,3 C 0,6 C 94 % 1016,4 hPa 0,0 l/m 9,6 km/h (2 Bft) W 277 0 min 0,0 UV-I 0 W/m 0,4 C -1,7 C 14,5 km/h (3 Bft)
13.01.2021 19:36 1,3 C 0,6 C 94 % 1016,5 hPa 0,0 l/m 3,3 km/h (1 Bft) W 280 0 min 0,0 UV-I 0 W/m 0,4 C 1,3 C 6,4 km/h (2 Bft)
13.01.2021 19:38 1,3 C 0,6 C 93 % 1016,4 hPa 0,0 l/m 5,6 km/h (1 Bft) W-SW 257 0 min 0,0 UV-I 0 W/m 0,3 C 1,3 C 11,3 km/h (2 Bft)
13.01.2021 19:40 1,3 C 0,6 C 93 % 1016,4 hPa 0,0 l/m 7,9 km/h (2 Bft) W 261 0 min 0,0 UV-I 0 W/m 0,3 C -0,2 C 11,3 km/h (2 Bft)
13.01.2021 19:42 1,3 C 0,6 C 93 % 1016,5 hPa 0,0 l/m 4,9 km/h (1 Bft) W-SW 246 0 min 0,0 UV-I 0 W/m 0,3 C 1,3 C 8,0 km/h (2 Bft)
13.01.2021 19:44 1,3 C 0,6 C 93 % 1016,6 hPa 0,0 l/m 4,5 km/h (1 Bft) W-SW 246 0 min 0,0 UV-I 0 W/m 0,3 C 1,3 C 6,4 km/h (2 Bft)
13.01.2021 19:46 1,3 C 0,6 C 93 % 1016,5 hPa 0,0 l/m 3,4 km/h (1 Bft) W-SW 246 0 min 0,0 UV-I 0 W/m 0,3 C 1,3 C 8,0 km/h (2 Bft)
13.01.2021 19:48 1,3 C 0,6 C 93 % 1016,5 hPa 0,0 l/m 5,3 km/h (1 Bft) W 271 0 min 0,0 UV-I 0 W/m 0,3 C 1,3 C 8,0 km/h (2 Bft)
13.01.2021 19:50 1,3 C 0,6 C 93 % 1016,5 hPa 0,0 l/m 8,8 km/h (2 Bft) W 263 0 min 0,0 UV-I 0 W/m 0,3 C -1,0 C 14,5 km/h (3 Bft)
13.01.2021 19:52 1,3 C 0,6 C 93 % 1016,6 hPa 0,0 l/m 6,5 km/h (2 Bft) W-SW 243 0 min 0,0 UV-I 0 W/m 0,3 C 1,2 C 11,3 km/h (2 Bft)
13.01.2021 19:54 1,3 C 0,6 C 93 % 1016,7 hPa 0,0 l/m 8,4 km/h (2 Bft) W 272 0 min 0,0 UV-I 0 W/m 0,3 C -0,7 C 12,9 km/h (3 Bft)
13.01.2021 19:56 1,2 C 0,6 C 93 % 1016,5 hPa 0,0 l/m 5,1 km/h (1 Bft) SW 224 0 min 0,0 UV-I 0 W/m 0,2 C 1,2 C 8,0 km/h (2 Bft)
13.01.2021 19:58 1,3 C 0,6 C 93 % 1016,5 hPa 0,0 l/m 9,1 km/h (2 Bft) W-NW 298 0 min 0,0 UV-I 0 W/m 0,3 C -1,3 C 16,1 km/h (3 Bft)
13.01.2021 20:00 1,2 C 0,6 C 93 % 1016,4 hPa 0,0 l/m 6,4 km/h (2 Bft) W-SW 252 0 min 0,0 UV-I 0 W/m 0,2 C 1,2 C 11,3 km/h (2 Bft)
13.01.2021 20:02 1,2 C 0,6 C 92 % 1016,5 hPa 0,0 l/m 7,4 km/h (2 Bft) W 265 0 min 0,0 UV-I 0 W/m 0,0 C 0,2 C 12,9 km/h (3 Bft)
13.01.2021 20:04 1,2 C 0,6 C 92 % 1016,5 hPa 0,0 l/m 9,7 km/h (2 Bft) SW 232 0 min 0,0 UV-I 0 W/m 0,0 C -1,9 C 14,5 km/h (3 Bft)
13.01.2021 20:06 1,2 C 0,6 C 92 % 1016,7 hPa 0,0 l/m 14,2 km/h (3 Bft) W 261 0 min 0,0 UV-I 0 W/m 0,0 C -5,1 C 20,9 km/h (4 Bft)
13.01.2021 20:08 1,3 C 0,6 C 92 % 1016,6 hPa 0,0 l/m 7,8 km/h (2 Bft) W-NW 300 0 min 0,0 UV-I 0 W/m 0,1 C -0,1 C 14,5 km/h (3 Bft)
13.01.2021 20:10 1,3 C 0,6 C 92 % 1016,5 hPa 0,0 l/m 7,0 km/h (2 Bft) W 261 0 min 0,0 UV-I 0 W/m 0,1 C 0,7 C 14,5 km/h (3 Bft)
13.01.2021 20:12 1,2 C 0,6 C 92 % 1016,4 hPa 0,0 l/m 6,0 km/h (2 Bft) SW 234 0 min 0,0 UV-I 0 W/m 0,0 C 1,2 C 8,0 km/h (2 Bft)
13.01.2021 20:14 1,2 C 0,6 C 92 % 1016,4 hPa 0,0 l/m 6,7 km/h (2 Bft) W-SW 243 0 min 0,0 UV-I 0 W/m 0,0 C 0,9 C 11,3 km/h (2 Bft)
13.01.2021 20:16 1,2 C 0,6 C 92 % 1016,5 hPa 0,0 l/m 7,9 km/h (2 Bft) W 269 0 min 0,0 UV-I 0 W/m 0,0 C -0,3 C 12,9 km/h (3 Bft)
13.01.2021 20:18 1,2 C 0,6 C 92 % 1016,5 hPa 0,0 l/m 5,6 km/h (1 Bft) W-SW 253 0 min 0,0 UV-I 0 W/m 0,0 C 1,2 C 8,0 km/h (2 Bft)
13.01.2021 20:20 1,2 C 0,6 C 92 % 1016,5 hPa 0,0 l/m 5,0 km/h (1 Bft) W 260 0 min 0,0 UV-I 0 W/m 0,0 C 1,2 C 6,4 km/h (2 Bft)
13.01.2021 20:22 1,2 C 0,6 C 92 % 1016,5 hPa 0,0 l/m 5,6 km/h (1 Bft) W-SW 258 0 min 0,0 UV-I 0 W/m 0,0 C 1,2 C 9,7 km/h (2 Bft)
13.01.2021 20:24 1,2 C 0,6 C 91 % 1016,5 hPa 0,0 l/m 6,1 km/h (2 Bft) SW 229 0 min 0,0 UV-I 0 W/m -0,1 C 1,2 C 11,3 km/h (2 Bft)
13.01.2021 20:26 1,1 C 0,6 C 91 % 1016,6 hPa 0,0 l/m 6,9 km/h (2 Bft) W 264 0 min 0,0 UV-I 0 W/m -0,2 C 0,6 C 12,9 km/h (3 Bft)
13.01.2021 20:28 1,1 C 0,6 C 91 % 1016,4 hPa 0,0 l/m 4,6 km/h (1 Bft) W-SW 246 0 min 0,0 UV-I 0 W/m -0,2 C 1,1 C 6,4 km/h (2 Bft)
13.01.2021 20:30 1,1 C 0,0 C 91 % 1016,6 hPa 0,0 l/m 8,3 km/h (2 Bft) W-SW 258 0 min 0,0 UV-I 0 W/m -0,2 C -0,8 C 14,5 km/h (3 Bft)
13.01.2021 20:32 1,0 C 0,0 C 91 % 1016,6 hPa 0,0 l/m 5,7 km/h (1 Bft) W-NW 283 0 min 0,0 UV-I 0 W/m -0,3 C 1,0 C 12,9 km/h (3 Bft)
13.01.2021 20:34 1,0 C 0,0 C 91 % 1016,6 hPa 0,0 l/m 3,6 km/h (1 Bft) W 279 0 min 0,0 UV-I 0 W/m -0,3 C 1,0 C 6,4 km/h (2 Bft)
13.01.2021 20:36 1,0 C 0,0 C 90 % 1016,5 hPa 0,0 l/m 4,1 km/h (1 Bft) W-SW 253 0 min 0,0 UV-I 0 W/m -0,5 C 1,0 C 6,4 km/h (2 Bft)
13.01.2021 20:38 0,9 C 0,0 C 90 % 1016,5 hPa 0,0 l/m 5,3 km/h (1 Bft) W 269 0 min 0,0 UV-I 0 W/m -0,6 C 0,9 C 8,0 km/h (2 Bft)
13.01.2021 20:40 0,9 C 0,0 C 90 % 1016,6 hPa 0,0 l/m 6,0 km/h (2 Bft) W 267 0 min 0,0 UV-I 0 W/m -0,6 C 0,9 C 11,3 km/h (2 Bft)
13.01.2021 20:42 0,9 C 0,0 C 90 % 1016,7 hPa 0,0 l/m 7,2 km/h (2 Bft) W-SW 249 0 min 0,0 UV-I 0 W/m -0,6 C 0,1 C 11,3 km/h (2 Bft)
13.01.2021 20:44 0,8 C 0,0 C 89 % 1016,7 hPa 0,0 l/m 6,6 km/h (2 Bft) W-SW 257 0 min 0,0 UV-I 0 W/m -0,8 C 0,6 C 12,9 km/h (3 Bft)
13.01.2021 20:46 0,8 C 0,0 C 89 % 1016,6 hPa 0,0 l/m 3,0 km/h (1 Bft) W 261 0 min 0,0 UV-I 0 W/m -0,8 C 0,8 C 4,8 km/h (1 Bft)
13.01.2021 20:48 0,8 C 0,0 C 89 % 1016,8 hPa 0,0 l/m 3,2 km/h (1 Bft) W 261 0 min 0,0 UV-I 0 W/m -0,8 C 0,8 C 6,4 km/h (2 Bft)
13.01.2021 20:50 0,7 C 0,0 C 89 % 1016,8 hPa 0,0 l/m 3,8 km/h (1 Bft) W 261 0 min 0,0 UV-I 0 W/m -0,9 C 0,7 C 6,4 km/h (2 Bft)
13.01.2021 20:52 0,7 C 0,0 C 89 % 1016,8 hPa 0,0 l/m 2,0 km/h (1 Bft) W 261 0 min 0,0 UV-I 0 W/m -0,9 C 0,7 C 4,8 km/h (1 Bft)
13.01.2021 20:54 0,6 C 0,0 C 89 % 1016,7 hPa 0,0 l/m 1,4 km/h (1 Bft) W 261 0 min 0,0 UV-I 0 W/m -1,0 C 0,6 C 4,8 km/h (1 Bft)
13.01.2021 20:56 0,6 C -0,6 C 89 % 1016,8 hPa 0,0 l/m 2,5 km/h (1 Bft) W-NW 302 0 min 0,0 UV-I 0 W/m -1,0 C 0,6 C 6,4 km/h (2 Bft)
13.01.2021 20:58 0,6 C -0,6 C 89 % 1016,9 hPa 0,0 l/m 6,7 km/h (2 Bft) W 274 0 min 0,0 UV-I 0 W/m -1,0 C 0,3 C 17,7 km/h (3 Bft)
13.01.2021 21:00 0,5 C -0,6 C 89 % 1016,9 hPa 0,0 l/m 6,4 km/h (2 Bft) W-SW 243 0 min 0,0 UV-I 0 W/m -1,1 C 0,5 C 14,5 km/h (3 Bft)
13.01.2021 21:02 0,4 C -0,6 C 89 % 1016,9 hPa 0,0 l/m 4,7 km/h (1 Bft) NW 309 0 min 0,0 UV-I 0 W/m -1,2 C 0,4 C 12,9 km/h (3 Bft)
13.01.2021 21:04 0,4 C -0,6 C 89 % 1016,8 hPa 0,0 l/m 5,8 km/h (2 Bft) W 269 0 min 0,0 UV-I 0 W/m -1,2 C 0,4 C 9,7 km/h (2 Bft)
13.01.2021 21:06 0,4 C -0,6 C 89 % 1016,8 hPa 0,0 l/m 5,4 km/h (1 Bft) W-SW 239 0 min 0,0 UV-I 0 W/m -1,2 C 0,4 C 12,9 km/h (3 Bft)
13.01.2021 21:08 0,4 C -0,6 C 89 % 1016,8 hPa 0,0 l/m 4,1 km/h (1 Bft) NW 319 0 min 0,0 UV-I 0 W/m -1,2 C 0,4 C 6,4 km/h (2 Bft)
13.01.2021 21:10 0,4 C -0,6 C 89 % 1017,0 hPa 0,0 l/m 4,6 km/h (1 Bft) W 271 0 min 0,0 UV-I 0 W/m -1,2 C 0,4 C 9,7 km/h (2 Bft)
13.01.2021 21:12 0,4 C -0,6 C 89 % 1017,0 hPa 0,0 l/m 6,2 km/h (2 Bft) W-SW 250 0 min 0,0 UV-I 0 W/m -1,2 C 0,4 C 11,3 km/h (2 Bft)
13.01.2021 21:14 0,4 C -0,6 C 89 % 1017,0 hPa 0,0 l/m 4,7 km/h (1 Bft) W 278 0 min 0,0 UV-I 0 W/m -1,2 C 0,4 C 8,0 km/h (2 Bft)
13.01.2021 21:16 0,4 C -0,6 C 89 % 1017,0 hPa 0,0 l/m 7,1 km/h (2 Bft) W 265 0 min 0,0 UV-I 0 W/m -1,2 C -0,3 C 12,9 km/h (3 Bft)
13.01.2021 21:18 0,4 C -0,6 C 89 % 1017,0 hPa 0,0 l/m 6,2 km/h (2 Bft) W 276 0 min 0,0 UV-I 0 W/m -1,2 C 0,4 C 12,9 km/h (3 Bft)
13.01.2021 21:20 0,4 C -0,6 C 89 % 1017,0 hPa 0,0 l/m 3,5 km/h (1 Bft) W 261 0 min 0,0 UV-I 0 W/m -1,2 C 0,4 C 6,4 km/h (2 Bft)
13.01.2021 21:22 0,4 C -0,6 C 89 % 1016,8 hPa 0,0 l/m 6,1 km/h (2 Bft) NW 315 0 min 0,0 UV-I 0 W/m -1,2 C 0,4 C 12,9 km/h (3 Bft)
13.01.2021 21:24 0,3 C -0,6 C 89 % 1017,0 hPa 0,0 l/m 4,9 km/h (1 Bft) W 259 0 min 0,0 UV-I 0 W/m -1,3 C 0,3 C 9,7 km/h (2 Bft)
13.01.2021 21:26 0,3 C -0,6 C 89 % 1017,0 hPa 0,0 l/m 6,1 km/h (2 Bft) W-SW 257 0 min 0,0 UV-I 0 W/m -1,3 C 0,3 C 9,7 km/h (2 Bft)
13.01.2021 21:28 0,3 C -0,6 C 89 % 1016,9 hPa 0,0 l/m 6,2 km/h (2 Bft) W-SW 246 0 min 0,0 UV-I 0 W/m -1,3 C 0,3 C 9,7 km/h (2 Bft)
13.01.2021 21:30 0,3 C -0,6 C 89 % 1017,0 hPa 0,0 l/m 7,9 km/h (2 Bft) W-SW 238 0 min 0,0 UV-I 0 W/m -1,3 C -1,2 C 12,9 km/h (3 Bft)
13.01.2021 21:32 0,3 C -0,6 C 89 % 1016,9 hPa 0,0 l/m 7,9 km/h (2 Bft) W-SW 244 0 min 0,0 UV-I 0 W/m -1,3 C -1,2 C 12,9 km/h (3 Bft)
13.01.2021 21:34 0,3 C -0,6 C 90 % 1016,7 hPa 0,0 l/m 7,6 km/h (2 Bft) W 259 0 min 0,0 UV-I 0 W/m -1,1 C -0,9 C 16,1 km/h (3 Bft)
13.01.2021 21:36 0,3 C -0,6 C 90 % 1016,9 hPa 0,0 l/m 8,6 km/h (2 Bft) W 265 0 min 0,0 UV-I 0 W/m -1,1 C -1,9 C 12,9 km/h (3 Bft)
13.01.2021 21:38 0,3 C -0,6 C 90 % 1016,8 hPa 0,0 l/m 10,0 km/h (2 Bft) W-SW 258 0 min 0,0 UV-I 0 W/m -1,1 C -3,1 C 14,5 km/h (3 Bft)
13.01.2021 21:40 0,3 C -0,6 C 89 % 1016,8 hPa 0,0 l/m 5,9 km/h (2 Bft) W 263 0 min 0,0 UV-I 0 W/m -1,3 C 0,3 C 9,7 km/h (2 Bft)
13.01.2021 21:42 0,3 C -0,6 C 89 % 1016,9 hPa 0,0 l/m 7,3 km/h (2 Bft) W-SW 252 0 min 0,0 UV-I 0 W/m -1,3 C -0,6 C 12,9 km/h (3 Bft)
13.01.2021 21:44 0,2 C -0,6 C 89 % 1016,9 hPa 0,0 l/m 8,3 km/h (2 Bft) W-SW 246 0 min 0,0 UV-I 0 W/m -1,4 C -1,7 C 14,5 km/h (3 Bft)
13.01.2021 21:46 0,2 C -0,6 C 89 % 1016,9 hPa 0,0 l/m 8,1 km/h (2 Bft) W 265 0 min 0,0 UV-I 0 W/m -1,4 C -1,5 C 16,1 km/h (3 Bft)
13.01.2021 21:48 0,2 C -0,6 C 89 % 1016,9 hPa 0,0 l/m 12,4 km/h (3 Bft) W 259 0 min 0,0 UV-I 0 W/m -1,4 C -5,1 C 16,1 km/h (3 Bft)
13.01.2021 21:50 0,3 C -0,6 C 89 % 1017,0 hPa 0,0 l/m 10,2 km/h (2 Bft) W 275 0 min 0,0 UV-I 0 W/m -1,3 C -3,3 C 19,3 km/h (3 Bft)
13.01.2021 21:52 0,3 C -0,6 C 90 % 1017,0 hPa 0,0 l/m 6,8 km/h (2 Bft) W 263 0 min 0,0 UV-I 0 W/m -1,1 C -0,1 C 12,9 km/h (3 Bft)
13.01.2021 21:54 0,3 C -0,6 C 90 % 1017,0 hPa 0,0 l/m 7,6 km/h (2 Bft) W-SW 258 0 min 0,0 UV-I 0 W/m -1,1 C -0,9 C 16,1 km/h (3 Bft)
13.01.2021 21:56 0,3 C -0,6 C 89 % 1017,0 hPa 0,0 l/m 9,4 km/h (2 Bft) W-SW 257 0 min 0,0 UV-I 0 W/m -1,3 C -2,6 C 14,5 km/h (3 Bft)
13.01.2021 21:58 0,3 C -0,6 C 89 % 1017,0 hPa 0,0 l/m 6,0 km/h (2 Bft) W 264 0 min 0,0 UV-I 0 W/m -1,3 C 0,3 C 9,7 km/h (2 Bft)
13.01.2021 22:00 0,3 C -0,6 C 89 % 1017,0 hPa 0,0 l/m 8,1 km/h (2 Bft) W 267 0 min 0,0 UV-I 0 W/m -1,3 C -1,4 C 12,9 km/h (3 Bft)
13.01.2021 22:02 0,3 C -0,6 C 89 % 1017,1 hPa 0,0 l/m 3,8 km/h (1 Bft) W-SW 250 0 min 0,0 UV-I 0 W/m -1,3 C 0,3 C 6,4 km/h (2 Bft)
13.01.2021 22:04 0,3 C -0,6 C 89 % 1017,2 hPa 0,0 l/m 4,6 km/h (1 Bft) W-SW 258 0 min 0,0 UV-I 0 W/m -1,3 C 0,3 C 9,7 km/h (2 Bft)
13.01.2021 22:06 0,3 C -0,6 C 89 % 1017,2 hPa 0,0 l/m 5,1 km/h (1 Bft) SW 227 0 min 0,0 UV-I 0 W/m -1,3 C 0,3 C 11,3 km/h (2 Bft)
13.01.2021 22:08 0,3 C -0,6 C 89 % 1017,2 hPa 0,0 l/m 3,6 km/h (1 Bft) W-SW 248 0 min 0,0 UV-I 0 W/m -1,3 C 0,3 C 11,3 km/h (2 Bft)
13.01.2021 22:10 0,3 C -0,6 C 89 % 1017,1 hPa 0,0 l/m 6,6 km/h (2 Bft) W 268 0 min 0,0 UV-I 0 W/m -1,3 C 0,1 C 14,5 km/h (3 Bft)
13.01.2021 22:12 0,3 C -0,6 C 89 % 1017,0 hPa 0,0 l/m 6,0 km/h (2 Bft) SW 235 0 min 0,0 UV-I 0 W/m -1,3 C 0,3 C 11,3 km/h (2 Bft)
13.01.2021 22:14 0,3 C -0,6 C 89 % 1017,0 hPa 0,0 l/m 7,1 km/h (2 Bft) W-SW 238 0 min 0,0 UV-I 0 W/m -1,3 C -0,4 C 12,9 km/h (3 Bft)
13.01.2021 22:16 0,3 C -0,6 C 89 % 1016,9 hPa 0,0 l/m 8,8 km/h (2 Bft) W 267 0 min 0,0 UV-I 0 W/m -1,3 C -2,1 C 14,5 km/h (3 Bft)
13.01.2021 22:18 0,3 C -0,6 C 89 % 1017,1 hPa 0,0 l/m 8,8 km/h (2 Bft) W 281 0 min 0,0 UV-I 0 W/m -1,3 C -2,1 C 14,5 km/h (3 Bft)
13.01.2021 22:20 0,3 C -0,6 C 89 % 1017,1 hPa 0,0 l/m 7,3 km/h (2 Bft) W-SW 246 0 min 0,0 UV-I 0 W/m -1,3 C -0,6 C 14,5 km/h (3 Bft)
13.01.2021 22:22 0,4 C -0,6 C 89 % 1017,1 hPa 0,0 l/m 8,3 km/h (2 Bft) W 262 0 min 0,0 UV-I 0 W/m -1,2 C -1,5 C 12,9 km/h (3 Bft)
13.01.2021 22:24 0,4 C -0,6 C 89 % 1017,1 hPa 0,0 l/m 4,9 km/h (1 Bft) W 269 0 min 0,0 UV-I 0 W/m -1,2 C 0,4 C 11,3 km/h (2 Bft)
13.01.2021 22:26 0,4 C -0,6 C 89 % 1017,0 hPa 0,0 l/m 7,9 km/h (2 Bft) W-SW 258 0 min 0,0 UV-I 0 W/m -1,2 C -1,1 C 14,5 km/h (3 Bft)
13.01.2021 22:28 0,4 C -0,6 C 89 % 1016,8 hPa 0,0 l/m 8,0 km/h (2 Bft) W-SW 251 0 min 0,0 UV-I 0 W/m -1,2 C -1,2 C 14,5 km/h (3 Bft)
13.01.2021 22:30 0,4 C -0,6 C 89 % 1016,8 hPa 0,0 l/m 7,6 km/h (2 Bft) W 273 0 min 0,0 UV-I 0 W/m -1,2 C -0,8 C 12,9 km/h (3 Bft)
13.01.2021 22:32 0,4 C -0,6 C 89 % 1016,7 hPa 0,0 l/m 8,5 km/h (2 Bft) W 267 0 min 0,0 UV-I 0 W/m -1,2 C -1,7 C 14,5 km/h (3 Bft)
13.01.2021 22:34 0,4 C -0,6 C 89 % 1016,8 hPa 0,0 l/m 7,3 km/h (2 Bft) W 269 0 min 0,0 UV-I 0 W/m -1,2 C -0,5 C 11,3 km/h (2 Bft)
13.01.2021 22:36 0,4 C 0,0 C 89 % 1016,8 hPa 0,0 l/m 9,0 km/h (2 Bft) W 265 0 min 0,0 UV-I 0 W/m -1,2 C -2,2 C 16,1 km/h (3 Bft)
13.01.2021 22:38 0,4 C 0,0 C 90 % 1017,0 hPa 0,0 l/m 9,1 km/h (2 Bft) W 273 0 min 0,0 UV-I 0 W/m -1,0 C -2,2 C 12,9 km/h (3 Bft)
13.01.2021 22:40 0,4 C 0,0 C 90 % 1016,9 hPa 0,0 l/m 8,1 km/h (2 Bft) W 277 0 min 0,0 UV-I 0 W/m -1,0 C -1,3 C 14,5 km/h (3 Bft)
13.01.2021 22:42 0,4 C 0,0 C 90 % 1017,0 hPa 0,0 l/m 8,0 km/h (2 Bft) W 259 0 min 0,0 UV-I 0 W/m -1,0 C -1,2 C 14,5 km/h (3 Bft)
13.01.2021 22:44 0,5 C 0,0 C 90 % 1017,1 hPa 0,0 l/m 9,3 km/h (2 Bft) W-SW 244 0 min 0,0 UV-I 0 W/m -0,9 C -2,3 C 14,5 km/h (3 Bft)
13.01.2021 22:46 0,5 C 0,0 C 90 % 1017,1 hPa 0,0 l/m 9,0 km/h (2 Bft) W-SW 255 0 min 0,0 UV-I 0 W/m -0,9 C -2,0 C 14,5 km/h (3 Bft)
13.01.2021 22:48 0,5 C 0,0 C 90 % 1017,3 hPa 0,0 l/m 6,8 km/h (2 Bft) SW 232 0 min 0,0 UV-I 0 W/m -0,9 C 0,1 C 11,3 km/h (2 Bft)
13.01.2021 22:50 0,5 C 0,0 C 90 % 1017,2 hPa 0,0 l/m 9,6 km/h (2 Bft) W-SW 254 0 min 0,0 UV-I 0 W/m -0,9 C -2,6 C 14,5 km/h (3 Bft)
13.01.2021 22:52 0,6 C 0,0 C 90 % 1017,4 hPa 0,0 l/m 9,8 km/h (2 Bft) NW 308 0 min 0,0 UV-I 0 W/m -0,8 C -2,6 C 16,1 km/h (3 Bft)
13.01.2021 22:54 0,6 C 0,0 C 90 % 1017,4 hPa 0,0 l/m 9,9 km/h (2 Bft) W 262 0 min 0,0 UV-I 0 W/m -0,8 C -2,7 C 14,5 km/h (3 Bft)
13.01.2021 22:56 0,6 C 0,0 C 90 % 1017,4 hPa 0,0 l/m 8,4 km/h (2 Bft) W-SW 241 0 min 0,0 UV-I 0 W/m -0,8 C -1,4 C 16,1 km/h (3 Bft)
13.01.2021 22:58 0,6 C 0,0 C 90 % 1017,2 hPa 0,0 l/m 6,0 km/h (2 Bft) W-SW 242 0 min 0,0 UV-I 0 W/m -0,8 C 0,6 C 8,0 km/h (2 Bft)
13.01.2021 23:00 0,6 C 0,0 C 90 % 1017,3 hPa 0,0 l/m 7,1 km/h (2 Bft) W 270 0 min 0,0 UV-I 0 W/m -0,8 C -0,1 C 12,9 km/h (3 Bft)
13.01.2021 23:02 0,6 C 0,0 C 90 % 1017,2 hPa 0,0 l/m 7,7 km/h (2 Bft) W-SW 256 0 min 0,0 UV-I 0 W/m -0,8 C -0,7 C 14,5 km/h (3 Bft)
13.01.2021 23:04 0,6 C 0,0 C 90 % 1017,2 hPa 0,0 l/m 7,9 km/h (2 Bft) SW 221 0 min 0,0 UV-I 0 W/m -0,8 C -0,9 C 12,9 km/h (3 Bft)
13.01.2021 23:06 0,6 C 0,0 C 90 % 1017,2 hPa 0,0 l/m 6,2 km/h (2 Bft) W-SW 248 0 min 0,0 UV-I 0 W/m -0,8 C 0,6 C 11,3 km/h (2 Bft)
13.01.2021 23:08 0,6 C 0,0 C 90 % 1017,3 hPa 0,0 l/m 6,8 km/h (2 Bft) SW 214 0 min 0,0 UV-I 0 W/m -0,8 C 0,2 C 11,3 km/h (2 Bft)
13.01.2021 23:10 0,6 C 0,0 C 90 % 1017,2 hPa 0,0 l/m 7,9 km/h (2 Bft) W-SW 244 0 min 0,0 UV-I 0 W/m -0,8 C -0,9 C 12,9 km/h (3 Bft)
13.01.2021 23:12 0,6 C 0,0 C 90 % 1017,3 hPa 0,0 l/m 6,4 km/h (2 Bft) W-SW 252 0 min 0,0 UV-I 0 W/m -0,8 C 0,6 C 12,9 km/h (3 Bft)
13.01.2021 23:14 0,6 C 0,0 C 90 % 1017,3 hPa 0,0 l/m 6,7 km/h (2 Bft) SW 217 0 min 0,0 UV-I 0 W/m -0,8 C 0,3 C 12,9 km/h (3 Bft)
13.01.2021 23:16 0,6 C 0,0 C 91 % 1017,2 hPa 0,0 l/m 5,4 km/h (1 Bft) SW 229 0 min 0,0 UV-I 0 W/m -0,7 C 0,6 C 11,3 km/h (2 Bft)
13.01.2021 23:18 0,6 C 0,0 C 91 % 1017,3 hPa 0,0 l/m 7,3 km/h (2 Bft) W-SW 254 0 min 0,0 UV-I 0 W/m -0,7 C -0,3 C 12,9 km/h (3 Bft)
13.01.2021 23:19 0,6 C 0,0 C 91 % 1017,4 hPa 0,0 l/m 4,8 km/h (1 Bft) W-SW 247 0 min 0,0 UV-I 0 W/m -0,7 C 0,6 C 8,0 km/h (2 Bft)
13.01.2021 23:20 0,6 C 0,0 C 91 % 1017,3 hPa 0,0 l/m 8,0 km/h (2 Bft) W-SW 247 0 min 0,0 UV-I 0 W/m -0,7 C -1,0 C 11,3 km/h (2 Bft)
13.01.2021 23:22 0,6 C 0,0 C 91 % 1017,4 hPa 0,0 l/m 6,1 km/h (2 Bft) W-SW 249 0 min 0,0 UV-I 0 W/m -0,7 C 0,6 C 9,7 km/h (2 Bft)
13.01.2021 23:24 0,6 C 0,0 C 91 % 1017,2 hPa 0,0 l/m 6,6 km/h (2 Bft) W-SW 248 0 min 0,0 UV-I 0 W/m -0,7 C 0,4 C 12,9 km/h (3 Bft)
13.01.2021 23:26 0,6 C 0,0 C 91 % 1017,4 hPa 0,0 l/m 6,3 km/h (2 Bft) W 263 0 min 0,0 UV-I 0 W/m -0,7 C 0,6 C 11,3 km/h (2 Bft)
13.01.2021 23:28 0,6 C 0,0 C 91 % 1017,4 hPa 0,0 l/m 7,0 km/h (2 Bft) W-SW 255 0 min 0,0 UV-I 0 W/m -0,7 C -0,0 C 11,3 km/h (2 Bft)
13.01.2021 23:30 0,6 C 0,0 C 91 % 1017,4 hPa 0,0 l/m 5,5 km/h (1 Bft) W 266 0 min 0,0 UV-I 0 W/m -0,7 C 0,6 C 8,0 km/h (2 Bft)
13.01.2021 23:32 0,6 C 0,0 C 91 % 1017,6 hPa 0,0 l/m 8,8 km/h (2 Bft) W-SW 250 0 min 0,0 UV-I 0 W/m -0,7 C -1,8 C 12,9 km/h (3 Bft)
13.01.2021 23:34 0,6 C 0,0 C 91 % 1017,7 hPa 0,0 l/m 7,7 km/h (2 Bft) W-SW 252 0 min 0,0 UV-I 0 W/m -0,7 C -0,7 C 14,5 km/h (3 Bft)
13.01.2021 23:36 0,6 C 0,0 C 91 % 1017,8 hPa 0,0 l/m 5,8 km/h (2 Bft) W-SW 254 0 min 0,0 UV-I 0 W/m -0,7 C 0,6 C 11,3 km/h (2 Bft)
13.01.2021 23:38 0,6 C 0,0 C 91 % 1017,8 hPa 0,0 l/m 8,4 km/h (2 Bft) W 265 0 min 0,0 UV-I 0 W/m -0,7 C -1,4 C 14,5 km/h (3 Bft)
13.01.2021 23:40 0,7 C 0,0 C 91 % 1017,9 hPa 0,0 l/m 4,5 km/h (1 Bft) W 261 0 min 0,0 UV-I 0 W/m -0,6 C 0,7 C 6,4 km/h (2 Bft)
13.01.2021 23:42 0,6 C 0,0 C 92 % 1017,9 hPa 0,0 l/m 3,9 km/h (1 Bft) W 263 0 min 0,0 UV-I 0 W/m -0,5 C 0,6 C 6,4 km/h (2 Bft)
13.01.2021 23:44 0,6 C 0,0 C 92 % 1017,8 hPa 0,0 l/m 4,2 km/h (1 Bft) W-SW 253 0 min 0,0 UV-I 0 W/m -0,5 C 0,6 C 6,4 km/h (2 Bft)
13.01.2021 23:46 0,6 C 0,0 C 92 % 1017,6 hPa 0,0 l/m 5,3 km/h (1 Bft) W-SW 254 0 min 0,0 UV-I 0 W/m -0,5 C 0,6 C 14,5 km/h (3 Bft)
13.01.2021 23:48 0,6 C 0,0 C 92 % 1017,5 hPa 0,0 l/m 9,6 km/h (2 Bft) SW 227 0 min 0,0 UV-I 0 W/m -0,5 C -2,5 C 16,1 km/h (3 Bft)
13.01.2021 23:50 0,6 C 0,0 C 92 % 1017,7 hPa 0,0 l/m 5,9 km/h (2 Bft) W-SW 249 0 min 0,0 UV-I 0 W/m -0,5 C 0,6 C 11,3 km/h (2 Bft)
13.01.2021 23:52 0,6 C 0,0 C 92 % 1017,7 hPa 0,0 l/m 7,0 km/h (2 Bft) W-SW 245 0 min 0,0 UV-I 0 W/m -0,5 C -0,0 C 12,9 km/h (3 Bft)
13.01.2021 23:54 0,6 C 0,0 C 92 % 1017,6 hPa 0,0 l/m 5,2 km/h (1 Bft) W 269 0 min 0,0 UV-I 0 W/m -0,5 C 0,6 C 9,7 km/h (2 Bft)
13.01.2021 23:56 0,7 C 0,0 C 92 % 1017,6 hPa 0,0 l/m 4,9 km/h (1 Bft) W-SW 244 0 min 0,0 UV-I 0 W/m -0,4 C 0,7 C 11,3 km/h (2 Bft)
13.01.2021 23:58 0,7 C 0,0 C 92 % 1017,7 hPa 0,0 l/m 5,0 km/h (1 Bft) W 266 0 min 0,0 UV-I 0 W/m -0,4 C 0,7 C 9,7 km/h (2 Bft)
13.01.2021 23:59 0,7 C 0,0 C 92 % 1017,6 hPa 0,0 l/m 4,8 km/h (1 Bft) W 270 0 min 0,0 UV-I 0 W/m -0,4 C 0,7 C 6,4 km/h (2 Bft)
_ Min-Zeit 03:38 03:05 14:24 19:12 - 01:50 - - - - - 03:38 08:58 01:51
Minimum _ -1,7 C -3,3 C 83 % 1016,2 hPa - 0,0 km/h (0 Bft) - - - - - -2,7 C -8,7 C 0,0 km/h (0 Bft)
_ Max-Zeit 14:48 14:42 18:16 04:49 00:00 13:44 - - 13:14 13:00 13:40 19:04 19:36 08:56
Maximum _ 1,5 C 3,3 C 95 % 1020,4 hPa 0,0 l/m 18,1 km/h
S (3 Bft)
- - 2 min 1,0 UV-I 365 W/m 0,5 C 1,3 C 30,6 km/h
W (5 Bft)
Durchschnitt _ 0,1 C -0,5 C 91 % 1018,5 hPa #0,0 l/m 7,5 km/h (2 Bft) W-SW - #42 min. 0,7 UV-I 98 W/m -1,2 C -1,7 C 12,5 km/h (3 Bft)